<?xml version="1.0" encoding="utf-8"?>
<gpx xmlns:xsi="http://www.w3.org/2001/XMLSchema-instance" xmlns:xsd="http://www.w3.org/2001/XMLSchema" version="1.1" creator="Shapelink.com" xmlns="http://www.topografix.com/GPX/1/1" xmlns:gpxtpx="http://www.garmin.com/xmlschemas/TrackPointExtension/v1">
  <metadata>
    <name>Løping 4.98 km, 2014-05-25</name>
    <desc></desc>
    <author><name>Mikael Blom</name></author> 
    <time>2014-05-25T10:29:45Z</time>
  </metadata>
  <trk>
    <name>Løping 4.98 km, 2014-05-25</name>
    <trkseg>
      <trkpt lat="59.8535864" lon="17.6422457">
        <ele>8.30859</ele>
        <time>2014-05-25T10:29:45Z</time>
      </trkpt>
      <trkpt lat="59.8535761" lon="17.6422578">
        <ele>8.30859</ele>
        <time>2014-05-25T10:29:46Z</time>
      </trkpt>
      <trkpt lat="59.853572" lon="17.6422766">
        <ele>8.30859</ele>
        <time>2014-05-25T10:29:47Z</time>
      </trkpt>
      <trkpt lat="59.8535627" lon="17.6422948">
        <ele>7.34717</ele>
        <time>2014-05-25T10:29:48Z</time>
      </trkpt>
      <trkpt lat="59.8535537" lon="17.6423163">
        <ele>7.82788</ele>
        <time>2014-05-25T10:29:49Z</time>
      </trkpt>
      <trkpt lat="59.8535461" lon="17.6423376">
        <ele>7.82788</ele>
        <time>2014-05-25T10:29:50Z</time>
      </trkpt>
      <trkpt lat="59.8535378" lon="17.6423548">
        <ele>7.82788</ele>
        <time>2014-05-25T10:29:51Z</time>
      </trkpt>
      <trkpt lat="59.8535211" lon="17.6423658">
        <ele>8.30859</ele>
        <time>2014-05-25T10:29:52Z</time>
      </trkpt>
      <trkpt lat="59.8535026" lon="17.6423642">
        <ele>8.30859</ele>
        <time>2014-05-25T10:29:53Z</time>
      </trkpt>
      <trkpt lat="59.8534865" lon="17.6423642">
        <ele>8.30859</ele>
        <time>2014-05-25T10:29:54Z</time>
      </trkpt>
      <trkpt lat="59.8534733" lon="17.6423828">
        <ele>8.78918</ele>
        <time>2014-05-25T10:29:55Z</time>
      </trkpt>
      <trkpt lat="59.8534631" lon="17.6424051">
        <ele>9.2699</ele>
        <time>2014-05-25T10:29:56Z</time>
      </trkpt>
      <trkpt lat="59.8534518" lon="17.6424222">
        <ele>8.78918</ele>
        <time>2014-05-25T10:29:57Z</time>
      </trkpt>
      <trkpt lat="59.8534383" lon="17.6424424">
        <ele>8.30859</ele>
        <time>2014-05-25T10:29:58Z</time>
      </trkpt>
      <trkpt lat="59.8534211" lon="17.6424818">
        <ele>8.78918</ele>
        <time>2014-05-25T10:29:59Z</time>
      </trkpt>
      <trkpt lat="59.8534103" lon="17.6425199">
        <ele>9.75061</ele>
        <time>2014-05-25T10:30:00Z</time>
      </trkpt>
      <trkpt lat="59.8533928" lon="17.6425564">
        <ele>8.78918</ele>
        <time>2014-05-25T10:30:01Z</time>
      </trkpt>
      <trkpt lat="59.8533782" lon="17.6425836">
        <ele>8.30859</ele>
        <time>2014-05-25T10:30:02Z</time>
      </trkpt>
      <trkpt lat="59.8533697" lon="17.6426004">
        <ele>7.82788</ele>
        <time>2014-05-25T10:30:03Z</time>
      </trkpt>
      <trkpt lat="59.8533549" lon="17.6426232">
        <ele>7.34717</ele>
        <time>2014-05-25T10:30:04Z</time>
      </trkpt>
      <trkpt lat="59.8533309" lon="17.6426591">
        <ele>6.86646</ele>
        <time>2014-05-25T10:30:05Z</time>
      </trkpt>
      <trkpt lat="59.8532975" lon="17.6427062">
        <ele>6.86646</ele>
        <time>2014-05-25T10:30:06Z</time>
      </trkpt>
      <trkpt lat="59.85326" lon="17.6427613">
        <ele>6.86646</ele>
        <time>2014-05-25T10:30:07Z</time>
      </trkpt>
      <trkpt lat="59.853231" lon="17.6428138">
        <ele>6.38586</ele>
        <time>2014-05-25T10:30:08Z</time>
      </trkpt>
      <trkpt lat="59.8532062" lon="17.6428542">
        <ele>6.38586</ele>
        <time>2014-05-25T10:30:09Z</time>
      </trkpt>
      <trkpt lat="59.8531793" lon="17.6428906">
        <ele>6.38586</ele>
        <time>2014-05-25T10:30:10Z</time>
      </trkpt>
      <trkpt lat="59.8531472" lon="17.642926">
        <ele>5.42456</ele>
        <time>2014-05-25T10:30:11Z</time>
      </trkpt>
      <trkpt lat="59.8531144" lon="17.6429644">
        <ele>5.90527</ele>
        <time>2014-05-25T10:30:12Z</time>
      </trkpt>
      <trkpt lat="59.8530819" lon="17.6430004">
        <ele>5.90527</ele>
        <time>2014-05-25T10:30:13Z</time>
      </trkpt>
      <trkpt lat="59.8530561" lon="17.6430372">
        <ele>6.38586</ele>
        <time>2014-05-25T10:30:14Z</time>
      </trkpt>
      <trkpt lat="59.8530332" lon="17.6430717">
        <ele>6.38586</ele>
        <time>2014-05-25T10:30:15Z</time>
      </trkpt>
      <trkpt lat="59.8530134" lon="17.6431096">
        <ele>6.86646</ele>
        <time>2014-05-25T10:30:16Z</time>
      </trkpt>
      <trkpt lat="59.8529923" lon="17.6431521">
        <ele>7.34717</ele>
        <time>2014-05-25T10:30:17Z</time>
      </trkpt>
      <trkpt lat="59.8529677" lon="17.6431941">
        <ele>7.34717</ele>
        <time>2014-05-25T10:30:18Z</time>
      </trkpt>
      <trkpt lat="59.852941" lon="17.643241">
        <ele>6.38586</ele>
        <time>2014-05-25T10:30:19Z</time>
      </trkpt>
      <trkpt lat="59.8529201" lon="17.6433236">
        <ele>6.38586</ele>
        <time>2014-05-25T10:30:20Z</time>
      </trkpt>
      <trkpt lat="59.8528947" lon="17.6433791">
        <ele>5.42456</ele>
        <time>2014-05-25T10:30:21Z</time>
      </trkpt>
      <trkpt lat="59.8528706" lon="17.6434109">
        <ele>5.42456</ele>
        <time>2014-05-25T10:30:22Z</time>
      </trkpt>
      <trkpt lat="59.8528466" lon="17.6434442">
        <ele>5.42456</ele>
        <time>2014-05-25T10:30:23Z</time>
      </trkpt>
      <trkpt lat="59.8528214" lon="17.6434808">
        <ele>4.46326</ele>
        <time>2014-05-25T10:30:24Z</time>
      </trkpt>
      <trkpt lat="59.8527987" lon="17.643512">
        <ele>4.46326</ele>
        <time>2014-05-25T10:30:25Z</time>
      </trkpt>
      <trkpt lat="59.852785" lon="17.6435342">
        <ele>4.46326</ele>
        <time>2014-05-25T10:30:26Z</time>
      </trkpt>
      <trkpt lat="59.852771" lon="17.6435564">
        <ele>4.46326</ele>
        <time>2014-05-25T10:30:27Z</time>
      </trkpt>
      <trkpt lat="59.8527494" lon="17.6435872">
        <ele>3.98267</ele>
        <time>2014-05-25T10:30:28Z</time>
      </trkpt>
      <trkpt lat="59.8527291" lon="17.6436157">
        <ele>3.98267</ele>
        <time>2014-05-25T10:30:29Z</time>
      </trkpt>
      <trkpt lat="59.8527096" lon="17.6436463">
        <ele>3.98267</ele>
        <time>2014-05-25T10:30:30Z</time>
      </trkpt>
      <trkpt lat="59.8526872" lon="17.6436802">
        <ele>3.98267</ele>
        <time>2014-05-25T10:30:31Z</time>
      </trkpt>
      <trkpt lat="59.8526591" lon="17.6437204">
        <ele>3.50195</ele>
        <time>2014-05-25T10:30:32Z</time>
      </trkpt>
      <trkpt lat="59.8526307" lon="17.6437592">
        <ele>3.98267</ele>
        <time>2014-05-25T10:30:33Z</time>
      </trkpt>
      <trkpt lat="59.8526029" lon="17.6437892">
        <ele>3.98267</ele>
        <time>2014-05-25T10:30:34Z</time>
      </trkpt>
      <trkpt lat="59.8525727" lon="17.6438198">
        <ele>4.46326</ele>
        <time>2014-05-25T10:30:35Z</time>
      </trkpt>
      <trkpt lat="59.8525456" lon="17.6438473">
        <ele>4.94385</ele>
        <time>2014-05-25T10:30:36Z</time>
      </trkpt>
      <trkpt lat="59.8525252" lon="17.6438736">
        <ele>5.42456</ele>
        <time>2014-05-25T10:30:37Z</time>
      </trkpt>
      <trkpt lat="59.8525018" lon="17.6439052">
        <ele>5.42456</ele>
        <time>2014-05-25T10:30:38Z</time>
      </trkpt>
      <trkpt lat="59.8524783" lon="17.6439285">
        <ele>5.42456</ele>
        <time>2014-05-25T10:30:39Z</time>
      </trkpt>
      <trkpt lat="59.8524514" lon="17.6439628">
        <ele>5.42456</ele>
        <time>2014-05-25T10:30:40Z</time>
      </trkpt>
      <trkpt lat="59.8524249" lon="17.6440016">
        <ele>5.42456</ele>
        <time>2014-05-25T10:30:41Z</time>
      </trkpt>
      <trkpt lat="59.8524028" lon="17.6440403">
        <ele>4.94385</ele>
        <time>2014-05-25T10:30:42Z</time>
      </trkpt>
      <trkpt lat="59.8523781" lon="17.6440855">
        <ele>4.94385</ele>
        <time>2014-05-25T10:30:43Z</time>
      </trkpt>
      <trkpt lat="59.8523494" lon="17.6441239">
        <ele>4.46326</ele>
        <time>2014-05-25T10:30:44Z</time>
      </trkpt>
      <trkpt lat="59.8523244" lon="17.6441589">
        <ele>4.46326</ele>
        <time>2014-05-25T10:30:45Z</time>
      </trkpt>
      <trkpt lat="59.8522928" lon="17.6442031">
        <ele>4.46326</ele>
        <time>2014-05-25T10:30:46Z</time>
      </trkpt>
      <trkpt lat="59.8522591" lon="17.6442666">
        <ele>4.46326</ele>
        <time>2014-05-25T10:30:47Z</time>
      </trkpt>
      <trkpt lat="59.8522306" lon="17.6443184">
        <ele>4.94385</ele>
        <time>2014-05-25T10:30:48Z</time>
      </trkpt>
      <trkpt lat="59.8522065" lon="17.6443617">
        <ele>4.94385</ele>
        <time>2014-05-25T10:30:49Z</time>
      </trkpt>
      <trkpt lat="59.8521833" lon="17.6444041">
        <ele>4.94385</ele>
        <time>2014-05-25T10:30:50Z</time>
      </trkpt>
      <trkpt lat="59.8521583" lon="17.6444374">
        <ele>5.42456</ele>
        <time>2014-05-25T10:30:51Z</time>
      </trkpt>
      <trkpt lat="59.8521366" lon="17.6444683">
        <ele>5.42456</ele>
        <time>2014-05-25T10:30:52Z</time>
      </trkpt>
      <trkpt lat="59.8521205" lon="17.6445045">
        <ele>5.90527</ele>
        <time>2014-05-25T10:30:53Z</time>
      </trkpt>
      <trkpt lat="59.8520992" lon="17.6445212">
        <ele>5.90527</ele>
        <time>2014-05-25T10:30:54Z</time>
      </trkpt>
      <trkpt lat="59.8520771" lon="17.6445429">
        <ele>5.90527</ele>
        <time>2014-05-25T10:30:55Z</time>
      </trkpt>
      <trkpt lat="59.8520571" lon="17.6445699">
        <ele>5.42456</ele>
        <time>2014-05-25T10:30:56Z</time>
      </trkpt>
      <trkpt lat="59.8520354" lon="17.6446016">
        <ele>5.42456</ele>
        <time>2014-05-25T10:30:57Z</time>
      </trkpt>
      <trkpt lat="59.8520169" lon="17.6446256">
        <ele>5.90527</ele>
        <time>2014-05-25T10:30:58Z</time>
      </trkpt>
      <trkpt lat="59.8519972" lon="17.6446407">
        <ele>5.90527</ele>
        <time>2014-05-25T10:30:59Z</time>
      </trkpt>
      <trkpt lat="59.8519708" lon="17.6446603">
        <ele>5.90527</ele>
        <time>2014-05-25T10:31:00Z</time>
      </trkpt>
      <trkpt lat="59.8519418" lon="17.6446793">
        <ele>5.42456</ele>
        <time>2014-05-25T10:31:01Z</time>
      </trkpt>
      <trkpt lat="59.8519152" lon="17.6446983">
        <ele>4.94385</ele>
        <time>2014-05-25T10:31:02Z</time>
      </trkpt>
      <trkpt lat="59.8518878" lon="17.6447243">
        <ele>4.94385</ele>
        <time>2014-05-25T10:31:03Z</time>
      </trkpt>
      <trkpt lat="59.8518593" lon="17.6447502">
        <ele>4.46326</ele>
        <time>2014-05-25T10:31:04Z</time>
      </trkpt>
      <trkpt lat="59.8518334" lon="17.6447719">
        <ele>4.94385</ele>
        <time>2014-05-25T10:31:05Z</time>
      </trkpt>
      <trkpt lat="59.8518036" lon="17.6448008">
        <ele>4.46326</ele>
        <time>2014-05-25T10:31:06Z</time>
      </trkpt>
      <trkpt lat="59.8517753" lon="17.6448236">
        <ele>4.46326</ele>
        <time>2014-05-25T10:31:07Z</time>
      </trkpt>
      <trkpt lat="59.8517497" lon="17.6448444">
        <ele>4.94385</ele>
        <time>2014-05-25T10:31:08Z</time>
      </trkpt>
      <trkpt lat="59.851722" lon="17.6448708">
        <ele>4.94385</ele>
        <time>2014-05-25T10:31:09Z</time>
      </trkpt>
      <trkpt lat="59.8516958" lon="17.6449028">
        <ele>4.94385</ele>
        <time>2014-05-25T10:31:10Z</time>
      </trkpt>
      <trkpt lat="59.8516666" lon="17.6449318">
        <ele>4.94385</ele>
        <time>2014-05-25T10:31:11Z</time>
      </trkpt>
      <trkpt lat="59.8516335" lon="17.6449598">
        <ele>4.94385</ele>
        <time>2014-05-25T10:31:12Z</time>
      </trkpt>
      <trkpt lat="59.8516021" lon="17.6449869">
        <ele>4.94385</ele>
        <time>2014-05-25T10:31:13Z</time>
      </trkpt>
      <trkpt lat="59.8515755" lon="17.6450172">
        <ele>4.94385</ele>
        <time>2014-05-25T10:31:14Z</time>
      </trkpt>
      <trkpt lat="59.8515513" lon="17.6450457">
        <ele>5.42456</ele>
        <time>2014-05-25T10:31:15Z</time>
      </trkpt>
      <trkpt lat="59.8515288" lon="17.6450702">
        <ele>5.90527</ele>
        <time>2014-05-25T10:31:16Z</time>
      </trkpt>
      <trkpt lat="59.8515021" lon="17.6450931">
        <ele>5.90527</ele>
        <time>2014-05-25T10:31:17Z</time>
      </trkpt>
      <trkpt lat="59.851474" lon="17.6451175">
        <ele>5.90527</ele>
        <time>2014-05-25T10:31:18Z</time>
      </trkpt>
      <trkpt lat="59.8514497" lon="17.6451458">
        <ele>6.38586</ele>
        <time>2014-05-25T10:31:19Z</time>
      </trkpt>
      <trkpt lat="59.8514227" lon="17.6451785">
        <ele>6.86646</ele>
        <time>2014-05-25T10:31:20Z</time>
      </trkpt>
      <trkpt lat="59.8513942" lon="17.6452059">
        <ele>6.38586</ele>
        <time>2014-05-25T10:31:21Z</time>
      </trkpt>
      <trkpt lat="59.8513673" lon="17.6452428">
        <ele>7.34717</ele>
        <time>2014-05-25T10:31:22Z</time>
      </trkpt>
      <trkpt lat="59.8513402" lon="17.6452702">
        <ele>7.34717</ele>
        <time>2014-05-25T10:31:23Z</time>
      </trkpt>
      <trkpt lat="59.8513148" lon="17.6452867">
        <ele>7.34717</ele>
        <time>2014-05-25T10:31:24Z</time>
      </trkpt>
      <trkpt lat="59.8512901" lon="17.6452986">
        <ele>7.82788</ele>
        <time>2014-05-25T10:31:25Z</time>
      </trkpt>
      <trkpt lat="59.8512642" lon="17.6453168">
        <ele>7.82788</ele>
        <time>2014-05-25T10:31:26Z</time>
      </trkpt>
      <trkpt lat="59.8512376" lon="17.6453386">
        <ele>7.82788</ele>
        <time>2014-05-25T10:31:27Z</time>
      </trkpt>
      <trkpt lat="59.8512093" lon="17.6453783">
        <ele>7.82788</ele>
        <time>2014-05-25T10:31:28Z</time>
      </trkpt>
      <trkpt lat="59.8511788" lon="17.6454149">
        <ele>7.82788</ele>
        <time>2014-05-25T10:31:29Z</time>
      </trkpt>
      <trkpt lat="59.8511516" lon="17.6454453">
        <ele>7.82788</ele>
        <time>2014-05-25T10:31:30Z</time>
      </trkpt>
      <trkpt lat="59.851127" lon="17.645478">
        <ele>7.82788</ele>
        <time>2014-05-25T10:31:31Z</time>
      </trkpt>
      <trkpt lat="59.8511016" lon="17.6455163">
        <ele>7.82788</ele>
        <time>2014-05-25T10:31:32Z</time>
      </trkpt>
      <trkpt lat="59.8510731" lon="17.6455407">
        <ele>7.82788</ele>
        <time>2014-05-25T10:31:33Z</time>
      </trkpt>
      <trkpt lat="59.8510475" lon="17.6455593">
        <ele>7.82788</ele>
        <time>2014-05-25T10:31:34Z</time>
      </trkpt>
      <trkpt lat="59.851028" lon="17.6455743">
        <ele>8.78918</ele>
        <time>2014-05-25T10:31:35Z</time>
      </trkpt>
      <trkpt lat="59.8510051" lon="17.6455899">
        <ele>9.2699</ele>
        <time>2014-05-25T10:31:36Z</time>
      </trkpt>
      <trkpt lat="59.8509779" lon="17.6456157">
        <ele>9.75061</ele>
        <time>2014-05-25T10:31:37Z</time>
      </trkpt>
      <trkpt lat="59.8509512" lon="17.6456453">
        <ele>10.2312</ele>
        <time>2014-05-25T10:31:38Z</time>
      </trkpt>
      <trkpt lat="59.8509226" lon="17.6456671">
        <ele>10.2312</ele>
        <time>2014-05-25T10:31:39Z</time>
      </trkpt>
      <trkpt lat="59.8508944" lon="17.6456945">
        <ele>10.2312</ele>
        <time>2014-05-25T10:31:40Z</time>
      </trkpt>
      <trkpt lat="59.8508675" lon="17.6457266">
        <ele>10.2312</ele>
        <time>2014-05-25T10:31:41Z</time>
      </trkpt>
      <trkpt lat="59.8508418" lon="17.645755">
        <ele>10.2312</ele>
        <time>2014-05-25T10:31:42Z</time>
      </trkpt>
      <trkpt lat="59.8508166" lon="17.6457824">
        <ele>10.7118</ele>
        <time>2014-05-25T10:31:43Z</time>
      </trkpt>
      <trkpt lat="59.8507922" lon="17.6458171">
        <ele>11.1925</ele>
        <time>2014-05-25T10:31:44Z</time>
      </trkpt>
      <trkpt lat="59.8507679" lon="17.6458462">
        <ele>11.1925</ele>
        <time>2014-05-25T10:31:45Z</time>
      </trkpt>
      <trkpt lat="59.8507436" lon="17.6458621">
        <ele>11.6732</ele>
        <time>2014-05-25T10:31:46Z</time>
      </trkpt>
      <trkpt lat="59.8507189" lon="17.6458753">
        <ele>11.6732</ele>
        <time>2014-05-25T10:31:47Z</time>
      </trkpt>
      <trkpt lat="59.8506979" lon="17.645895">
        <ele>12.1538</ele>
        <time>2014-05-25T10:31:48Z</time>
      </trkpt>
      <trkpt lat="59.8506783" lon="17.6459238">
        <ele>12.6344</ele>
        <time>2014-05-25T10:31:49Z</time>
      </trkpt>
      <trkpt lat="59.8506579" lon="17.6459417">
        <ele>13.1151</ele>
        <time>2014-05-25T10:31:50Z</time>
      </trkpt>
      <trkpt lat="59.8506374" lon="17.6459517">
        <ele>13.1151</ele>
        <time>2014-05-25T10:31:51Z</time>
      </trkpt>
      <trkpt lat="59.8506177" lon="17.6459691">
        <ele>13.5958</ele>
        <time>2014-05-25T10:31:52Z</time>
      </trkpt>
      <trkpt lat="59.8505943" lon="17.6459917">
        <ele>13.5958</ele>
        <time>2014-05-25T10:31:53Z</time>
      </trkpt>
      <trkpt lat="59.850568" lon="17.6460156">
        <ele>14.0764</ele>
        <time>2014-05-25T10:31:54Z</time>
      </trkpt>
      <trkpt lat="59.850539" lon="17.6460343">
        <ele>14.0764</ele>
        <time>2014-05-25T10:31:55Z</time>
      </trkpt>
      <trkpt lat="59.8505131" lon="17.6460488">
        <ele>14.557</ele>
        <time>2014-05-25T10:31:56Z</time>
      </trkpt>
      <trkpt lat="59.850487" lon="17.6460624">
        <ele>14.557</ele>
        <time>2014-05-25T10:31:57Z</time>
      </trkpt>
      <trkpt lat="59.8504595" lon="17.6460724">
        <ele>15.0377</ele>
        <time>2014-05-25T10:31:58Z</time>
      </trkpt>
      <trkpt lat="59.8504293" lon="17.6460799">
        <ele>15.0377</ele>
        <time>2014-05-25T10:31:59Z</time>
      </trkpt>
      <trkpt lat="59.850402" lon="17.6460973">
        <ele>15.0377</ele>
        <time>2014-05-25T10:32:00Z</time>
      </trkpt>
      <trkpt lat="59.850377" lon="17.6461251">
        <ele>15.0377</ele>
        <time>2014-05-25T10:32:01Z</time>
      </trkpt>
      <trkpt lat="59.8503536" lon="17.6461498">
        <ele>15.0377</ele>
        <time>2014-05-25T10:32:02Z</time>
      </trkpt>
      <trkpt lat="59.8503293" lon="17.6461783">
        <ele>15.0377</ele>
        <time>2014-05-25T10:32:03Z</time>
      </trkpt>
      <trkpt lat="59.850301" lon="17.6461968">
        <ele>15.0377</ele>
        <time>2014-05-25T10:32:04Z</time>
      </trkpt>
      <trkpt lat="59.850272" lon="17.6462157">
        <ele>15.0377</ele>
        <time>2014-05-25T10:32:05Z</time>
      </trkpt>
      <trkpt lat="59.8502488" lon="17.6462375">
        <ele>15.0377</ele>
        <time>2014-05-25T10:32:06Z</time>
      </trkpt>
      <trkpt lat="59.8502275" lon="17.6462621">
        <ele>15.5184</ele>
        <time>2014-05-25T10:32:07Z</time>
      </trkpt>
      <trkpt lat="59.8502034" lon="17.6462976">
        <ele>15.5184</ele>
        <time>2014-05-25T10:32:08Z</time>
      </trkpt>
      <trkpt lat="59.8501778" lon="17.6463369">
        <ele>15.999</ele>
        <time>2014-05-25T10:32:09Z</time>
      </trkpt>
      <trkpt lat="59.8501482" lon="17.6463829">
        <ele>15.999</ele>
        <time>2014-05-25T10:32:10Z</time>
      </trkpt>
      <trkpt lat="59.8501187" lon="17.6464337">
        <ele>16.4797</ele>
        <time>2014-05-25T10:32:11Z</time>
      </trkpt>
      <trkpt lat="59.8500872" lon="17.6464861">
        <ele>16.4797</ele>
        <time>2014-05-25T10:32:12Z</time>
      </trkpt>
      <trkpt lat="59.8500577" lon="17.6465233">
        <ele>16.4797</ele>
        <time>2014-05-25T10:32:13Z</time>
      </trkpt>
      <trkpt lat="59.8500335" lon="17.646545">
        <ele>16.4797</ele>
        <time>2014-05-25T10:32:14Z</time>
      </trkpt>
      <trkpt lat="59.8500127" lon="17.6465668">
        <ele>15.999</ele>
        <time>2014-05-25T10:32:15Z</time>
      </trkpt>
      <trkpt lat="59.8499952" lon="17.6465801">
        <ele>15.999</ele>
        <time>2014-05-25T10:32:16Z</time>
      </trkpt>
      <trkpt lat="59.8499757" lon="17.6466072">
        <ele>15.999</ele>
        <time>2014-05-25T10:32:17Z</time>
      </trkpt>
      <trkpt lat="59.849947" lon="17.6466425">
        <ele>15.5184</ele>
        <time>2014-05-25T10:32:18Z</time>
      </trkpt>
      <trkpt lat="59.84992" lon="17.6466638">
        <ele>15.5184</ele>
        <time>2014-05-25T10:32:19Z</time>
      </trkpt>
      <trkpt lat="59.8498945" lon="17.6466844">
        <ele>15.5184</ele>
        <time>2014-05-25T10:32:20Z</time>
      </trkpt>
      <trkpt lat="59.8498633" lon="17.6467088">
        <ele>15.5184</ele>
        <time>2014-05-25T10:32:21Z</time>
      </trkpt>
      <trkpt lat="59.8498335" lon="17.6467346">
        <ele>15.5184</ele>
        <time>2014-05-25T10:32:22Z</time>
      </trkpt>
      <trkpt lat="59.8498091" lon="17.6467553">
        <ele>15.5184</ele>
        <time>2014-05-25T10:32:23Z</time>
      </trkpt>
      <trkpt lat="59.8497862" lon="17.6467748">
        <ele>15.5184</ele>
        <time>2014-05-25T10:32:24Z</time>
      </trkpt>
      <trkpt lat="59.8497598" lon="17.6468028">
        <ele>15.0377</ele>
        <time>2014-05-25T10:32:25Z</time>
      </trkpt>
      <trkpt lat="59.8497336" lon="17.6468289">
        <ele>15.0377</ele>
        <time>2014-05-25T10:32:26Z</time>
      </trkpt>
      <trkpt lat="59.8497058" lon="17.6468477">
        <ele>14.0764</ele>
        <time>2014-05-25T10:32:27Z</time>
      </trkpt>
      <trkpt lat="59.8496803" lon="17.6468653">
        <ele>14.0764</ele>
        <time>2014-05-25T10:32:28Z</time>
      </trkpt>
      <trkpt lat="59.8496521" lon="17.6468818">
        <ele>13.5958</ele>
        <time>2014-05-25T10:32:29Z</time>
      </trkpt>
      <trkpt lat="59.849625" lon="17.6468968">
        <ele>13.1151</ele>
        <time>2014-05-25T10:32:30Z</time>
      </trkpt>
      <trkpt lat="59.8495999" lon="17.6469251">
        <ele>12.6344</ele>
        <time>2014-05-25T10:32:31Z</time>
      </trkpt>
      <trkpt lat="59.8495735" lon="17.646952">
        <ele>12.6344</ele>
        <time>2014-05-25T10:32:32Z</time>
      </trkpt>
      <trkpt lat="59.8495473" lon="17.6469797">
        <ele>13.1151</ele>
        <time>2014-05-25T10:32:33Z</time>
      </trkpt>
      <trkpt lat="59.8495245" lon="17.6470013">
        <ele>13.1151</ele>
        <time>2014-05-25T10:32:34Z</time>
      </trkpt>
      <trkpt lat="59.8495012" lon="17.6470162">
        <ele>13.1151</ele>
        <time>2014-05-25T10:32:35Z</time>
      </trkpt>
      <trkpt lat="59.8494746" lon="17.6470464">
        <ele>13.1151</ele>
        <time>2014-05-25T10:32:36Z</time>
      </trkpt>
      <trkpt lat="59.8494474" lon="17.6470924">
        <ele>13.5958</ele>
        <time>2014-05-25T10:32:37Z</time>
      </trkpt>
      <trkpt lat="59.8494194" lon="17.6471378">
        <ele>13.5958</ele>
        <time>2014-05-25T10:32:38Z</time>
      </trkpt>
      <trkpt lat="59.8493942" lon="17.6471708">
        <ele>13.5958</ele>
        <time>2014-05-25T10:32:39Z</time>
      </trkpt>
      <trkpt lat="59.8493673" lon="17.6472059">
        <ele>13.5958</ele>
        <time>2014-05-25T10:32:40Z</time>
      </trkpt>
      <trkpt lat="59.8493418" lon="17.6472395">
        <ele>13.5958</ele>
        <time>2014-05-25T10:32:41Z</time>
      </trkpt>
      <trkpt lat="59.8493177" lon="17.6472662">
        <ele>14.0764</ele>
        <time>2014-05-25T10:32:42Z</time>
      </trkpt>
      <trkpt lat="59.8492954" lon="17.6472906">
        <ele>14.0764</ele>
        <time>2014-05-25T10:32:43Z</time>
      </trkpt>
      <trkpt lat="59.8492731" lon="17.6473169">
        <ele>14.0764</ele>
        <time>2014-05-25T10:32:44Z</time>
      </trkpt>
      <trkpt lat="59.8492512" lon="17.6473379">
        <ele>14.0764</ele>
        <time>2014-05-25T10:32:45Z</time>
      </trkpt>
      <trkpt lat="59.8492268" lon="17.6473731">
        <ele>14.0764</ele>
        <time>2014-05-25T10:32:46Z</time>
      </trkpt>
      <trkpt lat="59.8491989" lon="17.6474085">
        <ele>14.0764</ele>
        <time>2014-05-25T10:32:47Z</time>
      </trkpt>
      <trkpt lat="59.8491733" lon="17.6474439">
        <ele>14.0764</ele>
        <time>2014-05-25T10:32:48Z</time>
      </trkpt>
      <trkpt lat="59.8491477" lon="17.6474776">
        <ele>13.5958</ele>
        <time>2014-05-25T10:32:49Z</time>
      </trkpt>
      <trkpt lat="59.8491226" lon="17.6475162">
        <ele>12.6344</ele>
        <time>2014-05-25T10:32:50Z</time>
      </trkpt>
      <trkpt lat="59.8491001" lon="17.647554">
        <ele>12.1538</ele>
        <time>2014-05-25T10:32:51Z</time>
      </trkpt>
      <trkpt lat="59.8490782" lon="17.647592">
        <ele>12.1538</ele>
        <time>2014-05-25T10:32:52Z</time>
      </trkpt>
      <trkpt lat="59.8490559" lon="17.6476257">
        <ele>11.6732</ele>
        <time>2014-05-25T10:32:53Z</time>
      </trkpt>
      <trkpt lat="59.8490327" lon="17.6476521">
        <ele>11.6732</ele>
        <time>2014-05-25T10:32:54Z</time>
      </trkpt>
      <trkpt lat="59.8490071" lon="17.6476795">
        <ele>11.1925</ele>
        <time>2014-05-25T10:32:55Z</time>
      </trkpt>
      <trkpt lat="59.8489801" lon="17.6477111">
        <ele>10.7118</ele>
        <time>2014-05-25T10:32:56Z</time>
      </trkpt>
      <trkpt lat="59.8489517" lon="17.6477458">
        <ele>10.2312</ele>
        <time>2014-05-25T10:32:57Z</time>
      </trkpt>
      <trkpt lat="59.8489213" lon="17.6477671">
        <ele>10.2312</ele>
        <time>2014-05-25T10:32:58Z</time>
      </trkpt>
      <trkpt lat="59.8488921" lon="17.647791">
        <ele>10.7118</ele>
        <time>2014-05-25T10:32:59Z</time>
      </trkpt>
      <trkpt lat="59.8488658" lon="17.6478323">
        <ele>10.2312</ele>
        <time>2014-05-25T10:33:00Z</time>
      </trkpt>
      <trkpt lat="59.848841" lon="17.6478711">
        <ele>10.2312</ele>
        <time>2014-05-25T10:33:01Z</time>
      </trkpt>
      <trkpt lat="59.8488156" lon="17.6479026">
        <ele>9.75061</ele>
        <time>2014-05-25T10:33:02Z</time>
      </trkpt>
      <trkpt lat="59.8487922" lon="17.6479376">
        <ele>9.2699</ele>
        <time>2014-05-25T10:33:03Z</time>
      </trkpt>
      <trkpt lat="59.8487739" lon="17.647966">
        <ele>9.75061</ele>
        <time>2014-05-25T10:33:04Z</time>
      </trkpt>
      <trkpt lat="59.848754" lon="17.6479902">
        <ele>10.2312</ele>
        <time>2014-05-25T10:33:05Z</time>
      </trkpt>
      <trkpt lat="59.8487351" lon="17.6480082">
        <ele>10.7118</ele>
        <time>2014-05-25T10:33:06Z</time>
      </trkpt>
      <trkpt lat="59.8487161" lon="17.6480317">
        <ele>11.1925</ele>
        <time>2014-05-25T10:33:07Z</time>
      </trkpt>
      <trkpt lat="59.8486909" lon="17.6480562">
        <ele>11.1925</ele>
        <time>2014-05-25T10:33:08Z</time>
      </trkpt>
      <trkpt lat="59.8486633" lon="17.6480726">
        <ele>11.6732</ele>
        <time>2014-05-25T10:33:09Z</time>
      </trkpt>
      <trkpt lat="59.8486374" lon="17.6480907">
        <ele>11.6732</ele>
        <time>2014-05-25T10:33:10Z</time>
      </trkpt>
      <trkpt lat="59.8486097" lon="17.6481209">
        <ele>11.6732</ele>
        <time>2014-05-25T10:33:11Z</time>
      </trkpt>
      <trkpt lat="59.8485855" lon="17.6481496">
        <ele>11.6732</ele>
        <time>2014-05-25T10:33:12Z</time>
      </trkpt>
      <trkpt lat="59.8485603" lon="17.648174">
        <ele>11.6732</ele>
        <time>2014-05-25T10:33:13Z</time>
      </trkpt>
      <trkpt lat="59.8485342" lon="17.6481921">
        <ele>12.1538</ele>
        <time>2014-05-25T10:33:14Z</time>
      </trkpt>
      <trkpt lat="59.8485053" lon="17.6482067">
        <ele>12.1538</ele>
        <time>2014-05-25T10:33:15Z</time>
      </trkpt>
      <trkpt lat="59.8484754" lon="17.6482052">
        <ele>12.1538</ele>
        <time>2014-05-25T10:33:16Z</time>
      </trkpt>
      <trkpt lat="59.8484505" lon="17.648226">
        <ele>12.1538</ele>
        <time>2014-05-25T10:33:17Z</time>
      </trkpt>
      <trkpt lat="59.8484229" lon="17.6482589">
        <ele>12.1538</ele>
        <time>2014-05-25T10:33:18Z</time>
      </trkpt>
      <trkpt lat="59.8483923" lon="17.6482803">
        <ele>11.6732</ele>
        <time>2014-05-25T10:33:19Z</time>
      </trkpt>
      <trkpt lat="59.8483637" lon="17.6483006">
        <ele>11.6732</ele>
        <time>2014-05-25T10:33:20Z</time>
      </trkpt>
      <trkpt lat="59.8483343" lon="17.6483203">
        <ele>11.6732</ele>
        <time>2014-05-25T10:33:21Z</time>
      </trkpt>
      <trkpt lat="59.8483022" lon="17.6483462">
        <ele>11.6732</ele>
        <time>2014-05-25T10:33:22Z</time>
      </trkpt>
      <trkpt lat="59.8482723" lon="17.6483708">
        <ele>11.1925</ele>
        <time>2014-05-25T10:33:23Z</time>
      </trkpt>
      <trkpt lat="59.8482447" lon="17.648388">
        <ele>11.1925</ele>
        <time>2014-05-25T10:33:24Z</time>
      </trkpt>
      <trkpt lat="59.8482188" lon="17.6484">
        <ele>10.7118</ele>
        <time>2014-05-25T10:33:25Z</time>
      </trkpt>
      <trkpt lat="59.8481951" lon="17.6484138">
        <ele>10.2312</ele>
        <time>2014-05-25T10:33:26Z</time>
      </trkpt>
      <trkpt lat="59.848171" lon="17.6484289">
        <ele>10.2312</ele>
        <time>2014-05-25T10:33:27Z</time>
      </trkpt>
      <trkpt lat="59.8481477" lon="17.6484529">
        <ele>10.7118</ele>
        <time>2014-05-25T10:33:28Z</time>
      </trkpt>
      <trkpt lat="59.848125" lon="17.6484781">
        <ele>10.7118</ele>
        <time>2014-05-25T10:33:29Z</time>
      </trkpt>
      <trkpt lat="59.8480987" lon="17.6485016">
        <ele>10.2312</ele>
        <time>2014-05-25T10:33:30Z</time>
      </trkpt>
      <trkpt lat="59.8480676" lon="17.648531">
        <ele>9.75061</ele>
        <time>2014-05-25T10:33:31Z</time>
      </trkpt>
      <trkpt lat="59.8480374" lon="17.6485496">
        <ele>9.75061</ele>
        <time>2014-05-25T10:33:32Z</time>
      </trkpt>
      <trkpt lat="59.8480054" lon="17.648567">
        <ele>9.2699</ele>
        <time>2014-05-25T10:33:33Z</time>
      </trkpt>
      <trkpt lat="59.8479732" lon="17.648599">
        <ele>9.2699</ele>
        <time>2014-05-25T10:33:34Z</time>
      </trkpt>
      <trkpt lat="59.8479465" lon="17.6486037">
        <ele>9.75061</ele>
        <time>2014-05-25T10:33:35Z</time>
      </trkpt>
      <trkpt lat="59.8479231" lon="17.648598">
        <ele>9.75061</ele>
        <time>2014-05-25T10:33:36Z</time>
      </trkpt>
      <trkpt lat="59.8478982" lon="17.6486098">
        <ele>9.75061</ele>
        <time>2014-05-25T10:33:37Z</time>
      </trkpt>
      <trkpt lat="59.8478728" lon="17.6486312">
        <ele>9.75061</ele>
        <time>2014-05-25T10:33:38Z</time>
      </trkpt>
      <trkpt lat="59.8478485" lon="17.6486481">
        <ele>9.75061</ele>
        <time>2014-05-25T10:33:39Z</time>
      </trkpt>
      <trkpt lat="59.847824" lon="17.6486531">
        <ele>9.2699</ele>
        <time>2014-05-25T10:33:40Z</time>
      </trkpt>
      <trkpt lat="59.8478009" lon="17.6486584">
        <ele>9.2699</ele>
        <time>2014-05-25T10:33:41Z</time>
      </trkpt>
      <trkpt lat="59.8477785" lon="17.6486723">
        <ele>8.78918</ele>
        <time>2014-05-25T10:33:42Z</time>
      </trkpt>
      <trkpt lat="59.8477507" lon="17.6486961">
        <ele>8.78918</ele>
        <time>2014-05-25T10:33:43Z</time>
      </trkpt>
      <trkpt lat="59.8477236" lon="17.6487233">
        <ele>8.78918</ele>
        <time>2014-05-25T10:33:44Z</time>
      </trkpt>
      <trkpt lat="59.8476982" lon="17.6487538">
        <ele>9.2699</ele>
        <time>2014-05-25T10:33:45Z</time>
      </trkpt>
      <trkpt lat="59.8476702" lon="17.6487828">
        <ele>9.2699</ele>
        <time>2014-05-25T10:33:46Z</time>
      </trkpt>
      <trkpt lat="59.8476426" lon="17.6488085">
        <ele>9.75061</ele>
        <time>2014-05-25T10:33:47Z</time>
      </trkpt>
      <trkpt lat="59.8476138" lon="17.6488402">
        <ele>9.75061</ele>
        <time>2014-05-25T10:33:48Z</time>
      </trkpt>
      <trkpt lat="59.8475858" lon="17.6488725">
        <ele>10.2312</ele>
        <time>2014-05-25T10:33:49Z</time>
      </trkpt>
      <trkpt lat="59.8475642" lon="17.6488922">
        <ele>10.2312</ele>
        <time>2014-05-25T10:33:50Z</time>
      </trkpt>
      <trkpt lat="59.8475453" lon="17.6489114">
        <ele>10.2312</ele>
        <time>2014-05-25T10:33:51Z</time>
      </trkpt>
      <trkpt lat="59.847524" lon="17.6489366">
        <ele>10.7118</ele>
        <time>2014-05-25T10:33:52Z</time>
      </trkpt>
      <trkpt lat="59.8474982" lon="17.6489658">
        <ele>10.7118</ele>
        <time>2014-05-25T10:33:53Z</time>
      </trkpt>
      <trkpt lat="59.8474714" lon="17.6489875">
        <ele>11.1925</ele>
        <time>2014-05-25T10:33:54Z</time>
      </trkpt>
      <trkpt lat="59.8474461" lon="17.6490082">
        <ele>11.1925</ele>
        <time>2014-05-25T10:33:55Z</time>
      </trkpt>
      <trkpt lat="59.8474214" lon="17.6490429">
        <ele>11.6732</ele>
        <time>2014-05-25T10:33:56Z</time>
      </trkpt>
      <trkpt lat="59.8473937" lon="17.6490728">
        <ele>11.6732</ele>
        <time>2014-05-25T10:33:57Z</time>
      </trkpt>
      <trkpt lat="59.8473656" lon="17.6491004">
        <ele>12.1538</ele>
        <time>2014-05-25T10:33:58Z</time>
      </trkpt>
      <trkpt lat="59.8473354" lon="17.6491337">
        <ele>11.6732</ele>
        <time>2014-05-25T10:33:59Z</time>
      </trkpt>
      <trkpt lat="59.8473081" lon="17.6491605">
        <ele>11.6732</ele>
        <time>2014-05-25T10:34:00Z</time>
      </trkpt>
      <trkpt lat="59.8472808" lon="17.6491877">
        <ele>11.6732</ele>
        <time>2014-05-25T10:34:01Z</time>
      </trkpt>
      <trkpt lat="59.8472532" lon="17.6492158">
        <ele>11.6732</ele>
        <time>2014-05-25T10:34:02Z</time>
      </trkpt>
      <trkpt lat="59.847227" lon="17.6492398">
        <ele>11.6732</ele>
        <time>2014-05-25T10:34:03Z</time>
      </trkpt>
      <trkpt lat="59.847203" lon="17.649263">
        <ele>11.6732</ele>
        <time>2014-05-25T10:34:04Z</time>
      </trkpt>
      <trkpt lat="59.8471788" lon="17.6492815">
        <ele>11.1925</ele>
        <time>2014-05-25T10:34:05Z</time>
      </trkpt>
      <trkpt lat="59.8471532" lon="17.649306">
        <ele>11.1925</ele>
        <time>2014-05-25T10:34:06Z</time>
      </trkpt>
      <trkpt lat="59.8471257" lon="17.649333">
        <ele>11.1925</ele>
        <time>2014-05-25T10:34:07Z</time>
      </trkpt>
      <trkpt lat="59.8470989" lon="17.6493526">
        <ele>11.1925</ele>
        <time>2014-05-25T10:34:08Z</time>
      </trkpt>
      <trkpt lat="59.8470746" lon="17.6493749">
        <ele>11.1925</ele>
        <time>2014-05-25T10:34:09Z</time>
      </trkpt>
      <trkpt lat="59.8470505" lon="17.6494008">
        <ele>11.1925</ele>
        <time>2014-05-25T10:34:10Z</time>
      </trkpt>
      <trkpt lat="59.8470253" lon="17.6494243">
        <ele>11.6732</ele>
        <time>2014-05-25T10:34:11Z</time>
      </trkpt>
      <trkpt lat="59.8470021" lon="17.6494471">
        <ele>11.6732</ele>
        <time>2014-05-25T10:34:12Z</time>
      </trkpt>
      <trkpt lat="59.8469817" lon="17.6494718">
        <ele>11.6732</ele>
        <time>2014-05-25T10:34:13Z</time>
      </trkpt>
      <trkpt lat="59.8469557" lon="17.6495019">
        <ele>11.6732</ele>
        <time>2014-05-25T10:34:14Z</time>
      </trkpt>
      <trkpt lat="59.8469269" lon="17.6495256">
        <ele>11.1925</ele>
        <time>2014-05-25T10:34:15Z</time>
      </trkpt>
      <trkpt lat="59.8468977" lon="17.6495526">
        <ele>11.1925</ele>
        <time>2014-05-25T10:34:16Z</time>
      </trkpt>
      <trkpt lat="59.8468693" lon="17.6495871">
        <ele>10.7118</ele>
        <time>2014-05-25T10:34:17Z</time>
      </trkpt>
      <trkpt lat="59.8468403" lon="17.6496216">
        <ele>10.7118</ele>
        <time>2014-05-25T10:34:18Z</time>
      </trkpt>
      <trkpt lat="59.8468129" lon="17.6496608">
        <ele>10.2312</ele>
        <time>2014-05-25T10:34:19Z</time>
      </trkpt>
      <trkpt lat="59.8467844" lon="17.649689">
        <ele>9.75061</ele>
        <time>2014-05-25T10:34:20Z</time>
      </trkpt>
      <trkpt lat="59.8467565" lon="17.6497219">
        <ele>9.2699</ele>
        <time>2014-05-25T10:34:21Z</time>
      </trkpt>
      <trkpt lat="59.8467306" lon="17.6497505">
        <ele>8.78918</ele>
        <time>2014-05-25T10:34:22Z</time>
      </trkpt>
      <trkpt lat="59.8467072" lon="17.6497562">
        <ele>8.78918</ele>
        <time>2014-05-25T10:34:23Z</time>
      </trkpt>
      <trkpt lat="59.8466844" lon="17.6497614">
        <ele>8.30859</ele>
        <time>2014-05-25T10:34:24Z</time>
      </trkpt>
      <trkpt lat="59.846661" lon="17.6497712">
        <ele>8.78918</ele>
        <time>2014-05-25T10:34:25Z</time>
      </trkpt>
      <trkpt lat="59.8466379" lon="17.6497788">
        <ele>8.78918</ele>
        <time>2014-05-25T10:34:26Z</time>
      </trkpt>
      <trkpt lat="59.8466144" lon="17.6497987">
        <ele>8.78918</ele>
        <time>2014-05-25T10:34:27Z</time>
      </trkpt>
      <trkpt lat="59.8465879" lon="17.6498275">
        <ele>9.2699</ele>
        <time>2014-05-25T10:34:28Z</time>
      </trkpt>
      <trkpt lat="59.8465602" lon="17.6498575">
        <ele>9.2699</ele>
        <time>2014-05-25T10:34:29Z</time>
      </trkpt>
      <trkpt lat="59.8465306" lon="17.6498966">
        <ele>9.2699</ele>
        <time>2014-05-25T10:34:30Z</time>
      </trkpt>
      <trkpt lat="59.8465026" lon="17.6499311">
        <ele>9.2699</ele>
        <time>2014-05-25T10:34:31Z</time>
      </trkpt>
      <trkpt lat="59.8464777" lon="17.6499609">
        <ele>9.2699</ele>
        <time>2014-05-25T10:34:32Z</time>
      </trkpt>
      <trkpt lat="59.846451" lon="17.6499924">
        <ele>9.2699</ele>
        <time>2014-05-25T10:34:33Z</time>
      </trkpt>
      <trkpt lat="59.8464244" lon="17.6500252">
        <ele>9.2699</ele>
        <time>2014-05-25T10:34:34Z</time>
      </trkpt>
      <trkpt lat="59.8463979" lon="17.6500603">
        <ele>9.2699</ele>
        <time>2014-05-25T10:34:35Z</time>
      </trkpt>
      <trkpt lat="59.8463689" lon="17.6500899">
        <ele>8.78918</ele>
        <time>2014-05-25T10:34:36Z</time>
      </trkpt>
      <trkpt lat="59.8463416" lon="17.65012">
        <ele>8.30859</ele>
        <time>2014-05-25T10:34:37Z</time>
      </trkpt>
      <trkpt lat="59.8463157" lon="17.6501567">
        <ele>8.78918</ele>
        <time>2014-05-25T10:34:38Z</time>
      </trkpt>
      <trkpt lat="59.8462872" lon="17.6501902">
        <ele>8.78918</ele>
        <time>2014-05-25T10:34:39Z</time>
      </trkpt>
      <trkpt lat="59.8462596" lon="17.6502324">
        <ele>8.78918</ele>
        <time>2014-05-25T10:34:40Z</time>
      </trkpt>
      <trkpt lat="59.8462328" lon="17.6502785">
        <ele>8.78918</ele>
        <time>2014-05-25T10:34:41Z</time>
      </trkpt>
      <trkpt lat="59.8462027" lon="17.6503253">
        <ele>8.30859</ele>
        <time>2014-05-25T10:34:42Z</time>
      </trkpt>
      <trkpt lat="59.8461727" lon="17.6503632">
        <ele>8.30859</ele>
        <time>2014-05-25T10:34:43Z</time>
      </trkpt>
      <trkpt lat="59.8461466" lon="17.6503871">
        <ele>7.82788</ele>
        <time>2014-05-25T10:34:44Z</time>
      </trkpt>
      <trkpt lat="59.846121" lon="17.650413">
        <ele>7.82788</ele>
        <time>2014-05-25T10:34:45Z</time>
      </trkpt>
      <trkpt lat="59.846095" lon="17.6504284">
        <ele>7.34717</ele>
        <time>2014-05-25T10:34:46Z</time>
      </trkpt>
      <trkpt lat="59.8460694" lon="17.6504408">
        <ele>6.86646</ele>
        <time>2014-05-25T10:34:47Z</time>
      </trkpt>
      <trkpt lat="59.8460411" lon="17.6504654">
        <ele>6.86646</ele>
        <time>2014-05-25T10:34:48Z</time>
      </trkpt>
      <trkpt lat="59.846012" lon="17.650499">
        <ele>6.86646</ele>
        <time>2014-05-25T10:34:49Z</time>
      </trkpt>
      <trkpt lat="59.8459867" lon="17.6505232">
        <ele>6.86646</ele>
        <time>2014-05-25T10:34:50Z</time>
      </trkpt>
      <trkpt lat="59.8459645" lon="17.6505482">
        <ele>6.86646</ele>
        <time>2014-05-25T10:34:51Z</time>
      </trkpt>
      <trkpt lat="59.8459394" lon="17.6505783">
        <ele>6.86646</ele>
        <time>2014-05-25T10:34:52Z</time>
      </trkpt>
      <trkpt lat="59.8459109" lon="17.6506052">
        <ele>6.86646</ele>
        <time>2014-05-25T10:34:53Z</time>
      </trkpt>
      <trkpt lat="59.8458817" lon="17.6506316">
        <ele>6.38586</ele>
        <time>2014-05-25T10:34:54Z</time>
      </trkpt>
      <trkpt lat="59.8458541" lon="17.6506649">
        <ele>6.38586</ele>
        <time>2014-05-25T10:34:55Z</time>
      </trkpt>
      <trkpt lat="59.8458247" lon="17.6506983">
        <ele>5.90527</ele>
        <time>2014-05-25T10:34:56Z</time>
      </trkpt>
      <trkpt lat="59.8458013" lon="17.6507253">
        <ele>6.38586</ele>
        <time>2014-05-25T10:34:57Z</time>
      </trkpt>
      <trkpt lat="59.845784" lon="17.6507457">
        <ele>5.90527</ele>
        <time>2014-05-25T10:34:58Z</time>
      </trkpt>
      <trkpt lat="59.8457661" lon="17.6507687">
        <ele>5.90527</ele>
        <time>2014-05-25T10:34:59Z</time>
      </trkpt>
      <trkpt lat="59.8457441" lon="17.6507892">
        <ele>6.38586</ele>
        <time>2014-05-25T10:35:00Z</time>
      </trkpt>
      <trkpt lat="59.8457185" lon="17.6508055">
        <ele>6.38586</ele>
        <time>2014-05-25T10:35:01Z</time>
      </trkpt>
      <trkpt lat="59.8456956" lon="17.6508243">
        <ele>6.86646</ele>
        <time>2014-05-25T10:35:02Z</time>
      </trkpt>
      <trkpt lat="59.8456723" lon="17.6508497">
        <ele>7.34717</ele>
        <time>2014-05-25T10:35:03Z</time>
      </trkpt>
      <trkpt lat="59.8456488" lon="17.6508755">
        <ele>7.34717</ele>
        <time>2014-05-25T10:35:04Z</time>
      </trkpt>
      <trkpt lat="59.8456252" lon="17.6509045">
        <ele>7.82788</ele>
        <time>2014-05-25T10:35:05Z</time>
      </trkpt>
      <trkpt lat="59.8456008" lon="17.6509268">
        <ele>7.82788</ele>
        <time>2014-05-25T10:35:06Z</time>
      </trkpt>
      <trkpt lat="59.8455804" lon="17.6509471">
        <ele>8.30859</ele>
        <time>2014-05-25T10:35:07Z</time>
      </trkpt>
      <trkpt lat="59.8455592" lon="17.6509635">
        <ele>8.30859</ele>
        <time>2014-05-25T10:35:08Z</time>
      </trkpt>
      <trkpt lat="59.845535" lon="17.6509827">
        <ele>8.30859</ele>
        <time>2014-05-25T10:35:09Z</time>
      </trkpt>
      <trkpt lat="59.8455112" lon="17.6509999">
        <ele>8.30859</ele>
        <time>2014-05-25T10:35:10Z</time>
      </trkpt>
      <trkpt lat="59.8454874" lon="17.6510232">
        <ele>8.30859</ele>
        <time>2014-05-25T10:35:11Z</time>
      </trkpt>
      <trkpt lat="59.8454623" lon="17.6510519">
        <ele>8.30859</ele>
        <time>2014-05-25T10:35:12Z</time>
      </trkpt>
      <trkpt lat="59.8454376" lon="17.6510807">
        <ele>8.30859</ele>
        <time>2014-05-25T10:35:13Z</time>
      </trkpt>
      <trkpt lat="59.8454137" lon="17.6511104">
        <ele>8.30859</ele>
        <time>2014-05-25T10:35:14Z</time>
      </trkpt>
      <trkpt lat="59.8453884" lon="17.6511384">
        <ele>7.82788</ele>
        <time>2014-05-25T10:35:15Z</time>
      </trkpt>
      <trkpt lat="59.8453629" lon="17.651159">
        <ele>7.82788</ele>
        <time>2014-05-25T10:35:16Z</time>
      </trkpt>
      <trkpt lat="59.8453375" lon="17.6511838">
        <ele>7.34717</ele>
        <time>2014-05-25T10:35:17Z</time>
      </trkpt>
      <trkpt lat="59.8453129" lon="17.6512118">
        <ele>6.86646</ele>
        <time>2014-05-25T10:35:18Z</time>
      </trkpt>
      <trkpt lat="59.8452893" lon="17.6512445">
        <ele>6.86646</ele>
        <time>2014-05-25T10:35:19Z</time>
      </trkpt>
      <trkpt lat="59.8452661" lon="17.6512791">
        <ele>7.34717</ele>
        <time>2014-05-25T10:35:20Z</time>
      </trkpt>
      <trkpt lat="59.8452434" lon="17.6513065">
        <ele>7.34717</ele>
        <time>2014-05-25T10:35:21Z</time>
      </trkpt>
      <trkpt lat="59.8452159" lon="17.6513311">
        <ele>6.86646</ele>
        <time>2014-05-25T10:35:22Z</time>
      </trkpt>
      <trkpt lat="59.8451916" lon="17.6513561">
        <ele>6.86646</ele>
        <time>2014-05-25T10:35:23Z</time>
      </trkpt>
      <trkpt lat="59.8451689" lon="17.6513878">
        <ele>6.38586</ele>
        <time>2014-05-25T10:35:24Z</time>
      </trkpt>
      <trkpt lat="59.8451428" lon="17.6514281">
        <ele>6.38586</ele>
        <time>2014-05-25T10:35:25Z</time>
      </trkpt>
      <trkpt lat="59.8451175" lon="17.651466">
        <ele>5.90527</ele>
        <time>2014-05-25T10:35:26Z</time>
      </trkpt>
      <trkpt lat="59.8450963" lon="17.6514936">
        <ele>5.90527</ele>
        <time>2014-05-25T10:35:27Z</time>
      </trkpt>
      <trkpt lat="59.8450739" lon="17.6515266">
        <ele>6.38586</ele>
        <time>2014-05-25T10:35:28Z</time>
      </trkpt>
      <trkpt lat="59.8450522" lon="17.651559">
        <ele>6.38586</ele>
        <time>2014-05-25T10:35:29Z</time>
      </trkpt>
      <trkpt lat="59.8450289" lon="17.6515906">
        <ele>6.38586</ele>
        <time>2014-05-25T10:35:30Z</time>
      </trkpt>
      <trkpt lat="59.8450072" lon="17.6516226">
        <ele>6.38586</ele>
        <time>2014-05-25T10:35:31Z</time>
      </trkpt>
      <trkpt lat="59.8449865" lon="17.6516597">
        <ele>6.86646</ele>
        <time>2014-05-25T10:35:32Z</time>
      </trkpt>
      <trkpt lat="59.844965" lon="17.6516921">
        <ele>6.86646</ele>
        <time>2014-05-25T10:35:33Z</time>
      </trkpt>
      <trkpt lat="59.8449445" lon="17.6517255">
        <ele>7.34717</ele>
        <time>2014-05-25T10:35:34Z</time>
      </trkpt>
      <trkpt lat="59.8449238" lon="17.6517609">
        <ele>7.34717</ele>
        <time>2014-05-25T10:35:35Z</time>
      </trkpt>
      <trkpt lat="59.8449024" lon="17.651795">
        <ele>7.34717</ele>
        <time>2014-05-25T10:35:36Z</time>
      </trkpt>
      <trkpt lat="59.8448835" lon="17.6518262">
        <ele>7.82788</ele>
        <time>2014-05-25T10:35:37Z</time>
      </trkpt>
      <trkpt lat="59.844859" lon="17.651851">
        <ele>7.82788</ele>
        <time>2014-05-25T10:35:38Z</time>
      </trkpt>
      <trkpt lat="59.8448347" lon="17.6518769">
        <ele>7.82788</ele>
        <time>2014-05-25T10:35:39Z</time>
      </trkpt>
      <trkpt lat="59.8448119" lon="17.6519037">
        <ele>7.82788</ele>
        <time>2014-05-25T10:35:40Z</time>
      </trkpt>
      <trkpt lat="59.8447869" lon="17.6519505">
        <ele>8.78918</ele>
        <time>2014-05-25T10:35:41Z</time>
      </trkpt>
      <trkpt lat="59.844759" lon="17.6519888">
        <ele>8.78918</ele>
        <time>2014-05-25T10:35:42Z</time>
      </trkpt>
      <trkpt lat="59.8447329" lon="17.6520193">
        <ele>9.2699</ele>
        <time>2014-05-25T10:35:43Z</time>
      </trkpt>
      <trkpt lat="59.8447093" lon="17.6520521">
        <ele>9.75061</ele>
        <time>2014-05-25T10:35:44Z</time>
      </trkpt>
      <trkpt lat="59.8446834" lon="17.6520912">
        <ele>9.75061</ele>
        <time>2014-05-25T10:35:45Z</time>
      </trkpt>
      <trkpt lat="59.844657" lon="17.6521282">
        <ele>9.75061</ele>
        <time>2014-05-25T10:35:46Z</time>
      </trkpt>
      <trkpt lat="59.8446326" lon="17.6521559">
        <ele>9.75061</ele>
        <time>2014-05-25T10:35:47Z</time>
      </trkpt>
      <trkpt lat="59.8446084" lon="17.6521846">
        <ele>9.75061</ele>
        <time>2014-05-25T10:35:48Z</time>
      </trkpt>
      <trkpt lat="59.8445876" lon="17.65221">
        <ele>10.2312</ele>
        <time>2014-05-25T10:35:49Z</time>
      </trkpt>
      <trkpt lat="59.8445667" lon="17.6522385">
        <ele>10.2312</ele>
        <time>2014-05-25T10:35:50Z</time>
      </trkpt>
      <trkpt lat="59.8445418" lon="17.6522691">
        <ele>10.7118</ele>
        <time>2014-05-25T10:35:51Z</time>
      </trkpt>
      <trkpt lat="59.8445202" lon="17.6522994">
        <ele>10.7118</ele>
        <time>2014-05-25T10:35:52Z</time>
      </trkpt>
      <trkpt lat="59.8444985" lon="17.6523333">
        <ele>11.1925</ele>
        <time>2014-05-25T10:35:53Z</time>
      </trkpt>
      <trkpt lat="59.8444756" lon="17.6523581">
        <ele>11.1925</ele>
        <time>2014-05-25T10:35:54Z</time>
      </trkpt>
      <trkpt lat="59.8444539" lon="17.6523733">
        <ele>11.6732</ele>
        <time>2014-05-25T10:35:55Z</time>
      </trkpt>
      <trkpt lat="59.8444297" lon="17.6523961">
        <ele>11.6732</ele>
        <time>2014-05-25T10:35:56Z</time>
      </trkpt>
      <trkpt lat="59.8444045" lon="17.6524306">
        <ele>11.1925</ele>
        <time>2014-05-25T10:35:57Z</time>
      </trkpt>
      <trkpt lat="59.8443784" lon="17.6524695">
        <ele>11.1925</ele>
        <time>2014-05-25T10:35:58Z</time>
      </trkpt>
      <trkpt lat="59.8443527" lon="17.6524984">
        <ele>11.1925</ele>
        <time>2014-05-25T10:35:59Z</time>
      </trkpt>
      <trkpt lat="59.8443291" lon="17.652526">
        <ele>11.1925</ele>
        <time>2014-05-25T10:36:00Z</time>
      </trkpt>
      <trkpt lat="59.8443006" lon="17.6525649">
        <ele>10.7118</ele>
        <time>2014-05-25T10:36:01Z</time>
      </trkpt>
      <trkpt lat="59.8442721" lon="17.6526032">
        <ele>10.2312</ele>
        <time>2014-05-25T10:36:02Z</time>
      </trkpt>
      <trkpt lat="59.8442462" lon="17.6526421">
        <ele>9.75061</ele>
        <time>2014-05-25T10:36:03Z</time>
      </trkpt>
      <trkpt lat="59.8442196" lon="17.6526743">
        <ele>9.2699</ele>
        <time>2014-05-25T10:36:04Z</time>
      </trkpt>
      <trkpt lat="59.8441956" lon="17.652702">
        <ele>9.2699</ele>
        <time>2014-05-25T10:36:05Z</time>
      </trkpt>
      <trkpt lat="59.8441727" lon="17.652733">
        <ele>8.78918</ele>
        <time>2014-05-25T10:36:06Z</time>
      </trkpt>
      <trkpt lat="59.8441472" lon="17.6527648">
        <ele>8.78918</ele>
        <time>2014-05-25T10:36:07Z</time>
      </trkpt>
      <trkpt lat="59.8441207" lon="17.6527927">
        <ele>8.30859</ele>
        <time>2014-05-25T10:36:08Z</time>
      </trkpt>
      <trkpt lat="59.8440982" lon="17.6528265">
        <ele>7.82788</ele>
        <time>2014-05-25T10:36:09Z</time>
      </trkpt>
      <trkpt lat="59.8440757" lon="17.6528633">
        <ele>7.82788</ele>
        <time>2014-05-25T10:36:10Z</time>
      </trkpt>
      <trkpt lat="59.8440519" lon="17.6529006">
        <ele>7.34717</ele>
        <time>2014-05-25T10:36:11Z</time>
      </trkpt>
      <trkpt lat="59.8440264" lon="17.6529312">
        <ele>7.34717</ele>
        <time>2014-05-25T10:36:12Z</time>
      </trkpt>
      <trkpt lat="59.843999" lon="17.6529583">
        <ele>6.86646</ele>
        <time>2014-05-25T10:36:13Z</time>
      </trkpt>
      <trkpt lat="59.8439717" lon="17.6529886">
        <ele>6.38586</ele>
        <time>2014-05-25T10:36:14Z</time>
      </trkpt>
      <trkpt lat="59.8439445" lon="17.653014">
        <ele>6.38586</ele>
        <time>2014-05-25T10:36:15Z</time>
      </trkpt>
      <trkpt lat="59.8439181" lon="17.6530373">
        <ele>5.90527</ele>
        <time>2014-05-25T10:36:16Z</time>
      </trkpt>
      <trkpt lat="59.8438919" lon="17.6530647">
        <ele>5.90527</ele>
        <time>2014-05-25T10:36:17Z</time>
      </trkpt>
      <trkpt lat="59.8438676" lon="17.653104">
        <ele>5.90527</ele>
        <time>2014-05-25T10:36:18Z</time>
      </trkpt>
      <trkpt lat="59.8438452" lon="17.6531479">
        <ele>5.42456</ele>
        <time>2014-05-25T10:36:19Z</time>
      </trkpt>
      <trkpt lat="59.8438256" lon="17.6531814">
        <ele>5.90527</ele>
        <time>2014-05-25T10:36:20Z</time>
      </trkpt>
      <trkpt lat="59.843804" lon="17.6532192">
        <ele>6.38586</ele>
        <time>2014-05-25T10:36:21Z</time>
      </trkpt>
      <trkpt lat="59.8437826" lon="17.653252">
        <ele>6.38586</ele>
        <time>2014-05-25T10:36:22Z</time>
      </trkpt>
      <trkpt lat="59.8437584" lon="17.6532823">
        <ele>6.86646</ele>
        <time>2014-05-25T10:36:23Z</time>
      </trkpt>
      <trkpt lat="59.8437354" lon="17.6533138">
        <ele>6.86646</ele>
        <time>2014-05-25T10:36:24Z</time>
      </trkpt>
      <trkpt lat="59.8437143" lon="17.6533449">
        <ele>7.34717</ele>
        <time>2014-05-25T10:36:25Z</time>
      </trkpt>
      <trkpt lat="59.8436913" lon="17.6533727">
        <ele>7.34717</ele>
        <time>2014-05-25T10:36:26Z</time>
      </trkpt>
      <trkpt lat="59.8436666" lon="17.6534029">
        <ele>7.34717</ele>
        <time>2014-05-25T10:36:27Z</time>
      </trkpt>
      <trkpt lat="59.8436412" lon="17.653434">
        <ele>7.34717</ele>
        <time>2014-05-25T10:36:28Z</time>
      </trkpt>
      <trkpt lat="59.8436183" lon="17.653458">
        <ele>7.34717</ele>
        <time>2014-05-25T10:36:29Z</time>
      </trkpt>
      <trkpt lat="59.843596" lon="17.6534795">
        <ele>7.34717</ele>
        <time>2014-05-25T10:36:30Z</time>
      </trkpt>
      <trkpt lat="59.8435716" lon="17.653504">
        <ele>7.34717</ele>
        <time>2014-05-25T10:36:31Z</time>
      </trkpt>
      <trkpt lat="59.8435489" lon="17.6535299">
        <ele>7.82788</ele>
        <time>2014-05-25T10:36:32Z</time>
      </trkpt>
      <trkpt lat="59.8435236" lon="17.653554">
        <ele>7.34717</ele>
        <time>2014-05-25T10:36:33Z</time>
      </trkpt>
      <trkpt lat="59.8434993" lon="17.6535811">
        <ele>7.34717</ele>
        <time>2014-05-25T10:36:34Z</time>
      </trkpt>
      <trkpt lat="59.8434748" lon="17.6536112">
        <ele>7.34717</ele>
        <time>2014-05-25T10:36:35Z</time>
      </trkpt>
      <trkpt lat="59.8434459" lon="17.6536455">
        <ele>7.34717</ele>
        <time>2014-05-25T10:36:36Z</time>
      </trkpt>
      <trkpt lat="59.8434189" lon="17.6536732">
        <ele>7.34717</ele>
        <time>2014-05-25T10:36:37Z</time>
      </trkpt>
      <trkpt lat="59.8433945" lon="17.6537053">
        <ele>8.30859</ele>
        <time>2014-05-25T10:36:38Z</time>
      </trkpt>
      <trkpt lat="59.8433673" lon="17.6537424">
        <ele>8.78918</ele>
        <time>2014-05-25T10:36:39Z</time>
      </trkpt>
      <trkpt lat="59.8433428" lon="17.6537732">
        <ele>9.2699</ele>
        <time>2014-05-25T10:36:40Z</time>
      </trkpt>
      <trkpt lat="59.8433221" lon="17.6538102">
        <ele>9.75061</ele>
        <time>2014-05-25T10:36:41Z</time>
      </trkpt>
      <trkpt lat="59.8432996" lon="17.6538505">
        <ele>10.2312</ele>
        <time>2014-05-25T10:36:42Z</time>
      </trkpt>
      <trkpt lat="59.8432765" lon="17.6538773">
        <ele>10.7118</ele>
        <time>2014-05-25T10:36:43Z</time>
      </trkpt>
      <trkpt lat="59.8432547" lon="17.6539032">
        <ele>11.1925</ele>
        <time>2014-05-25T10:36:44Z</time>
      </trkpt>
      <trkpt lat="59.8432329" lon="17.6539308">
        <ele>11.6732</ele>
        <time>2014-05-25T10:36:45Z</time>
      </trkpt>
      <trkpt lat="59.8432086" lon="17.6539588">
        <ele>12.1538</ele>
        <time>2014-05-25T10:36:46Z</time>
      </trkpt>
      <trkpt lat="59.8431854" lon="17.6539753">
        <ele>12.1538</ele>
        <time>2014-05-25T10:36:47Z</time>
      </trkpt>
      <trkpt lat="59.8431625" lon="17.6539965">
        <ele>12.6344</ele>
        <time>2014-05-25T10:36:48Z</time>
      </trkpt>
      <trkpt lat="59.8431362" lon="17.6540391">
        <ele>13.1151</ele>
        <time>2014-05-25T10:36:49Z</time>
      </trkpt>
      <trkpt lat="59.8431075" lon="17.6540902">
        <ele>13.5958</ele>
        <time>2014-05-25T10:36:50Z</time>
      </trkpt>
      <trkpt lat="59.8430802" lon="17.6541266">
        <ele>14.0764</ele>
        <time>2014-05-25T10:36:51Z</time>
      </trkpt>
      <trkpt lat="59.843053" lon="17.6541591">
        <ele>14.557</ele>
        <time>2014-05-25T10:36:52Z</time>
      </trkpt>
      <trkpt lat="59.8430268" lon="17.6541789">
        <ele>15.0377</ele>
        <time>2014-05-25T10:36:53Z</time>
      </trkpt>
      <trkpt lat="59.8430012" lon="17.6541974">
        <ele>15.5184</ele>
        <time>2014-05-25T10:36:54Z</time>
      </trkpt>
      <trkpt lat="59.8429761" lon="17.6542159">
        <ele>15.5184</ele>
        <time>2014-05-25T10:36:55Z</time>
      </trkpt>
      <trkpt lat="59.8429503" lon="17.6542334">
        <ele>16.4797</ele>
        <time>2014-05-25T10:36:56Z</time>
      </trkpt>
      <trkpt lat="59.8429284" lon="17.6542519">
        <ele>15.999</ele>
        <time>2014-05-25T10:36:57Z</time>
      </trkpt>
      <trkpt lat="59.8429041" lon="17.6542742">
        <ele>16.4797</ele>
        <time>2014-05-25T10:36:58Z</time>
      </trkpt>
      <trkpt lat="59.8428808" lon="17.6542992">
        <ele>16.4797</ele>
        <time>2014-05-25T10:36:59Z</time>
      </trkpt>
      <trkpt lat="59.842856" lon="17.6543235">
        <ele>16.9604</ele>
        <time>2014-05-25T10:37:00Z</time>
      </trkpt>
      <trkpt lat="59.84283" lon="17.6543549">
        <ele>17.4412</ele>
        <time>2014-05-25T10:37:01Z</time>
      </trkpt>
      <trkpt lat="59.8427994" lon="17.6544059">
        <ele>18.4023</ele>
        <time>2014-05-25T10:37:02Z</time>
      </trkpt>
      <trkpt lat="59.8427735" lon="17.6544442">
        <ele>18.8831</ele>
        <time>2014-05-25T10:37:03Z</time>
      </trkpt>
      <trkpt lat="59.842747" lon="17.6544764">
        <ele>19.8444</ele>
        <time>2014-05-25T10:37:04Z</time>
      </trkpt>
      <trkpt lat="59.8427228" lon="17.6545037">
        <ele>19.8444</ele>
        <time>2014-05-25T10:37:05Z</time>
      </trkpt>
      <trkpt lat="59.8427034" lon="17.6545208">
        <ele>19.8444</ele>
        <time>2014-05-25T10:37:06Z</time>
      </trkpt>
      <trkpt lat="59.8426851" lon="17.6545334">
        <ele>19.8444</ele>
        <time>2014-05-25T10:37:07Z</time>
      </trkpt>
      <trkpt lat="59.8426631" lon="17.6545556">
        <ele>20.325</ele>
        <time>2014-05-25T10:37:08Z</time>
      </trkpt>
      <trkpt lat="59.842641" lon="17.6545842">
        <ele>20.8057</ele>
        <time>2014-05-25T10:37:09Z</time>
      </trkpt>
      <trkpt lat="59.8426186" lon="17.6546068">
        <ele>21.2864</ele>
        <time>2014-05-25T10:37:10Z</time>
      </trkpt>
      <trkpt lat="59.8425969" lon="17.6546312">
        <ele>21.2864</ele>
        <time>2014-05-25T10:37:11Z</time>
      </trkpt>
      <trkpt lat="59.8425751" lon="17.6546627">
        <ele>21.767</ele>
        <time>2014-05-25T10:37:12Z</time>
      </trkpt>
      <trkpt lat="59.8425528" lon="17.6546918">
        <ele>22.2476</ele>
        <time>2014-05-25T10:37:13Z</time>
      </trkpt>
      <trkpt lat="59.8425326" lon="17.6547197">
        <ele>22.2476</ele>
        <time>2014-05-25T10:37:14Z</time>
      </trkpt>
      <trkpt lat="59.8425123" lon="17.6547506">
        <ele>21.767</ele>
        <time>2014-05-25T10:37:15Z</time>
      </trkpt>
      <trkpt lat="59.8424891" lon="17.6547758">
        <ele>21.767</ele>
        <time>2014-05-25T10:37:16Z</time>
      </trkpt>
      <trkpt lat="59.8424665" lon="17.6548056">
        <ele>21.767</ele>
        <time>2014-05-25T10:37:17Z</time>
      </trkpt>
      <trkpt lat="59.842443" lon="17.6548425">
        <ele>21.767</ele>
        <time>2014-05-25T10:37:18Z</time>
      </trkpt>
      <trkpt lat="59.842416" lon="17.6548841">
        <ele>21.767</ele>
        <time>2014-05-25T10:37:19Z</time>
      </trkpt>
      <trkpt lat="59.8423896" lon="17.6549223">
        <ele>22.2476</ele>
        <time>2014-05-25T10:37:20Z</time>
      </trkpt>
      <trkpt lat="59.8423654" lon="17.6549457">
        <ele>22.2476</ele>
        <time>2014-05-25T10:37:21Z</time>
      </trkpt>
      <trkpt lat="59.8423465" lon="17.6549589">
        <ele>22.7283</ele>
        <time>2014-05-25T10:37:22Z</time>
      </trkpt>
      <trkpt lat="59.8423261" lon="17.6549833">
        <ele>22.2476</ele>
        <time>2014-05-25T10:37:23Z</time>
      </trkpt>
      <trkpt lat="59.8423032" lon="17.6550079">
        <ele>22.2476</ele>
        <time>2014-05-25T10:37:24Z</time>
      </trkpt>
      <trkpt lat="59.8422839" lon="17.6550341">
        <ele>22.7283</ele>
        <time>2014-05-25T10:37:25Z</time>
      </trkpt>
      <trkpt lat="59.8422649" lon="17.6550626">
        <ele>22.7283</ele>
        <time>2014-05-25T10:37:26Z</time>
      </trkpt>
      <trkpt lat="59.8422461" lon="17.6550767">
        <ele>23.209</ele>
        <time>2014-05-25T10:37:27Z</time>
      </trkpt>
      <trkpt lat="59.8422235" lon="17.6550995">
        <ele>22.7283</ele>
        <time>2014-05-25T10:37:28Z</time>
      </trkpt>
      <trkpt lat="59.8421973" lon="17.6551347">
        <ele>22.7283</ele>
        <time>2014-05-25T10:37:29Z</time>
      </trkpt>
      <trkpt lat="59.8421716" lon="17.6551663">
        <ele>22.2476</ele>
        <time>2014-05-25T10:37:30Z</time>
      </trkpt>
      <trkpt lat="59.8421481" lon="17.6552024">
        <ele>22.2476</ele>
        <time>2014-05-25T10:37:31Z</time>
      </trkpt>
      <trkpt lat="59.8421234" lon="17.6552376">
        <ele>21.767</ele>
        <time>2014-05-25T10:37:32Z</time>
      </trkpt>
      <trkpt lat="59.8420973" lon="17.6552729">
        <ele>21.2864</ele>
        <time>2014-05-25T10:37:33Z</time>
      </trkpt>
      <trkpt lat="59.8420738" lon="17.655307">
        <ele>21.767</ele>
        <time>2014-05-25T10:37:34Z</time>
      </trkpt>
      <trkpt lat="59.8420525" lon="17.6553341">
        <ele>21.2864</ele>
        <time>2014-05-25T10:37:35Z</time>
      </trkpt>
      <trkpt lat="59.8420291" lon="17.655359">
        <ele>20.8057</ele>
        <time>2014-05-25T10:37:36Z</time>
      </trkpt>
      <trkpt lat="59.8420052" lon="17.6553911">
        <ele>20.8057</ele>
        <time>2014-05-25T10:37:37Z</time>
      </trkpt>
      <trkpt lat="59.8419839" lon="17.6554206">
        <ele>20.325</ele>
        <time>2014-05-25T10:37:38Z</time>
      </trkpt>
      <trkpt lat="59.8419628" lon="17.6554446">
        <ele>19.8444</ele>
        <time>2014-05-25T10:37:39Z</time>
      </trkpt>
      <trkpt lat="59.841941" lon="17.6554739">
        <ele>19.8444</ele>
        <time>2014-05-25T10:37:40Z</time>
      </trkpt>
      <trkpt lat="59.8419198" lon="17.6555045">
        <ele>19.8444</ele>
        <time>2014-05-25T10:37:41Z</time>
      </trkpt>
      <trkpt lat="59.8418996" lon="17.6555346">
        <ele>19.8444</ele>
        <time>2014-05-25T10:37:42Z</time>
      </trkpt>
      <trkpt lat="59.8418788" lon="17.6555698">
        <ele>19.8444</ele>
        <time>2014-05-25T10:37:43Z</time>
      </trkpt>
      <trkpt lat="59.8418598" lon="17.6556086">
        <ele>19.8444</ele>
        <time>2014-05-25T10:37:44Z</time>
      </trkpt>
      <trkpt lat="59.8418411" lon="17.6556453">
        <ele>20.325</ele>
        <time>2014-05-25T10:37:45Z</time>
      </trkpt>
      <trkpt lat="59.8418192" lon="17.6556844">
        <ele>19.8444</ele>
        <time>2014-05-25T10:37:46Z</time>
      </trkpt>
      <trkpt lat="59.841798" lon="17.6557229">
        <ele>19.8444</ele>
        <time>2014-05-25T10:37:47Z</time>
      </trkpt>
      <trkpt lat="59.8417778" lon="17.655752">
        <ele>19.8444</ele>
        <time>2014-05-25T10:37:48Z</time>
      </trkpt>
      <trkpt lat="59.8417519" lon="17.655791">
        <ele>19.3638</ele>
        <time>2014-05-25T10:37:49Z</time>
      </trkpt>
      <trkpt lat="59.8417277" lon="17.6558338">
        <ele>19.3638</ele>
        <time>2014-05-25T10:37:50Z</time>
      </trkpt>
      <trkpt lat="59.8417075" lon="17.655874">
        <ele>18.8831</ele>
        <time>2014-05-25T10:37:51Z</time>
      </trkpt>
      <trkpt lat="59.8416892" lon="17.6559129">
        <ele>18.4023</ele>
        <time>2014-05-25T10:37:52Z</time>
      </trkpt>
      <trkpt lat="59.8416661" lon="17.6559548">
        <ele>17.4412</ele>
        <time>2014-05-25T10:37:53Z</time>
      </trkpt>
      <trkpt lat="59.8416469" lon="17.6559899">
        <ele>17.9218</ele>
        <time>2014-05-25T10:37:54Z</time>
      </trkpt>
      <trkpt lat="59.8416251" lon="17.656042">
        <ele>16.9604</ele>
        <time>2014-05-25T10:37:55Z</time>
      </trkpt>
      <trkpt lat="59.8416062" lon="17.6560793">
        <ele>16.9604</ele>
        <time>2014-05-25T10:37:56Z</time>
      </trkpt>
      <trkpt lat="59.8415858" lon="17.6561172">
        <ele>15.999</ele>
        <time>2014-05-25T10:37:57Z</time>
      </trkpt>
      <trkpt lat="59.8415661" lon="17.6561553">
        <ele>15.999</ele>
        <time>2014-05-25T10:37:58Z</time>
      </trkpt>
      <trkpt lat="59.8415464" lon="17.6561912">
        <ele>15.5184</ele>
        <time>2014-05-25T10:37:59Z</time>
      </trkpt>
      <trkpt lat="59.8415276" lon="17.6562272">
        <ele>15.0377</ele>
        <time>2014-05-25T10:38:00Z</time>
      </trkpt>
      <trkpt lat="59.841505" lon="17.6562601">
        <ele>14.557</ele>
        <time>2014-05-25T10:38:01Z</time>
      </trkpt>
      <trkpt lat="59.8414795" lon="17.6562878">
        <ele>13.5958</ele>
        <time>2014-05-25T10:38:02Z</time>
      </trkpt>
      <trkpt lat="59.8414566" lon="17.6563101">
        <ele>13.1151</ele>
        <time>2014-05-25T10:38:03Z</time>
      </trkpt>
      <trkpt lat="59.8414371" lon="17.6563215">
        <ele>12.6344</ele>
        <time>2014-05-25T10:38:04Z</time>
      </trkpt>
      <trkpt lat="59.8414159" lon="17.6563391">
        <ele>11.6732</ele>
        <time>2014-05-25T10:38:05Z</time>
      </trkpt>
      <trkpt lat="59.8413944" lon="17.6563634">
        <ele>11.6732</ele>
        <time>2014-05-25T10:38:06Z</time>
      </trkpt>
      <trkpt lat="59.8413719" lon="17.6563878">
        <ele>11.1925</ele>
        <time>2014-05-25T10:38:07Z</time>
      </trkpt>
      <trkpt lat="59.8413495" lon="17.6564189">
        <ele>11.1925</ele>
        <time>2014-05-25T10:38:08Z</time>
      </trkpt>
      <trkpt lat="59.8413271" lon="17.6564528">
        <ele>10.7118</ele>
        <time>2014-05-25T10:38:09Z</time>
      </trkpt>
      <trkpt lat="59.8413042" lon="17.6564789">
        <ele>10.7118</ele>
        <time>2014-05-25T10:38:10Z</time>
      </trkpt>
      <trkpt lat="59.8412779" lon="17.6565048">
        <ele>10.2312</ele>
        <time>2014-05-25T10:38:11Z</time>
      </trkpt>
      <trkpt lat="59.841251" lon="17.6565362">
        <ele>9.75061</ele>
        <time>2014-05-25T10:38:12Z</time>
      </trkpt>
      <trkpt lat="59.8412252" lon="17.6565661">
        <ele>9.75061</ele>
        <time>2014-05-25T10:38:13Z</time>
      </trkpt>
      <trkpt lat="59.8411971" lon="17.6565985">
        <ele>9.2699</ele>
        <time>2014-05-25T10:38:14Z</time>
      </trkpt>
      <trkpt lat="59.8411701" lon="17.6566338">
        <ele>8.78918</ele>
        <time>2014-05-25T10:38:15Z</time>
      </trkpt>
      <trkpt lat="59.841145" lon="17.6566597">
        <ele>8.78918</ele>
        <time>2014-05-25T10:38:16Z</time>
      </trkpt>
      <trkpt lat="59.8411212" lon="17.6566757">
        <ele>9.2699</ele>
        <time>2014-05-25T10:38:17Z</time>
      </trkpt>
      <trkpt lat="59.8410993" lon="17.6566904">
        <ele>8.78918</ele>
        <time>2014-05-25T10:38:18Z</time>
      </trkpt>
      <trkpt lat="59.8410755" lon="17.6567063">
        <ele>8.78918</ele>
        <time>2014-05-25T10:38:19Z</time>
      </trkpt>
      <trkpt lat="59.8410522" lon="17.6567245">
        <ele>9.2699</ele>
        <time>2014-05-25T10:38:20Z</time>
      </trkpt>
      <trkpt lat="59.8410247" lon="17.6567512">
        <ele>8.78918</ele>
        <time>2014-05-25T10:38:21Z</time>
      </trkpt>
      <trkpt lat="59.8409963" lon="17.6567596">
        <ele>8.78918</ele>
        <time>2014-05-25T10:38:22Z</time>
      </trkpt>
      <trkpt lat="59.8409692" lon="17.6567675">
        <ele>9.2699</ele>
        <time>2014-05-25T10:38:23Z</time>
      </trkpt>
      <trkpt lat="59.8409393" lon="17.6567758">
        <ele>9.2699</ele>
        <time>2014-05-25T10:38:24Z</time>
      </trkpt>
      <trkpt lat="59.8409126" lon="17.6567773">
        <ele>9.75061</ele>
        <time>2014-05-25T10:38:25Z</time>
      </trkpt>
      <trkpt lat="59.8408906" lon="17.6567685">
        <ele>9.2699</ele>
        <time>2014-05-25T10:38:26Z</time>
      </trkpt>
      <trkpt lat="59.8408663" lon="17.6567669">
        <ele>9.75061</ele>
        <time>2014-05-25T10:38:27Z</time>
      </trkpt>
      <trkpt lat="59.8408419" lon="17.6567626">
        <ele>10.2312</ele>
        <time>2014-05-25T10:38:28Z</time>
      </trkpt>
      <trkpt lat="59.840817" lon="17.6567602">
        <ele>10.2312</ele>
        <time>2014-05-25T10:38:29Z</time>
      </trkpt>
      <trkpt lat="59.8407888" lon="17.6567607">
        <ele>10.2312</ele>
        <time>2014-05-25T10:38:30Z</time>
      </trkpt>
      <trkpt lat="59.8407651" lon="17.6567618">
        <ele>10.2312</ele>
        <time>2014-05-25T10:38:31Z</time>
      </trkpt>
      <trkpt lat="59.8407423" lon="17.6567626">
        <ele>10.7118</ele>
        <time>2014-05-25T10:38:32Z</time>
      </trkpt>
      <trkpt lat="59.8407155" lon="17.6567627">
        <ele>10.7118</ele>
        <time>2014-05-25T10:38:33Z</time>
      </trkpt>
      <trkpt lat="59.8406925" lon="17.6567652">
        <ele>10.7118</ele>
        <time>2014-05-25T10:38:34Z</time>
      </trkpt>
      <trkpt lat="59.8406694" lon="17.6567695">
        <ele>11.1925</ele>
        <time>2014-05-25T10:38:35Z</time>
      </trkpt>
      <trkpt lat="59.8406431" lon="17.6567773">
        <ele>11.6732</ele>
        <time>2014-05-25T10:38:36Z</time>
      </trkpt>
      <trkpt lat="59.840615" lon="17.6567825">
        <ele>11.6732</ele>
        <time>2014-05-25T10:38:37Z</time>
      </trkpt>
      <trkpt lat="59.840588" lon="17.6567833">
        <ele>11.6732</ele>
        <time>2014-05-25T10:38:38Z</time>
      </trkpt>
      <trkpt lat="59.840559" lon="17.6567773">
        <ele>10.7118</ele>
        <time>2014-05-25T10:38:39Z</time>
      </trkpt>
      <trkpt lat="59.8405281" lon="17.6567766">
        <ele>10.2312</ele>
        <time>2014-05-25T10:38:40Z</time>
      </trkpt>
      <trkpt lat="59.8405026" lon="17.6567783">
        <ele>10.7118</ele>
        <time>2014-05-25T10:38:41Z</time>
      </trkpt>
      <trkpt lat="59.8404755" lon="17.6567766">
        <ele>10.7118</ele>
        <time>2014-05-25T10:38:42Z</time>
      </trkpt>
      <trkpt lat="59.8404488" lon="17.6567732">
        <ele>10.2312</ele>
        <time>2014-05-25T10:38:43Z</time>
      </trkpt>
      <trkpt lat="59.8404216" lon="17.6567814">
        <ele>10.7118</ele>
        <time>2014-05-25T10:38:44Z</time>
      </trkpt>
      <trkpt lat="59.8403964" lon="17.6567885">
        <ele>10.2312</ele>
        <time>2014-05-25T10:38:45Z</time>
      </trkpt>
      <trkpt lat="59.8403703" lon="17.6567973">
        <ele>9.75061</ele>
        <time>2014-05-25T10:38:46Z</time>
      </trkpt>
      <trkpt lat="59.8403447" lon="17.656804">
        <ele>9.2699</ele>
        <time>2014-05-25T10:38:47Z</time>
      </trkpt>
      <trkpt lat="59.8403177" lon="17.6568099">
        <ele>8.78918</ele>
        <time>2014-05-25T10:38:48Z</time>
      </trkpt>
      <trkpt lat="59.8402895" lon="17.6568203">
        <ele>8.30859</ele>
        <time>2014-05-25T10:38:49Z</time>
      </trkpt>
      <trkpt lat="59.8402617" lon="17.6568286">
        <ele>7.82788</ele>
        <time>2014-05-25T10:38:50Z</time>
      </trkpt>
      <trkpt lat="59.8402302" lon="17.656839">
        <ele>7.34717</ele>
        <time>2014-05-25T10:38:51Z</time>
      </trkpt>
      <trkpt lat="59.8402042" lon="17.6568342">
        <ele>7.34717</ele>
        <time>2014-05-25T10:38:52Z</time>
      </trkpt>
      <trkpt lat="59.8401808" lon="17.6568294">
        <ele>6.38586</ele>
        <time>2014-05-25T10:38:53Z</time>
      </trkpt>
      <trkpt lat="59.8401595" lon="17.65683">
        <ele>5.90527</ele>
        <time>2014-05-25T10:38:54Z</time>
      </trkpt>
      <trkpt lat="59.8401362" lon="17.6568322">
        <ele>5.90527</ele>
        <time>2014-05-25T10:38:55Z</time>
      </trkpt>
      <trkpt lat="59.8401102" lon="17.656838">
        <ele>5.90527</ele>
        <time>2014-05-25T10:38:56Z</time>
      </trkpt>
      <trkpt lat="59.8400829" lon="17.6568369">
        <ele>5.90527</ele>
        <time>2014-05-25T10:38:57Z</time>
      </trkpt>
      <trkpt lat="59.8400567" lon="17.6568338">
        <ele>5.90527</ele>
        <time>2014-05-25T10:38:58Z</time>
      </trkpt>
      <trkpt lat="59.8400316" lon="17.6568292">
        <ele>5.90527</ele>
        <time>2014-05-25T10:38:59Z</time>
      </trkpt>
      <trkpt lat="59.8400097" lon="17.6568232">
        <ele>5.90527</ele>
        <time>2014-05-25T10:39:00Z</time>
      </trkpt>
      <trkpt lat="59.8399663" lon="17.656811">
        <ele>6.38586</ele>
        <time>2014-05-25T10:39:02Z</time>
      </trkpt>
      <trkpt lat="59.8399431" lon="17.6568072">
        <ele>6.38586</ele>
        <time>2014-05-25T10:39:03Z</time>
      </trkpt>
      <trkpt lat="59.8399167" lon="17.6568093">
        <ele>6.38586</ele>
        <time>2014-05-25T10:39:04Z</time>
      </trkpt>
      <trkpt lat="59.8398872" lon="17.6568147">
        <ele>6.38586</ele>
        <time>2014-05-25T10:39:05Z</time>
      </trkpt>
      <trkpt lat="59.8398609" lon="17.6568172">
        <ele>6.38586</ele>
        <time>2014-05-25T10:39:06Z</time>
      </trkpt>
      <trkpt lat="59.8398349" lon="17.6568194">
        <ele>6.86646</ele>
        <time>2014-05-25T10:39:07Z</time>
      </trkpt>
      <trkpt lat="59.8398109" lon="17.6568189">
        <ele>6.38586</ele>
        <time>2014-05-25T10:39:08Z</time>
      </trkpt>
      <trkpt lat="59.8397922" lon="17.6568146">
        <ele>6.86646</ele>
        <time>2014-05-25T10:39:09Z</time>
      </trkpt>
      <trkpt lat="59.8397686" lon="17.6568106">
        <ele>6.86646</ele>
        <time>2014-05-25T10:39:10Z</time>
      </trkpt>
      <trkpt lat="59.8397416" lon="17.6568137">
        <ele>6.38586</ele>
        <time>2014-05-25T10:39:11Z</time>
      </trkpt>
      <trkpt lat="59.8397088" lon="17.6568245">
        <ele>5.90527</ele>
        <time>2014-05-25T10:39:12Z</time>
      </trkpt>
      <trkpt lat="59.839681" lon="17.6568306">
        <ele>5.42456</ele>
        <time>2014-05-25T10:39:13Z</time>
      </trkpt>
      <trkpt lat="59.8396594" lon="17.6568296">
        <ele>5.42456</ele>
        <time>2014-05-25T10:39:14Z</time>
      </trkpt>
      <trkpt lat="59.8396357" lon="17.6568347">
        <ele>5.42456</ele>
        <time>2014-05-25T10:39:15Z</time>
      </trkpt>
      <trkpt lat="59.8396046" lon="17.6568434">
        <ele>4.94385</ele>
        <time>2014-05-25T10:39:16Z</time>
      </trkpt>
      <trkpt lat="59.8395701" lon="17.6568502">
        <ele>4.46326</ele>
        <time>2014-05-25T10:39:17Z</time>
      </trkpt>
      <trkpt lat="59.8395387" lon="17.6568556">
        <ele>4.46326</ele>
        <time>2014-05-25T10:39:18Z</time>
      </trkpt>
      <trkpt lat="59.8395089" lon="17.6568638">
        <ele>4.94385</ele>
        <time>2014-05-25T10:39:19Z</time>
      </trkpt>
      <trkpt lat="59.8394804" lon="17.6568685">
        <ele>4.94385</ele>
        <time>2014-05-25T10:39:20Z</time>
      </trkpt>
      <trkpt lat="59.8394573" lon="17.6568673">
        <ele>4.94385</ele>
        <time>2014-05-25T10:39:21Z</time>
      </trkpt>
      <trkpt lat="59.8394329" lon="17.6568652">
        <ele>4.94385</ele>
        <time>2014-05-25T10:39:22Z</time>
      </trkpt>
      <trkpt lat="59.8394066" lon="17.6568669">
        <ele>5.42456</ele>
        <time>2014-05-25T10:39:23Z</time>
      </trkpt>
      <trkpt lat="59.839377" lon="17.6568755">
        <ele>4.46326</ele>
        <time>2014-05-25T10:39:24Z</time>
      </trkpt>
      <trkpt lat="59.8393484" lon="17.6568795">
        <ele>3.98267</ele>
        <time>2014-05-25T10:39:25Z</time>
      </trkpt>
      <trkpt lat="59.839322" lon="17.6568784">
        <ele>3.50195</ele>
        <time>2014-05-25T10:39:26Z</time>
      </trkpt>
      <trkpt lat="59.839291" lon="17.6568757">
        <ele>2.54065</ele>
        <time>2014-05-25T10:39:27Z</time>
      </trkpt>
      <trkpt lat="59.8392609" lon="17.6568773">
        <ele>2.06006</ele>
        <time>2014-05-25T10:39:28Z</time>
      </trkpt>
      <trkpt lat="59.8392307" lon="17.6568794">
        <ele>2.06006</ele>
        <time>2014-05-25T10:39:29Z</time>
      </trkpt>
      <trkpt lat="59.8391986" lon="17.6568844">
        <ele>1.09863</ele>
        <time>2014-05-25T10:39:30Z</time>
      </trkpt>
      <trkpt lat="59.8391692" lon="17.6568979">
        <ele>1.09863</ele>
        <time>2014-05-25T10:39:31Z</time>
      </trkpt>
      <trkpt lat="59.8391412" lon="17.6569019">
        <ele>0.618042</ele>
        <time>2014-05-25T10:39:32Z</time>
      </trkpt>
      <trkpt lat="59.8391154" lon="17.6568989">
        <ele>0.137451</ele>
        <time>2014-05-25T10:39:33Z</time>
      </trkpt>
      <trkpt lat="59.8390918" lon="17.6568964">
        <ele>0</ele>
        <time>2014-05-25T10:39:34Z</time>
      </trkpt>
      <trkpt lat="59.8390749" lon="17.6568888">
        <ele>0</ele>
        <time>2014-05-25T10:39:35Z</time>
      </trkpt>
      <trkpt lat="59.8390548" lon="17.6568815">
        <ele>0</ele>
        <time>2014-05-25T10:39:36Z</time>
      </trkpt>
      <trkpt lat="59.8390341" lon="17.6568715">
        <ele>0.137451</ele>
        <time>2014-05-25T10:39:37Z</time>
      </trkpt>
      <trkpt lat="59.8390081" lon="17.6568705">
        <ele>0.137451</ele>
        <time>2014-05-25T10:39:38Z</time>
      </trkpt>
      <trkpt lat="59.8389823" lon="17.6568704">
        <ele>0.137451</ele>
        <time>2014-05-25T10:39:39Z</time>
      </trkpt>
      <trkpt lat="59.8389532" lon="17.6568768">
        <ele>0</ele>
        <time>2014-05-25T10:39:40Z</time>
      </trkpt>
      <trkpt lat="59.8389247" lon="17.6568909">
        <ele>0.137451</ele>
        <time>2014-05-25T10:39:41Z</time>
      </trkpt>
      <trkpt lat="59.8388929" lon="17.6569016">
        <ele>0</ele>
        <time>2014-05-25T10:39:42Z</time>
      </trkpt>
      <trkpt lat="59.8388605" lon="17.6569072">
        <ele>0</ele>
        <time>2014-05-25T10:39:43Z</time>
      </trkpt>
      <trkpt lat="59.8388304" lon="17.6569033">
        <ele>0</ele>
        <time>2014-05-25T10:39:44Z</time>
      </trkpt>
      <trkpt lat="59.8388054" lon="17.6569078">
        <ele>0</ele>
        <time>2014-05-25T10:39:45Z</time>
      </trkpt>
      <trkpt lat="59.838776" lon="17.6569223">
        <ele>0</ele>
        <time>2014-05-25T10:39:46Z</time>
      </trkpt>
      <trkpt lat="59.8387496" lon="17.6569312">
        <ele>0</ele>
        <time>2014-05-25T10:39:47Z</time>
      </trkpt>
      <trkpt lat="59.838721" lon="17.6569451">
        <ele>0</ele>
        <time>2014-05-25T10:39:48Z</time>
      </trkpt>
      <trkpt lat="59.8386858" lon="17.6569631">
        <ele>0</ele>
        <time>2014-05-25T10:39:49Z</time>
      </trkpt>
      <trkpt lat="59.8386574" lon="17.6569651">
        <ele>0</ele>
        <time>2014-05-25T10:39:50Z</time>
      </trkpt>
      <trkpt lat="59.8386346" lon="17.6569649">
        <ele>0</ele>
        <time>2014-05-25T10:39:51Z</time>
      </trkpt>
      <trkpt lat="59.838609" lon="17.656966">
        <ele>0</ele>
        <time>2014-05-25T10:39:52Z</time>
      </trkpt>
      <trkpt lat="59.8385795" lon="17.6569746">
        <ele>0</ele>
        <time>2014-05-25T10:39:53Z</time>
      </trkpt>
      <trkpt lat="59.8385528" lon="17.6569799">
        <ele>0</ele>
        <time>2014-05-25T10:39:54Z</time>
      </trkpt>
      <trkpt lat="59.8385282" lon="17.656983">
        <ele>0.137451</ele>
        <time>2014-05-25T10:39:55Z</time>
      </trkpt>
      <trkpt lat="59.8384973" lon="17.6569768">
        <ele>0.137451</ele>
        <time>2014-05-25T10:39:56Z</time>
      </trkpt>
      <trkpt lat="59.8384669" lon="17.6569677">
        <ele>1.57935</ele>
        <time>2014-05-25T10:39:57Z</time>
      </trkpt>
      <trkpt lat="59.8384439" lon="17.6569489">
        <ele>2.06006</ele>
        <time>2014-05-25T10:39:58Z</time>
      </trkpt>
      <trkpt lat="59.8384198" lon="17.6569312">
        <ele>2.54065</ele>
        <time>2014-05-25T10:39:59Z</time>
      </trkpt>
      <trkpt lat="59.8383973" lon="17.6569261">
        <ele>3.02124</ele>
        <time>2014-05-25T10:40:00Z</time>
      </trkpt>
      <trkpt lat="59.8383747" lon="17.6569299">
        <ele>3.50195</ele>
        <time>2014-05-25T10:40:01Z</time>
      </trkpt>
      <trkpt lat="59.8383531" lon="17.6569336">
        <ele>3.98267</ele>
        <time>2014-05-25T10:40:02Z</time>
      </trkpt>
      <trkpt lat="59.8383253" lon="17.6569484">
        <ele>3.98267</ele>
        <time>2014-05-25T10:40:03Z</time>
      </trkpt>
      <trkpt lat="59.8382942" lon="17.6569679">
        <ele>4.46326</ele>
        <time>2014-05-25T10:40:04Z</time>
      </trkpt>
      <trkpt lat="59.8382658" lon="17.6569875">
        <ele>4.94385</ele>
        <time>2014-05-25T10:40:05Z</time>
      </trkpt>
      <trkpt lat="59.8382373" lon="17.6570006">
        <ele>4.94385</ele>
        <time>2014-05-25T10:40:06Z</time>
      </trkpt>
      <trkpt lat="59.8382062" lon="17.6570069">
        <ele>4.46326</ele>
        <time>2014-05-25T10:40:07Z</time>
      </trkpt>
      <trkpt lat="59.8381802" lon="17.6570032">
        <ele>4.94385</ele>
        <time>2014-05-25T10:40:08Z</time>
      </trkpt>
      <trkpt lat="59.8381508" lon="17.6570118">
        <ele>4.94385</ele>
        <time>2014-05-25T10:40:09Z</time>
      </trkpt>
      <trkpt lat="59.8381181" lon="17.6570269">
        <ele>4.94385</ele>
        <time>2014-05-25T10:40:10Z</time>
      </trkpt>
      <trkpt lat="59.8380893" lon="17.6570332">
        <ele>5.42456</ele>
        <time>2014-05-25T10:40:11Z</time>
      </trkpt>
      <trkpt lat="59.8380641" lon="17.6570318">
        <ele>5.90527</ele>
        <time>2014-05-25T10:40:12Z</time>
      </trkpt>
      <trkpt lat="59.8380369" lon="17.6570342">
        <ele>5.42456</ele>
        <time>2014-05-25T10:40:13Z</time>
      </trkpt>
      <trkpt lat="59.8380087" lon="17.6570435">
        <ele>6.38586</ele>
        <time>2014-05-25T10:40:14Z</time>
      </trkpt>
      <trkpt lat="59.8379799" lon="17.6570431">
        <ele>6.86646</ele>
        <time>2014-05-25T10:40:15Z</time>
      </trkpt>
      <trkpt lat="59.8379602" lon="17.6570368">
        <ele>7.34717</ele>
        <time>2014-05-25T10:40:16Z</time>
      </trkpt>
      <trkpt lat="59.8379384" lon="17.6570357">
        <ele>8.30859</ele>
        <time>2014-05-25T10:40:17Z</time>
      </trkpt>
      <trkpt lat="59.8379141" lon="17.6570372">
        <ele>8.78918</ele>
        <time>2014-05-25T10:40:18Z</time>
      </trkpt>
      <trkpt lat="59.8378838" lon="17.657043">
        <ele>9.2699</ele>
        <time>2014-05-25T10:40:19Z</time>
      </trkpt>
      <trkpt lat="59.8378546" lon="17.6570421">
        <ele>9.2699</ele>
        <time>2014-05-25T10:40:20Z</time>
      </trkpt>
      <trkpt lat="59.8378265" lon="17.6570498">
        <ele>9.2699</ele>
        <time>2014-05-25T10:40:21Z</time>
      </trkpt>
      <trkpt lat="59.8377966" lon="17.6570664">
        <ele>9.2699</ele>
        <time>2014-05-25T10:40:22Z</time>
      </trkpt>
      <trkpt lat="59.8377675" lon="17.6570757">
        <ele>9.2699</ele>
        <time>2014-05-25T10:40:23Z</time>
      </trkpt>
      <trkpt lat="59.8377414" lon="17.6570866">
        <ele>9.75061</ele>
        <time>2014-05-25T10:40:24Z</time>
      </trkpt>
      <trkpt lat="59.8377147" lon="17.657099">
        <ele>9.75061</ele>
        <time>2014-05-25T10:40:25Z</time>
      </trkpt>
      <trkpt lat="59.8376933" lon="17.6570974">
        <ele>9.2699</ele>
        <time>2014-05-25T10:40:26Z</time>
      </trkpt>
      <trkpt lat="59.8376663" lon="17.6571038">
        <ele>8.30859</ele>
        <time>2014-05-25T10:40:27Z</time>
      </trkpt>
      <trkpt lat="59.8376421" lon="17.6571068">
        <ele>7.82788</ele>
        <time>2014-05-25T10:40:28Z</time>
      </trkpt>
      <trkpt lat="59.8376146" lon="17.657117">
        <ele>7.34717</ele>
        <time>2014-05-25T10:40:29Z</time>
      </trkpt>
      <trkpt lat="59.8375887" lon="17.65713">
        <ele>6.86646</ele>
        <time>2014-05-25T10:40:30Z</time>
      </trkpt>
      <trkpt lat="59.8375604" lon="17.6571399">
        <ele>6.86646</ele>
        <time>2014-05-25T10:40:31Z</time>
      </trkpt>
      <trkpt lat="59.8375316" lon="17.6571383">
        <ele>7.34717</ele>
        <time>2014-05-25T10:40:32Z</time>
      </trkpt>
      <trkpt lat="59.8375017" lon="17.6571206">
        <ele>7.34717</ele>
        <time>2014-05-25T10:40:33Z</time>
      </trkpt>
      <trkpt lat="59.8374732" lon="17.657083">
        <ele>6.86646</ele>
        <time>2014-05-25T10:40:34Z</time>
      </trkpt>
      <trkpt lat="59.8374556" lon="17.6570351">
        <ele>6.86646</ele>
        <time>2014-05-25T10:40:35Z</time>
      </trkpt>
      <trkpt lat="59.8374482" lon="17.6569892">
        <ele>6.86646</ele>
        <time>2014-05-25T10:40:36Z</time>
      </trkpt>
      <trkpt lat="59.837443" lon="17.6569337">
        <ele>6.86646</ele>
        <time>2014-05-25T10:40:37Z</time>
      </trkpt>
      <trkpt lat="59.8374365" lon="17.6568789">
        <ele>6.86646</ele>
        <time>2014-05-25T10:40:38Z</time>
      </trkpt>
      <trkpt lat="59.8374309" lon="17.6568227">
        <ele>6.86646</ele>
        <time>2014-05-25T10:40:39Z</time>
      </trkpt>
      <trkpt lat="59.8374291" lon="17.6567711">
        <ele>6.86646</ele>
        <time>2014-05-25T10:40:40Z</time>
      </trkpt>
      <trkpt lat="59.8374271" lon="17.6567265">
        <ele>6.38586</ele>
        <time>2014-05-25T10:40:41Z</time>
      </trkpt>
      <trkpt lat="59.8374213" lon="17.6566819">
        <ele>6.38586</ele>
        <time>2014-05-25T10:40:42Z</time>
      </trkpt>
      <trkpt lat="59.8374137" lon="17.6566322">
        <ele>5.90527</ele>
        <time>2014-05-25T10:40:43Z</time>
      </trkpt>
      <trkpt lat="59.8374075" lon="17.6565814">
        <ele>6.38586</ele>
        <time>2014-05-25T10:40:44Z</time>
      </trkpt>
      <trkpt lat="59.8374002" lon="17.6565323">
        <ele>5.90527</ele>
        <time>2014-05-25T10:40:45Z</time>
      </trkpt>
      <trkpt lat="59.8373933" lon="17.6564805">
        <ele>4.94385</ele>
        <time>2014-05-25T10:40:46Z</time>
      </trkpt>
      <trkpt lat="59.8373884" lon="17.6564205">
        <ele>3.98267</ele>
        <time>2014-05-25T10:40:47Z</time>
      </trkpt>
      <trkpt lat="59.8373853" lon="17.6563562">
        <ele>3.02124</ele>
        <time>2014-05-25T10:40:48Z</time>
      </trkpt>
      <trkpt lat="59.8373848" lon="17.6563003">
        <ele>3.02124</ele>
        <time>2014-05-25T10:40:49Z</time>
      </trkpt>
      <trkpt lat="59.8373825" lon="17.6562479">
        <ele>3.02124</ele>
        <time>2014-05-25T10:40:50Z</time>
      </trkpt>
      <trkpt lat="59.8373784" lon="17.6561888">
        <ele>2.54065</ele>
        <time>2014-05-25T10:40:51Z</time>
      </trkpt>
      <trkpt lat="59.8373697" lon="17.6561317">
        <ele>2.06006</ele>
        <time>2014-05-25T10:40:52Z</time>
      </trkpt>
      <trkpt lat="59.8373639" lon="17.656075">
        <ele>2.06006</ele>
        <time>2014-05-25T10:40:53Z</time>
      </trkpt>
      <trkpt lat="59.8373566" lon="17.6560213">
        <ele>2.06006</ele>
        <time>2014-05-25T10:40:54Z</time>
      </trkpt>
      <trkpt lat="59.8373479" lon="17.6559651">
        <ele>2.06006</ele>
        <time>2014-05-25T10:40:55Z</time>
      </trkpt>
      <trkpt lat="59.8373416" lon="17.6559059">
        <ele>2.06006</ele>
        <time>2014-05-25T10:40:56Z</time>
      </trkpt>
      <trkpt lat="59.837339" lon="17.6558489">
        <ele>2.06006</ele>
        <time>2014-05-25T10:40:57Z</time>
      </trkpt>
      <trkpt lat="59.8373361" lon="17.6557884">
        <ele>2.06006</ele>
        <time>2014-05-25T10:40:58Z</time>
      </trkpt>
      <trkpt lat="59.8373312" lon="17.6557299">
        <ele>3.02124</ele>
        <time>2014-05-25T10:40:59Z</time>
      </trkpt>
      <trkpt lat="59.837323" lon="17.655662">
        <ele>3.02124</ele>
        <time>2014-05-25T10:41:00Z</time>
      </trkpt>
      <trkpt lat="59.8373135" lon="17.6555932">
        <ele>3.02124</ele>
        <time>2014-05-25T10:41:01Z</time>
      </trkpt>
      <trkpt lat="59.837306" lon="17.6555362">
        <ele>3.98267</ele>
        <time>2014-05-25T10:41:02Z</time>
      </trkpt>
      <trkpt lat="59.8372997" lon="17.6554917">
        <ele>4.46326</ele>
        <time>2014-05-25T10:41:03Z</time>
      </trkpt>
      <trkpt lat="59.8372929" lon="17.655446">
        <ele>5.42456</ele>
        <time>2014-05-25T10:41:04Z</time>
      </trkpt>
      <trkpt lat="59.8372873" lon="17.6553922">
        <ele>6.38586</ele>
        <time>2014-05-25T10:41:05Z</time>
      </trkpt>
      <trkpt lat="59.8372826" lon="17.6553403">
        <ele>7.34717</ele>
        <time>2014-05-25T10:41:06Z</time>
      </trkpt>
      <trkpt lat="59.8372803" lon="17.6552938">
        <ele>7.82788</ele>
        <time>2014-05-25T10:41:07Z</time>
      </trkpt>
      <trkpt lat="59.8372897" lon="17.6552414">
        <ele>8.30859</ele>
        <time>2014-05-25T10:41:08Z</time>
      </trkpt>
      <trkpt lat="59.8373126" lon="17.6551915">
        <ele>8.78918</ele>
        <time>2014-05-25T10:41:09Z</time>
      </trkpt>
      <trkpt lat="59.8373457" lon="17.6551641">
        <ele>9.2699</ele>
        <time>2014-05-25T10:41:10Z</time>
      </trkpt>
      <trkpt lat="59.8373841" lon="17.6551542">
        <ele>10.2312</ele>
        <time>2014-05-25T10:41:11Z</time>
      </trkpt>
      <trkpt lat="59.8374209" lon="17.6551482">
        <ele>10.2312</ele>
        <time>2014-05-25T10:41:12Z</time>
      </trkpt>
      <trkpt lat="59.8374489" lon="17.6551446">
        <ele>10.7118</ele>
        <time>2014-05-25T10:41:13Z</time>
      </trkpt>
      <trkpt lat="59.8374756" lon="17.6551443">
        <ele>10.7118</ele>
        <time>2014-05-25T10:41:14Z</time>
      </trkpt>
      <trkpt lat="59.8375046" lon="17.655143">
        <ele>10.7118</ele>
        <time>2014-05-25T10:41:15Z</time>
      </trkpt>
      <trkpt lat="59.8375344" lon="17.655142">
        <ele>10.7118</ele>
        <time>2014-05-25T10:41:16Z</time>
      </trkpt>
      <trkpt lat="59.8375614" lon="17.6551518">
        <ele>10.7118</ele>
        <time>2014-05-25T10:41:17Z</time>
      </trkpt>
      <trkpt lat="59.8375888" lon="17.6551611">
        <ele>10.7118</ele>
        <time>2014-05-25T10:41:18Z</time>
      </trkpt>
      <trkpt lat="59.8376148" lon="17.6551606">
        <ele>10.7118</ele>
        <time>2014-05-25T10:41:19Z</time>
      </trkpt>
      <trkpt lat="59.8376427" lon="17.6551621">
        <ele>10.2312</ele>
        <time>2014-05-25T10:41:20Z</time>
      </trkpt>
      <trkpt lat="59.8376688" lon="17.6551584">
        <ele>9.2699</ele>
        <time>2014-05-25T10:41:21Z</time>
      </trkpt>
      <trkpt lat="59.8376942" lon="17.6551564">
        <ele>9.2699</ele>
        <time>2014-05-25T10:41:22Z</time>
      </trkpt>
      <trkpt lat="59.8377184" lon="17.6551566">
        <ele>8.78918</ele>
        <time>2014-05-25T10:41:23Z</time>
      </trkpt>
      <trkpt lat="59.8377405" lon="17.6551544">
        <ele>8.30859</ele>
        <time>2014-05-25T10:41:24Z</time>
      </trkpt>
      <trkpt lat="59.837766" lon="17.6551522">
        <ele>7.82788</ele>
        <time>2014-05-25T10:41:25Z</time>
      </trkpt>
      <trkpt lat="59.8377908" lon="17.6551542">
        <ele>7.34717</ele>
        <time>2014-05-25T10:41:26Z</time>
      </trkpt>
      <trkpt lat="59.8378156" lon="17.6551555">
        <ele>7.34717</ele>
        <time>2014-05-25T10:41:27Z</time>
      </trkpt>
      <trkpt lat="59.8378388" lon="17.655155">
        <ele>7.34717</ele>
        <time>2014-05-25T10:41:28Z</time>
      </trkpt>
      <trkpt lat="59.8378612" lon="17.6551557">
        <ele>7.34717</ele>
        <time>2014-05-25T10:41:29Z</time>
      </trkpt>
      <trkpt lat="59.8378877" lon="17.6551552">
        <ele>6.86646</ele>
        <time>2014-05-25T10:41:30Z</time>
      </trkpt>
      <trkpt lat="59.8379137" lon="17.6551571">
        <ele>6.86646</ele>
        <time>2014-05-25T10:41:31Z</time>
      </trkpt>
      <trkpt lat="59.8379361" lon="17.6551609">
        <ele>6.86646</ele>
        <time>2014-05-25T10:41:32Z</time>
      </trkpt>
      <trkpt lat="59.8379576" lon="17.6551661">
        <ele>6.86646</ele>
        <time>2014-05-25T10:41:33Z</time>
      </trkpt>
      <trkpt lat="59.8379796" lon="17.6551689">
        <ele>6.86646</ele>
        <time>2014-05-25T10:41:34Z</time>
      </trkpt>
      <trkpt lat="59.8380021" lon="17.6551671">
        <ele>6.86646</ele>
        <time>2014-05-25T10:41:35Z</time>
      </trkpt>
      <trkpt lat="59.8380296" lon="17.6551673">
        <ele>6.86646</ele>
        <time>2014-05-25T10:41:36Z</time>
      </trkpt>
      <trkpt lat="59.8380565" lon="17.6551719">
        <ele>6.38586</ele>
        <time>2014-05-25T10:41:37Z</time>
      </trkpt>
      <trkpt lat="59.8380844" lon="17.655172">
        <ele>5.90527</ele>
        <time>2014-05-25T10:41:38Z</time>
      </trkpt>
      <trkpt lat="59.8381113" lon="17.655169">
        <ele>5.90527</ele>
        <time>2014-05-25T10:41:39Z</time>
      </trkpt>
      <trkpt lat="59.8381363" lon="17.6551677">
        <ele>5.90527</ele>
        <time>2014-05-25T10:41:40Z</time>
      </trkpt>
      <trkpt lat="59.8381622" lon="17.6551638">
        <ele>5.90527</ele>
        <time>2014-05-25T10:41:41Z</time>
      </trkpt>
      <trkpt lat="59.8381917" lon="17.6551557">
        <ele>5.90527</ele>
        <time>2014-05-25T10:41:42Z</time>
      </trkpt>
      <trkpt lat="59.8382201" lon="17.6551476">
        <ele>5.42456</ele>
        <time>2014-05-25T10:41:43Z</time>
      </trkpt>
      <trkpt lat="59.8382471" lon="17.6551454">
        <ele>5.42456</ele>
        <time>2014-05-25T10:41:44Z</time>
      </trkpt>
      <trkpt lat="59.838271" lon="17.6551444">
        <ele>5.42456</ele>
        <time>2014-05-25T10:41:45Z</time>
      </trkpt>
      <trkpt lat="59.8382962" lon="17.6551435">
        <ele>5.42456</ele>
        <time>2014-05-25T10:41:46Z</time>
      </trkpt>
      <trkpt lat="59.8383234" lon="17.6551451">
        <ele>5.42456</ele>
        <time>2014-05-25T10:41:47Z</time>
      </trkpt>
      <trkpt lat="59.8383508" lon="17.6551448">
        <ele>5.42456</ele>
        <time>2014-05-25T10:41:48Z</time>
      </trkpt>
      <trkpt lat="59.8383767" lon="17.6551414">
        <ele>5.42456</ele>
        <time>2014-05-25T10:41:49Z</time>
      </trkpt>
      <trkpt lat="59.8384027" lon="17.6551404">
        <ele>5.42456</ele>
        <time>2014-05-25T10:41:50Z</time>
      </trkpt>
      <trkpt lat="59.8384284" lon="17.6551378">
        <ele>4.94385</ele>
        <time>2014-05-25T10:41:51Z</time>
      </trkpt>
      <trkpt lat="59.8384543" lon="17.6551369">
        <ele>4.46326</ele>
        <time>2014-05-25T10:41:52Z</time>
      </trkpt>
      <trkpt lat="59.8384811" lon="17.6551335">
        <ele>3.98267</ele>
        <time>2014-05-25T10:41:53Z</time>
      </trkpt>
      <trkpt lat="59.8385072" lon="17.6551243">
        <ele>4.46326</ele>
        <time>2014-05-25T10:41:54Z</time>
      </trkpt>
      <trkpt lat="59.8385331" lon="17.6551062">
        <ele>3.98267</ele>
        <time>2014-05-25T10:41:55Z</time>
      </trkpt>
      <trkpt lat="59.8385601" lon="17.6550882">
        <ele>3.98267</ele>
        <time>2014-05-25T10:41:56Z</time>
      </trkpt>
      <trkpt lat="59.838586" lon="17.6550689">
        <ele>3.98267</ele>
        <time>2014-05-25T10:41:57Z</time>
      </trkpt>
      <trkpt lat="59.8386109" lon="17.6550467">
        <ele>3.50195</ele>
        <time>2014-05-25T10:41:58Z</time>
      </trkpt>
      <trkpt lat="59.8386324" lon="17.6550269">
        <ele>3.02124</ele>
        <time>2014-05-25T10:41:59Z</time>
      </trkpt>
      <trkpt lat="59.8386591" lon="17.6550012">
        <ele>3.02124</ele>
        <time>2014-05-25T10:42:00Z</time>
      </trkpt>
      <trkpt lat="59.8386834" lon="17.6549708">
        <ele>2.06006</ele>
        <time>2014-05-25T10:42:01Z</time>
      </trkpt>
      <trkpt lat="59.8387067" lon="17.6549451">
        <ele>1.57935</ele>
        <time>2014-05-25T10:42:02Z</time>
      </trkpt>
      <trkpt lat="59.8387284" lon="17.6549156">
        <ele>0.618042</ele>
        <time>2014-05-25T10:42:03Z</time>
      </trkpt>
      <trkpt lat="59.8387477" lon="17.6548906">
        <ele>0</ele>
        <time>2014-05-25T10:42:04Z</time>
      </trkpt>
      <trkpt lat="59.8387702" lon="17.6548715">
        <ele>0</ele>
        <time>2014-05-25T10:42:05Z</time>
      </trkpt>
      <trkpt lat="59.8387978" lon="17.6548572">
        <ele>0</ele>
        <time>2014-05-25T10:42:06Z</time>
      </trkpt>
      <trkpt lat="59.8388237" lon="17.6548395">
        <ele>0</ele>
        <time>2014-05-25T10:42:07Z</time>
      </trkpt>
      <trkpt lat="59.8388482" lon="17.6548223">
        <ele>0</ele>
        <time>2014-05-25T10:42:08Z</time>
      </trkpt>
      <trkpt lat="59.8388698" lon="17.6547974">
        <ele>0</ele>
        <time>2014-05-25T10:42:09Z</time>
      </trkpt>
      <trkpt lat="59.838892" lon="17.6547651">
        <ele>0</ele>
        <time>2014-05-25T10:42:10Z</time>
      </trkpt>
      <trkpt lat="59.8389167" lon="17.6547388">
        <ele>0</ele>
        <time>2014-05-25T10:42:11Z</time>
      </trkpt>
      <trkpt lat="59.8389418" lon="17.6547142">
        <ele>0</ele>
        <time>2014-05-25T10:42:12Z</time>
      </trkpt>
      <trkpt lat="59.8389683" lon="17.6546969">
        <ele>0</ele>
        <time>2014-05-25T10:42:13Z</time>
      </trkpt>
      <trkpt lat="59.8389926" lon="17.6546851">
        <ele>0</ele>
        <time>2014-05-25T10:42:14Z</time>
      </trkpt>
      <trkpt lat="59.8390165" lon="17.6546706">
        <ele>0</ele>
        <time>2014-05-25T10:42:15Z</time>
      </trkpt>
      <trkpt lat="59.839046" lon="17.6546574">
        <ele>0</ele>
        <time>2014-05-25T10:42:16Z</time>
      </trkpt>
      <trkpt lat="59.8390774" lon="17.6546525">
        <ele>0</ele>
        <time>2014-05-25T10:42:17Z</time>
      </trkpt>
      <trkpt lat="59.8391046" lon="17.6546546">
        <ele>0</ele>
        <time>2014-05-25T10:42:18Z</time>
      </trkpt>
      <trkpt lat="59.8391304" lon="17.6546676">
        <ele>0</ele>
        <time>2014-05-25T10:42:19Z</time>
      </trkpt>
      <trkpt lat="59.839156" lon="17.6546892">
        <ele>0</ele>
        <time>2014-05-25T10:42:20Z</time>
      </trkpt>
      <trkpt lat="59.839184" lon="17.6547097">
        <ele>0</ele>
        <time>2014-05-25T10:42:21Z</time>
      </trkpt>
      <trkpt lat="59.8392138" lon="17.6547325">
        <ele>0.137451</ele>
        <time>2014-05-25T10:42:22Z</time>
      </trkpt>
      <trkpt lat="59.8392451" lon="17.6547553">
        <ele>0.137451</ele>
        <time>2014-05-25T10:42:23Z</time>
      </trkpt>
      <trkpt lat="59.8392738" lon="17.6547804">
        <ele>1.09863</ele>
        <time>2014-05-25T10:42:24Z</time>
      </trkpt>
      <trkpt lat="59.8392951" lon="17.654813">
        <ele>1.09863</ele>
        <time>2014-05-25T10:42:25Z</time>
      </trkpt>
      <trkpt lat="59.8393199" lon="17.6548439">
        <ele>1.57935</ele>
        <time>2014-05-25T10:42:26Z</time>
      </trkpt>
      <trkpt lat="59.8393412" lon="17.6548783">
        <ele>1.57935</ele>
        <time>2014-05-25T10:42:27Z</time>
      </trkpt>
      <trkpt lat="59.839361" lon="17.6549175">
        <ele>1.57935</ele>
        <time>2014-05-25T10:42:28Z</time>
      </trkpt>
      <trkpt lat="59.8393852" lon="17.6549525">
        <ele>2.06006</ele>
        <time>2014-05-25T10:42:29Z</time>
      </trkpt>
      <trkpt lat="59.8394079" lon="17.6549849">
        <ele>2.06006</ele>
        <time>2014-05-25T10:42:30Z</time>
      </trkpt>
      <trkpt lat="59.8394286" lon="17.6550179">
        <ele>2.06006</ele>
        <time>2014-05-25T10:42:31Z</time>
      </trkpt>
      <trkpt lat="59.8394474" lon="17.6550493">
        <ele>1.57935</ele>
        <time>2014-05-25T10:42:32Z</time>
      </trkpt>
      <trkpt lat="59.8394675" lon="17.6550732">
        <ele>1.57935</ele>
        <time>2014-05-25T10:42:33Z</time>
      </trkpt>
      <trkpt lat="59.8394924" lon="17.6550907">
        <ele>1.57935</ele>
        <time>2014-05-25T10:42:34Z</time>
      </trkpt>
      <trkpt lat="59.8395188" lon="17.6551026">
        <ele>1.09863</ele>
        <time>2014-05-25T10:42:35Z</time>
      </trkpt>
      <trkpt lat="59.8395456" lon="17.6551074">
        <ele>1.09863</ele>
        <time>2014-05-25T10:42:36Z</time>
      </trkpt>
      <trkpt lat="59.8395721" lon="17.6551046">
        <ele>1.09863</ele>
        <time>2014-05-25T10:42:37Z</time>
      </trkpt>
      <trkpt lat="59.839596" lon="17.6550974">
        <ele>0.618042</ele>
        <time>2014-05-25T10:42:38Z</time>
      </trkpt>
      <trkpt lat="59.8396217" lon="17.6550803">
        <ele>0.137451</ele>
        <time>2014-05-25T10:42:39Z</time>
      </trkpt>
      <trkpt lat="59.8396453" lon="17.655057">
        <ele>0.137451</ele>
        <time>2014-05-25T10:42:40Z</time>
      </trkpt>
      <trkpt lat="59.8396673" lon="17.6550301">
        <ele>0.137451</ele>
        <time>2014-05-25T10:42:41Z</time>
      </trkpt>
      <trkpt lat="59.8396878" lon="17.6549902">
        <ele>0.137451</ele>
        <time>2014-05-25T10:42:42Z</time>
      </trkpt>
      <trkpt lat="59.83971" lon="17.6549477">
        <ele>0</ele>
        <time>2014-05-25T10:42:43Z</time>
      </trkpt>
      <trkpt lat="59.8397349" lon="17.6549119">
        <ele>0</ele>
        <time>2014-05-25T10:42:44Z</time>
      </trkpt>
      <trkpt lat="59.8397578" lon="17.6548768">
        <ele>0.137451</ele>
        <time>2014-05-25T10:42:45Z</time>
      </trkpt>
      <trkpt lat="59.8397784" lon="17.6548553">
        <ele>0.137451</ele>
        <time>2014-05-25T10:42:46Z</time>
      </trkpt>
      <trkpt lat="59.8397951" lon="17.654845">
        <ele>0.618042</ele>
        <time>2014-05-25T10:42:47Z</time>
      </trkpt>
      <trkpt lat="59.8398165" lon="17.6548175">
        <ele>1.09863</ele>
        <time>2014-05-25T10:42:48Z</time>
      </trkpt>
      <trkpt lat="59.8398404" lon="17.6547861">
        <ele>1.57935</ele>
        <time>2014-05-25T10:42:49Z</time>
      </trkpt>
      <trkpt lat="59.8398635" lon="17.6547534">
        <ele>1.57935</ele>
        <time>2014-05-25T10:42:50Z</time>
      </trkpt>
      <trkpt lat="59.8398813" lon="17.6547115">
        <ele>2.06006</ele>
        <time>2014-05-25T10:42:51Z</time>
      </trkpt>
      <trkpt lat="59.839897" lon="17.6546683">
        <ele>2.06006</ele>
        <time>2014-05-25T10:42:52Z</time>
      </trkpt>
      <trkpt lat="59.8399166" lon="17.6546223">
        <ele>2.54065</ele>
        <time>2014-05-25T10:42:53Z</time>
      </trkpt>
      <trkpt lat="59.839938" lon="17.6545773">
        <ele>3.02124</ele>
        <time>2014-05-25T10:42:54Z</time>
      </trkpt>
      <trkpt lat="59.8399531" lon="17.6545312">
        <ele>3.02124</ele>
        <time>2014-05-25T10:42:55Z</time>
      </trkpt>
      <trkpt lat="59.8399648" lon="17.6544802">
        <ele>3.50195</ele>
        <time>2014-05-25T10:42:56Z</time>
      </trkpt>
      <trkpt lat="59.8399743" lon="17.6544222">
        <ele>3.50195</ele>
        <time>2014-05-25T10:42:57Z</time>
      </trkpt>
      <trkpt lat="59.8399826" lon="17.6543678">
        <ele>3.50195</ele>
        <time>2014-05-25T10:42:58Z</time>
      </trkpt>
      <trkpt lat="59.8399887" lon="17.6543135">
        <ele>3.50195</ele>
        <time>2014-05-25T10:42:59Z</time>
      </trkpt>
      <trkpt lat="59.8399944" lon="17.654258">
        <ele>3.02124</ele>
        <time>2014-05-25T10:43:00Z</time>
      </trkpt>
      <trkpt lat="59.8399992" lon="17.6542054">
        <ele>3.02124</ele>
        <time>2014-05-25T10:43:01Z</time>
      </trkpt>
      <trkpt lat="59.8400005" lon="17.6541466">
        <ele>3.02124</ele>
        <time>2014-05-25T10:43:02Z</time>
      </trkpt>
      <trkpt lat="59.8400018" lon="17.6540972">
        <ele>3.02124</ele>
        <time>2014-05-25T10:43:03Z</time>
      </trkpt>
      <trkpt lat="59.8400043" lon="17.6540485">
        <ele>3.02124</ele>
        <time>2014-05-25T10:43:04Z</time>
      </trkpt>
      <trkpt lat="59.8400078" lon="17.6540009">
        <ele>2.54065</ele>
        <time>2014-05-25T10:43:05Z</time>
      </trkpt>
      <trkpt lat="59.8400113" lon="17.6539537">
        <ele>2.06006</ele>
        <time>2014-05-25T10:43:06Z</time>
      </trkpt>
      <trkpt lat="59.8400163" lon="17.6539028">
        <ele>2.06006</ele>
        <time>2014-05-25T10:43:07Z</time>
      </trkpt>
      <trkpt lat="59.8400199" lon="17.6538509">
        <ele>2.06006</ele>
        <time>2014-05-25T10:43:08Z</time>
      </trkpt>
      <trkpt lat="59.8400208" lon="17.6537951">
        <ele>2.06006</ele>
        <time>2014-05-25T10:43:09Z</time>
      </trkpt>
      <trkpt lat="59.8400204" lon="17.6537362">
        <ele>2.06006</ele>
        <time>2014-05-25T10:43:10Z</time>
      </trkpt>
      <trkpt lat="59.8400202" lon="17.6536805">
        <ele>2.06006</ele>
        <time>2014-05-25T10:43:11Z</time>
      </trkpt>
      <trkpt lat="59.8400263" lon="17.653624">
        <ele>2.06006</ele>
        <time>2014-05-25T10:43:12Z</time>
      </trkpt>
      <trkpt lat="59.8400349" lon="17.653576">
        <ele>2.54065</ele>
        <time>2014-05-25T10:43:13Z</time>
      </trkpt>
      <trkpt lat="59.8400465" lon="17.6535422">
        <ele>3.50195</ele>
        <time>2014-05-25T10:43:14Z</time>
      </trkpt>
      <trkpt lat="59.8400617" lon="17.6535164">
        <ele>3.50195</ele>
        <time>2014-05-25T10:43:15Z</time>
      </trkpt>
      <trkpt lat="59.8400845" lon="17.6534983">
        <ele>3.98267</ele>
        <time>2014-05-25T10:43:16Z</time>
      </trkpt>
      <trkpt lat="59.8401056" lon="17.6534895">
        <ele>4.46326</ele>
        <time>2014-05-25T10:43:17Z</time>
      </trkpt>
      <trkpt lat="59.8401273" lon="17.6534822">
        <ele>3.98267</ele>
        <time>2014-05-25T10:43:18Z</time>
      </trkpt>
      <trkpt lat="59.840148" lon="17.6534714">
        <ele>3.50195</ele>
        <time>2014-05-25T10:43:19Z</time>
      </trkpt>
      <trkpt lat="59.8401735" lon="17.6534681">
        <ele>3.98267</ele>
        <time>2014-05-25T10:43:20Z</time>
      </trkpt>
      <trkpt lat="59.8401991" lon="17.6534649">
        <ele>3.98267</ele>
        <time>2014-05-25T10:43:21Z</time>
      </trkpt>
      <trkpt lat="59.8402226" lon="17.6534592">
        <ele>3.98267</ele>
        <time>2014-05-25T10:43:22Z</time>
      </trkpt>
      <trkpt lat="59.8402434" lon="17.6534537">
        <ele>3.98267</ele>
        <time>2014-05-25T10:43:23Z</time>
      </trkpt>
      <trkpt lat="59.8402621" lon="17.6534515">
        <ele>3.50195</ele>
        <time>2014-05-25T10:43:24Z</time>
      </trkpt>
      <trkpt lat="59.8402815" lon="17.6534486">
        <ele>3.02124</ele>
        <time>2014-05-25T10:43:25Z</time>
      </trkpt>
      <trkpt lat="59.8403052" lon="17.6534473">
        <ele>3.02124</ele>
        <time>2014-05-25T10:43:26Z</time>
      </trkpt>
      <trkpt lat="59.840332" lon="17.653439">
        <ele>3.02124</ele>
        <time>2014-05-25T10:43:27Z</time>
      </trkpt>
      <trkpt lat="59.8403559" lon="17.6534262">
        <ele>2.54065</ele>
        <time>2014-05-25T10:43:28Z</time>
      </trkpt>
      <trkpt lat="59.8403763" lon="17.6534217">
        <ele>2.54065</ele>
        <time>2014-05-25T10:43:29Z</time>
      </trkpt>
      <trkpt lat="59.8403973" lon="17.6534212">
        <ele>2.54065</ele>
        <time>2014-05-25T10:43:30Z</time>
      </trkpt>
      <trkpt lat="59.840419" lon="17.6534207">
        <ele>2.54065</ele>
        <time>2014-05-25T10:43:31Z</time>
      </trkpt>
      <trkpt lat="59.8404429" lon="17.6534103">
        <ele>2.54065</ele>
        <time>2014-05-25T10:43:32Z</time>
      </trkpt>
      <trkpt lat="59.8404713" lon="17.6533984">
        <ele>2.06006</ele>
        <time>2014-05-25T10:43:33Z</time>
      </trkpt>
      <trkpt lat="59.8405006" lon="17.653391">
        <ele>1.57935</ele>
        <time>2014-05-25T10:43:34Z</time>
      </trkpt>
      <trkpt lat="59.8405277" lon="17.6533834">
        <ele>1.09863</ele>
        <time>2014-05-25T10:43:35Z</time>
      </trkpt>
      <trkpt lat="59.8405538" lon="17.6533766">
        <ele>1.09863</ele>
        <time>2014-05-25T10:43:36Z</time>
      </trkpt>
      <trkpt lat="59.8405782" lon="17.6533697">
        <ele>1.09863</ele>
        <time>2014-05-25T10:43:37Z</time>
      </trkpt>
      <trkpt lat="59.840601" lon="17.6533655">
        <ele>1.09863</ele>
        <time>2014-05-25T10:43:38Z</time>
      </trkpt>
      <trkpt lat="59.8406248" lon="17.6533662">
        <ele>1.09863</ele>
        <time>2014-05-25T10:43:39Z</time>
      </trkpt>
      <trkpt lat="59.8406501" lon="17.6533677">
        <ele>1.09863</ele>
        <time>2014-05-25T10:43:40Z</time>
      </trkpt>
      <trkpt lat="59.8406772" lon="17.6533635">
        <ele>1.57935</ele>
        <time>2014-05-25T10:43:41Z</time>
      </trkpt>
      <trkpt lat="59.8407015" lon="17.6533569">
        <ele>1.57935</ele>
        <time>2014-05-25T10:43:42Z</time>
      </trkpt>
      <trkpt lat="59.8407274" lon="17.6533527">
        <ele>2.06006</ele>
        <time>2014-05-25T10:43:43Z</time>
      </trkpt>
      <trkpt lat="59.840758" lon="17.6533439">
        <ele>2.54065</ele>
        <time>2014-05-25T10:43:44Z</time>
      </trkpt>
      <trkpt lat="59.8407886" lon="17.6533305">
        <ele>3.02124</ele>
        <time>2014-05-25T10:43:45Z</time>
      </trkpt>
      <trkpt lat="59.8408191" lon="17.6533189">
        <ele>3.02124</ele>
        <time>2014-05-25T10:43:46Z</time>
      </trkpt>
      <trkpt lat="59.8408494" lon="17.6533051">
        <ele>3.50195</ele>
        <time>2014-05-25T10:43:47Z</time>
      </trkpt>
      <trkpt lat="59.8408777" lon="17.6532921">
        <ele>3.98267</ele>
        <time>2014-05-25T10:43:48Z</time>
      </trkpt>
      <trkpt lat="59.8409056" lon="17.6532852">
        <ele>3.98267</ele>
        <time>2014-05-25T10:43:49Z</time>
      </trkpt>
      <trkpt lat="59.8409328" lon="17.653279">
        <ele>3.98267</ele>
        <time>2014-05-25T10:43:50Z</time>
      </trkpt>
      <trkpt lat="59.8409613" lon="17.6532601">
        <ele>3.98267</ele>
        <time>2014-05-25T10:43:51Z</time>
      </trkpt>
      <trkpt lat="59.8409896" lon="17.6532455">
        <ele>3.98267</ele>
        <time>2014-05-25T10:43:52Z</time>
      </trkpt>
      <trkpt lat="59.8410188" lon="17.6532422">
        <ele>3.98267</ele>
        <time>2014-05-25T10:43:53Z</time>
      </trkpt>
      <trkpt lat="59.8410496" lon="17.6532393">
        <ele>4.46326</ele>
        <time>2014-05-25T10:43:54Z</time>
      </trkpt>
      <trkpt lat="59.841077" lon="17.6532332">
        <ele>4.46326</ele>
        <time>2014-05-25T10:43:55Z</time>
      </trkpt>
      <trkpt lat="59.8410983" lon="17.6532309">
        <ele>4.94385</ele>
        <time>2014-05-25T10:43:56Z</time>
      </trkpt>
      <trkpt lat="59.8411181" lon="17.6532294">
        <ele>4.94385</ele>
        <time>2014-05-25T10:43:57Z</time>
      </trkpt>
      <trkpt lat="59.8411422" lon="17.6532305">
        <ele>4.94385</ele>
        <time>2014-05-25T10:43:58Z</time>
      </trkpt>
      <trkpt lat="59.8411685" lon="17.6532258">
        <ele>4.94385</ele>
        <time>2014-05-25T10:43:59Z</time>
      </trkpt>
      <trkpt lat="59.841196" lon="17.6532135">
        <ele>4.94385</ele>
        <time>2014-05-25T10:44:00Z</time>
      </trkpt>
      <trkpt lat="59.8412235" lon="17.653208">
        <ele>5.42456</ele>
        <time>2014-05-25T10:44:01Z</time>
      </trkpt>
      <trkpt lat="59.841251" lon="17.653202">
        <ele>4.94385</ele>
        <time>2014-05-25T10:44:02Z</time>
      </trkpt>
      <trkpt lat="59.8412794" lon="17.6531947">
        <ele>4.94385</ele>
        <time>2014-05-25T10:44:03Z</time>
      </trkpt>
      <trkpt lat="59.8413073" lon="17.6531853">
        <ele>4.94385</ele>
        <time>2014-05-25T10:44:04Z</time>
      </trkpt>
      <trkpt lat="59.8413343" lon="17.6531778">
        <ele>4.94385</ele>
        <time>2014-05-25T10:44:05Z</time>
      </trkpt>
      <trkpt lat="59.8413588" lon="17.6531703">
        <ele>4.94385</ele>
        <time>2014-05-25T10:44:06Z</time>
      </trkpt>
      <trkpt lat="59.8413856" lon="17.6531635">
        <ele>5.42456</ele>
        <time>2014-05-25T10:44:07Z</time>
      </trkpt>
      <trkpt lat="59.8414125" lon="17.6531531">
        <ele>5.90527</ele>
        <time>2014-05-25T10:44:08Z</time>
      </trkpt>
      <trkpt lat="59.8414386" lon="17.653142">
        <ele>5.90527</ele>
        <time>2014-05-25T10:44:09Z</time>
      </trkpt>
      <trkpt lat="59.8414635" lon="17.6531331">
        <ele>5.90527</ele>
        <time>2014-05-25T10:44:10Z</time>
      </trkpt>
      <trkpt lat="59.8414925" lon="17.6531189">
        <ele>6.38586</ele>
        <time>2014-05-25T10:44:11Z</time>
      </trkpt>
      <trkpt lat="59.8415218" lon="17.6530957">
        <ele>6.38586</ele>
        <time>2014-05-25T10:44:12Z</time>
      </trkpt>
      <trkpt lat="59.841549" lon="17.653072">
        <ele>6.38586</ele>
        <time>2014-05-25T10:44:13Z</time>
      </trkpt>
      <trkpt lat="59.8415765" lon="17.653044">
        <ele>6.86646</ele>
        <time>2014-05-25T10:44:14Z</time>
      </trkpt>
      <trkpt lat="59.8416036" lon="17.6530182">
        <ele>7.34717</ele>
        <time>2014-05-25T10:44:15Z</time>
      </trkpt>
      <trkpt lat="59.8416298" lon="17.652989">
        <ele>7.82788</ele>
        <time>2014-05-25T10:44:16Z</time>
      </trkpt>
      <trkpt lat="59.8416551" lon="17.6529596">
        <ele>8.30859</ele>
        <time>2014-05-25T10:44:17Z</time>
      </trkpt>
      <trkpt lat="59.8416783" lon="17.6529414">
        <ele>9.2699</ele>
        <time>2014-05-25T10:44:18Z</time>
      </trkpt>
      <trkpt lat="59.8417" lon="17.6529186">
        <ele>9.2699</ele>
        <time>2014-05-25T10:44:19Z</time>
      </trkpt>
      <trkpt lat="59.8417234" lon="17.6528863">
        <ele>9.2699</ele>
        <time>2014-05-25T10:44:20Z</time>
      </trkpt>
      <trkpt lat="59.8417484" lon="17.6528582">
        <ele>9.75061</ele>
        <time>2014-05-25T10:44:21Z</time>
      </trkpt>
      <trkpt lat="59.8417753" lon="17.6528288">
        <ele>10.2312</ele>
        <time>2014-05-25T10:44:22Z</time>
      </trkpt>
      <trkpt lat="59.8417997" lon="17.6527969">
        <ele>10.7118</ele>
        <time>2014-05-25T10:44:23Z</time>
      </trkpt>
      <trkpt lat="59.8418222" lon="17.6527653">
        <ele>11.1925</ele>
        <time>2014-05-25T10:44:24Z</time>
      </trkpt>
      <trkpt lat="59.8418456" lon="17.6527306">
        <ele>11.6732</ele>
        <time>2014-05-25T10:44:25Z</time>
      </trkpt>
      <trkpt lat="59.841868" lon="17.6526998">
        <ele>12.1538</ele>
        <time>2014-05-25T10:44:26Z</time>
      </trkpt>
      <trkpt lat="59.8418887" lon="17.652676">
        <ele>12.1538</ele>
        <time>2014-05-25T10:44:27Z</time>
      </trkpt>
      <trkpt lat="59.8419082" lon="17.6526506">
        <ele>12.1538</ele>
        <time>2014-05-25T10:44:28Z</time>
      </trkpt>
      <trkpt lat="59.8419274" lon="17.6526213">
        <ele>12.1538</ele>
        <time>2014-05-25T10:44:29Z</time>
      </trkpt>
      <trkpt lat="59.8419494" lon="17.6525866">
        <ele>12.1538</ele>
        <time>2014-05-25T10:44:30Z</time>
      </trkpt>
      <trkpt lat="59.8419718" lon="17.6525498">
        <ele>12.6344</ele>
        <time>2014-05-25T10:44:31Z</time>
      </trkpt>
      <trkpt lat="59.841995" lon="17.6525183">
        <ele>12.6344</ele>
        <time>2014-05-25T10:44:32Z</time>
      </trkpt>
      <trkpt lat="59.8420162" lon="17.6524859">
        <ele>12.1538</ele>
        <time>2014-05-25T10:44:33Z</time>
      </trkpt>
      <trkpt lat="59.8420389" lon="17.6524545">
        <ele>12.1538</ele>
        <time>2014-05-25T10:44:34Z</time>
      </trkpt>
      <trkpt lat="59.8420608" lon="17.6524297">
        <ele>12.1538</ele>
        <time>2014-05-25T10:44:35Z</time>
      </trkpt>
      <trkpt lat="59.8420851" lon="17.6524058">
        <ele>12.1538</ele>
        <time>2014-05-25T10:44:36Z</time>
      </trkpt>
      <trkpt lat="59.8421118" lon="17.6523818">
        <ele>12.6344</ele>
        <time>2014-05-25T10:44:37Z</time>
      </trkpt>
      <trkpt lat="59.8421322" lon="17.6523611">
        <ele>11.6732</ele>
        <time>2014-05-25T10:44:38Z</time>
      </trkpt>
      <trkpt lat="59.8421527" lon="17.6523493">
        <ele>11.6732</ele>
        <time>2014-05-25T10:44:39Z</time>
      </trkpt>
      <trkpt lat="59.8421757" lon="17.6523352">
        <ele>11.1925</ele>
        <time>2014-05-25T10:44:40Z</time>
      </trkpt>
      <trkpt lat="59.8422026" lon="17.6523131">
        <ele>10.7118</ele>
        <time>2014-05-25T10:44:41Z</time>
      </trkpt>
      <trkpt lat="59.8422296" lon="17.6522909">
        <ele>10.2312</ele>
        <time>2014-05-25T10:44:42Z</time>
      </trkpt>
      <trkpt lat="59.8422575" lon="17.6522684">
        <ele>10.2312</ele>
        <time>2014-05-25T10:44:43Z</time>
      </trkpt>
      <trkpt lat="59.8422815" lon="17.6522385">
        <ele>9.75061</ele>
        <time>2014-05-25T10:44:44Z</time>
      </trkpt>
      <trkpt lat="59.8423005" lon="17.6522228">
        <ele>9.75061</ele>
        <time>2014-05-25T10:44:45Z</time>
      </trkpt>
      <trkpt lat="59.8423239" lon="17.6522161">
        <ele>10.2312</ele>
        <time>2014-05-25T10:44:46Z</time>
      </trkpt>
      <trkpt lat="59.8423483" lon="17.6522095">
        <ele>10.7118</ele>
        <time>2014-05-25T10:44:47Z</time>
      </trkpt>
      <trkpt lat="59.8423736" lon="17.6522028">
        <ele>10.2312</ele>
        <time>2014-05-25T10:44:48Z</time>
      </trkpt>
      <trkpt lat="59.842402" lon="17.6521866">
        <ele>10.7118</ele>
        <time>2014-05-25T10:44:49Z</time>
      </trkpt>
      <trkpt lat="59.8424254" lon="17.6521768">
        <ele>11.6732</ele>
        <time>2014-05-25T10:44:50Z</time>
      </trkpt>
      <trkpt lat="59.8424467" lon="17.6521669">
        <ele>11.6732</ele>
        <time>2014-05-25T10:44:51Z</time>
      </trkpt>
      <trkpt lat="59.8424724" lon="17.6521648">
        <ele>12.1538</ele>
        <time>2014-05-25T10:44:52Z</time>
      </trkpt>
      <trkpt lat="59.8424965" lon="17.6521617">
        <ele>11.6732</ele>
        <time>2014-05-25T10:44:53Z</time>
      </trkpt>
      <trkpt lat="59.8425208" lon="17.6521509">
        <ele>12.1538</ele>
        <time>2014-05-25T10:44:54Z</time>
      </trkpt>
      <trkpt lat="59.8425464" lon="17.6521427">
        <ele>12.6344</ele>
        <time>2014-05-25T10:44:55Z</time>
      </trkpt>
      <trkpt lat="59.8425732" lon="17.6521378">
        <ele>13.5958</ele>
        <time>2014-05-25T10:44:56Z</time>
      </trkpt>
      <trkpt lat="59.8425962" lon="17.6521415">
        <ele>13.5958</ele>
        <time>2014-05-25T10:44:57Z</time>
      </trkpt>
      <trkpt lat="59.8426169" lon="17.6521492">
        <ele>14.0764</ele>
        <time>2014-05-25T10:44:58Z</time>
      </trkpt>
      <trkpt lat="59.8426413" lon="17.6521479">
        <ele>14.557</ele>
        <time>2014-05-25T10:44:59Z</time>
      </trkpt>
      <trkpt lat="59.8426702" lon="17.652141">
        <ele>14.557</ele>
        <time>2014-05-25T10:45:00Z</time>
      </trkpt>
      <trkpt lat="59.8426931" lon="17.6521345">
        <ele>14.0764</ele>
        <time>2014-05-25T10:45:01Z</time>
      </trkpt>
      <trkpt lat="59.842716" lon="17.6521291">
        <ele>14.0764</ele>
        <time>2014-05-25T10:45:02Z</time>
      </trkpt>
      <trkpt lat="59.842742" lon="17.6521194">
        <ele>13.5958</ele>
        <time>2014-05-25T10:45:03Z</time>
      </trkpt>
      <trkpt lat="59.842769" lon="17.6521107">
        <ele>13.1151</ele>
        <time>2014-05-25T10:45:04Z</time>
      </trkpt>
      <trkpt lat="59.8427987" lon="17.652106">
        <ele>13.1151</ele>
        <time>2014-05-25T10:45:05Z</time>
      </trkpt>
      <trkpt lat="59.8428246" lon="17.6520962">
        <ele>13.1151</ele>
        <time>2014-05-25T10:45:06Z</time>
      </trkpt>
      <trkpt lat="59.8428472" lon="17.6520836">
        <ele>12.6344</ele>
        <time>2014-05-25T10:45:07Z</time>
      </trkpt>
      <trkpt lat="59.8428728" lon="17.6520733">
        <ele>12.6344</ele>
        <time>2014-05-25T10:45:08Z</time>
      </trkpt>
      <trkpt lat="59.8428989" lon="17.6520645">
        <ele>12.1538</ele>
        <time>2014-05-25T10:45:09Z</time>
      </trkpt>
      <trkpt lat="59.8429227" lon="17.6520489">
        <ele>11.6732</ele>
        <time>2014-05-25T10:45:10Z</time>
      </trkpt>
      <trkpt lat="59.8429475" lon="17.6520299">
        <ele>10.7118</ele>
        <time>2014-05-25T10:45:11Z</time>
      </trkpt>
      <trkpt lat="59.8429682" lon="17.652015">
        <ele>10.7118</ele>
        <time>2014-05-25T10:45:12Z</time>
      </trkpt>
      <trkpt lat="59.8429876" lon="17.6520007">
        <ele>10.7118</ele>
        <time>2014-05-25T10:45:13Z</time>
      </trkpt>
      <trkpt lat="59.8430077" lon="17.6519904">
        <ele>10.7118</ele>
        <time>2014-05-25T10:45:14Z</time>
      </trkpt>
      <trkpt lat="59.8430329" lon="17.6519774">
        <ele>10.7118</ele>
        <time>2014-05-25T10:45:15Z</time>
      </trkpt>
      <trkpt lat="59.8430552" lon="17.6519586">
        <ele>10.2312</ele>
        <time>2014-05-25T10:45:16Z</time>
      </trkpt>
      <trkpt lat="59.8430754" lon="17.6519374">
        <ele>9.75061</ele>
        <time>2014-05-25T10:45:17Z</time>
      </trkpt>
      <trkpt lat="59.843101" lon="17.6519252">
        <ele>10.2312</ele>
        <time>2014-05-25T10:45:18Z</time>
      </trkpt>
      <trkpt lat="59.8431284" lon="17.651909">
        <ele>10.2312</ele>
        <time>2014-05-25T10:45:19Z</time>
      </trkpt>
      <trkpt lat="59.843153" lon="17.6518941">
        <ele>10.2312</ele>
        <time>2014-05-25T10:45:20Z</time>
      </trkpt>
      <trkpt lat="59.8431766" lon="17.651879">
        <ele>10.7118</ele>
        <time>2014-05-25T10:45:21Z</time>
      </trkpt>
      <trkpt lat="59.8432044" lon="17.6518567">
        <ele>11.1925</ele>
        <time>2014-05-25T10:45:22Z</time>
      </trkpt>
      <trkpt lat="59.8432305" lon="17.6518319">
        <ele>10.7118</ele>
        <time>2014-05-25T10:45:23Z</time>
      </trkpt>
      <trkpt lat="59.8432568" lon="17.6518101">
        <ele>10.7118</ele>
        <time>2014-05-25T10:45:24Z</time>
      </trkpt>
      <trkpt lat="59.8432833" lon="17.6517915">
        <ele>10.7118</ele>
        <time>2014-05-25T10:45:25Z</time>
      </trkpt>
      <trkpt lat="59.8433071" lon="17.651762">
        <ele>10.7118</ele>
        <time>2014-05-25T10:45:26Z</time>
      </trkpt>
      <trkpt lat="59.8433335" lon="17.6517359">
        <ele>10.7118</ele>
        <time>2014-05-25T10:45:27Z</time>
      </trkpt>
      <trkpt lat="59.8433618" lon="17.6517161">
        <ele>11.1925</ele>
        <time>2014-05-25T10:45:28Z</time>
      </trkpt>
      <trkpt lat="59.8433885" lon="17.6516951">
        <ele>11.6732</ele>
        <time>2014-05-25T10:45:29Z</time>
      </trkpt>
      <trkpt lat="59.8434178" lon="17.6516702">
        <ele>12.1538</ele>
        <time>2014-05-25T10:45:30Z</time>
      </trkpt>
      <trkpt lat="59.8434428" lon="17.6516428">
        <ele>11.6732</ele>
        <time>2014-05-25T10:45:31Z</time>
      </trkpt>
      <trkpt lat="59.8434672" lon="17.6516163">
        <ele>11.1925</ele>
        <time>2014-05-25T10:45:32Z</time>
      </trkpt>
      <trkpt lat="59.8434936" lon="17.6515904">
        <ele>11.1925</ele>
        <time>2014-05-25T10:45:33Z</time>
      </trkpt>
      <trkpt lat="59.8435231" lon="17.6515581">
        <ele>11.6732</ele>
        <time>2014-05-25T10:45:34Z</time>
      </trkpt>
      <trkpt lat="59.8435551" lon="17.6515216">
        <ele>11.6732</ele>
        <time>2014-05-25T10:45:35Z</time>
      </trkpt>
      <trkpt lat="59.843578" lon="17.6514945">
        <ele>10.7118</ele>
        <time>2014-05-25T10:45:36Z</time>
      </trkpt>
      <trkpt lat="59.8436011" lon="17.6514682">
        <ele>10.2312</ele>
        <time>2014-05-25T10:45:37Z</time>
      </trkpt>
      <trkpt lat="59.8436278" lon="17.651436">
        <ele>10.2312</ele>
        <time>2014-05-25T10:45:38Z</time>
      </trkpt>
      <trkpt lat="59.8436504" lon="17.6514057">
        <ele>9.75061</ele>
        <time>2014-05-25T10:45:39Z</time>
      </trkpt>
      <trkpt lat="59.8436721" lon="17.65138">
        <ele>9.2699</ele>
        <time>2014-05-25T10:45:40Z</time>
      </trkpt>
      <trkpt lat="59.8436952" lon="17.6513629">
        <ele>9.2699</ele>
        <time>2014-05-25T10:45:41Z</time>
      </trkpt>
      <trkpt lat="59.8437137" lon="17.6513452">
        <ele>9.75061</ele>
        <time>2014-05-25T10:45:42Z</time>
      </trkpt>
      <trkpt lat="59.8437344" lon="17.6513158">
        <ele>9.75061</ele>
        <time>2014-05-25T10:45:43Z</time>
      </trkpt>
      <trkpt lat="59.8437534" lon="17.6512917">
        <ele>9.75061</ele>
        <time>2014-05-25T10:45:44Z</time>
      </trkpt>
      <trkpt lat="59.8437717" lon="17.6512729">
        <ele>10.7118</ele>
        <time>2014-05-25T10:45:45Z</time>
      </trkpt>
      <trkpt lat="59.843794" lon="17.6512538">
        <ele>11.6732</ele>
        <time>2014-05-25T10:45:46Z</time>
      </trkpt>
      <trkpt lat="59.8438188" lon="17.65123">
        <ele>12.6344</ele>
        <time>2014-05-25T10:45:47Z</time>
      </trkpt>
      <trkpt lat="59.8438437" lon="17.6511979">
        <ele>12.1538</ele>
        <time>2014-05-25T10:45:48Z</time>
      </trkpt>
      <trkpt lat="59.8438705" lon="17.651157">
        <ele>12.1538</ele>
        <time>2014-05-25T10:45:49Z</time>
      </trkpt>
      <trkpt lat="59.8438931" lon="17.6511236">
        <ele>12.1538</ele>
        <time>2014-05-25T10:45:50Z</time>
      </trkpt>
      <trkpt lat="59.8439131" lon="17.6510901">
        <ele>12.6344</ele>
        <time>2014-05-25T10:45:51Z</time>
      </trkpt>
      <trkpt lat="59.8439288" lon="17.6510616">
        <ele>12.6344</ele>
        <time>2014-05-25T10:45:52Z</time>
      </trkpt>
      <trkpt lat="59.8439469" lon="17.6510373">
        <ele>12.6344</ele>
        <time>2014-05-25T10:45:53Z</time>
      </trkpt>
      <trkpt lat="59.8439661" lon="17.6510075">
        <ele>12.6344</ele>
        <time>2014-05-25T10:45:54Z</time>
      </trkpt>
      <trkpt lat="59.8439861" lon="17.6509765">
        <ele>12.6344</ele>
        <time>2014-05-25T10:45:55Z</time>
      </trkpt>
      <trkpt lat="59.8440067" lon="17.6509469">
        <ele>13.1151</ele>
        <time>2014-05-25T10:45:56Z</time>
      </trkpt>
      <trkpt lat="59.8440256" lon="17.650916">
        <ele>12.1538</ele>
        <time>2014-05-25T10:45:57Z</time>
      </trkpt>
      <trkpt lat="59.8440438" lon="17.6508874">
        <ele>12.1538</ele>
        <time>2014-05-25T10:45:58Z</time>
      </trkpt>
      <trkpt lat="59.844058" lon="17.6508581">
        <ele>12.6344</ele>
        <time>2014-05-25T10:45:59Z</time>
      </trkpt>
      <trkpt lat="59.8440712" lon="17.6508322">
        <ele>12.6344</ele>
        <time>2014-05-25T10:46:00Z</time>
      </trkpt>
      <trkpt lat="59.8440857" lon="17.6507939">
        <ele>11.6732</ele>
        <time>2014-05-25T10:46:01Z</time>
      </trkpt>
      <trkpt lat="59.8441033" lon="17.6507522">
        <ele>10.7118</ele>
        <time>2014-05-25T10:46:02Z</time>
      </trkpt>
      <trkpt lat="59.8441271" lon="17.6507091">
        <ele>11.1925</ele>
        <time>2014-05-25T10:46:03Z</time>
      </trkpt>
      <trkpt lat="59.8441468" lon="17.6506643">
        <ele>11.1925</ele>
        <time>2014-05-25T10:46:04Z</time>
      </trkpt>
      <trkpt lat="59.844166" lon="17.6506216">
        <ele>11.1925</ele>
        <time>2014-05-25T10:46:05Z</time>
      </trkpt>
      <trkpt lat="59.8441868" lon="17.6505871">
        <ele>11.1925</ele>
        <time>2014-05-25T10:46:06Z</time>
      </trkpt>
      <trkpt lat="59.844202" lon="17.6505603">
        <ele>10.7118</ele>
        <time>2014-05-25T10:46:07Z</time>
      </trkpt>
      <trkpt lat="59.8442193" lon="17.6505356">
        <ele>10.7118</ele>
        <time>2014-05-25T10:46:08Z</time>
      </trkpt>
      <trkpt lat="59.8442338" lon="17.6505125">
        <ele>11.1925</ele>
        <time>2014-05-25T10:46:09Z</time>
      </trkpt>
      <trkpt lat="59.8442465" lon="17.6504929">
        <ele>11.6732</ele>
        <time>2014-05-25T10:46:10Z</time>
      </trkpt>
      <trkpt lat="59.8442554" lon="17.650473">
        <ele>11.1925</ele>
        <time>2014-05-25T10:46:11Z</time>
      </trkpt>
      <trkpt lat="59.8442665" lon="17.6504451">
        <ele>11.6732</ele>
        <time>2014-05-25T10:46:12Z</time>
      </trkpt>
      <trkpt lat="59.844282" lon="17.6504182">
        <ele>11.6732</ele>
        <time>2014-05-25T10:46:13Z</time>
      </trkpt>
      <trkpt lat="59.844303" lon="17.6503908">
        <ele>12.1538</ele>
        <time>2014-05-25T10:46:14Z</time>
      </trkpt>
      <trkpt lat="59.844328" lon="17.6503607">
        <ele>12.6344</ele>
        <time>2014-05-25T10:46:15Z</time>
      </trkpt>
      <trkpt lat="59.8443539" lon="17.6503302">
        <ele>13.5958</ele>
        <time>2014-05-25T10:46:16Z</time>
      </trkpt>
      <trkpt lat="59.8443794" lon="17.6503025">
        <ele>14.557</ele>
        <time>2014-05-25T10:46:17Z</time>
      </trkpt>
      <trkpt lat="59.8443997" lon="17.6502735">
        <ele>15.0377</ele>
        <time>2014-05-25T10:46:18Z</time>
      </trkpt>
      <trkpt lat="59.8444195" lon="17.6502379">
        <ele>14.557</ele>
        <time>2014-05-25T10:46:19Z</time>
      </trkpt>
      <trkpt lat="59.8444434" lon="17.6502032">
        <ele>14.557</ele>
        <time>2014-05-25T10:46:20Z</time>
      </trkpt>
      <trkpt lat="59.8444673" lon="17.6501671">
        <ele>14.0764</ele>
        <time>2014-05-25T10:46:21Z</time>
      </trkpt>
      <trkpt lat="59.8444952" lon="17.6501281">
        <ele>15.0377</ele>
        <time>2014-05-25T10:46:22Z</time>
      </trkpt>
      <trkpt lat="59.8445206" lon="17.6500976">
        <ele>15.5184</ele>
        <time>2014-05-25T10:46:23Z</time>
      </trkpt>
      <trkpt lat="59.8445457" lon="17.6500668">
        <ele>15.999</ele>
        <time>2014-05-25T10:46:24Z</time>
      </trkpt>
      <trkpt lat="59.8445689" lon="17.6500375">
        <ele>16.4797</ele>
        <time>2014-05-25T10:46:25Z</time>
      </trkpt>
      <trkpt lat="59.8445828" lon="17.6500005">
        <ele>15.5184</ele>
        <time>2014-05-25T10:46:26Z</time>
      </trkpt>
      <trkpt lat="59.8445975" lon="17.6499603">
        <ele>15.5184</ele>
        <time>2014-05-25T10:46:27Z</time>
      </trkpt>
      <trkpt lat="59.8446078" lon="17.6499137">
        <ele>15.0377</ele>
        <time>2014-05-25T10:46:28Z</time>
      </trkpt>
      <trkpt lat="59.8446161" lon="17.6498707">
        <ele>14.557</ele>
        <time>2014-05-25T10:46:29Z</time>
      </trkpt>
      <trkpt lat="59.8446192" lon="17.6498225">
        <ele>14.0764</ele>
        <time>2014-05-25T10:46:30Z</time>
      </trkpt>
      <trkpt lat="59.8446176" lon="17.6497759">
        <ele>12.6344</ele>
        <time>2014-05-25T10:46:31Z</time>
      </trkpt>
      <trkpt lat="59.8446078" lon="17.6497257">
        <ele>11.1925</ele>
        <time>2014-05-25T10:46:32Z</time>
      </trkpt>
      <trkpt lat="59.844596" lon="17.6496739">
        <ele>9.75061</ele>
        <time>2014-05-25T10:46:33Z</time>
      </trkpt>
      <trkpt lat="59.8445788" lon="17.6496277">
        <ele>8.78918</ele>
        <time>2014-05-25T10:46:34Z</time>
      </trkpt>
      <trkpt lat="59.8445591" lon="17.6495811">
        <ele>7.34717</ele>
        <time>2014-05-25T10:46:35Z</time>
      </trkpt>
      <trkpt lat="59.8445437" lon="17.649534">
        <ele>6.86646</ele>
        <time>2014-05-25T10:46:36Z</time>
      </trkpt>
      <trkpt lat="59.8445368" lon="17.6494951">
        <ele>6.38586</ele>
        <time>2014-05-25T10:46:37Z</time>
      </trkpt>
      <trkpt lat="59.8445291" lon="17.649451">
        <ele>5.42456</ele>
        <time>2014-05-25T10:46:38Z</time>
      </trkpt>
      <trkpt lat="59.8445239" lon="17.6494048">
        <ele>4.94385</ele>
        <time>2014-05-25T10:46:39Z</time>
      </trkpt>
      <trkpt lat="59.8445214" lon="17.649359">
        <ele>3.98267</ele>
        <time>2014-05-25T10:46:40Z</time>
      </trkpt>
      <trkpt lat="59.844523" lon="17.6493107">
        <ele>3.98267</ele>
        <time>2014-05-25T10:46:41Z</time>
      </trkpt>
      <trkpt lat="59.8445249" lon="17.6492655">
        <ele>3.98267</ele>
        <time>2014-05-25T10:46:42Z</time>
      </trkpt>
      <trkpt lat="59.8445239" lon="17.649221">
        <ele>3.50195</ele>
        <time>2014-05-25T10:46:43Z</time>
      </trkpt>
      <trkpt lat="59.8445181" lon="17.6491759">
        <ele>3.02124</ele>
        <time>2014-05-25T10:46:44Z</time>
      </trkpt>
      <trkpt lat="59.8445113" lon="17.649135">
        <ele>2.54065</ele>
        <time>2014-05-25T10:46:45Z</time>
      </trkpt>
      <trkpt lat="59.8445005" lon="17.6490927">
        <ele>1.57935</ele>
        <time>2014-05-25T10:46:46Z</time>
      </trkpt>
      <trkpt lat="59.8444881" lon="17.6490534">
        <ele>0</ele>
        <time>2014-05-25T10:46:47Z</time>
      </trkpt>
      <trkpt lat="59.8444803" lon="17.6490095">
        <ele>0</ele>
        <time>2014-05-25T10:46:48Z</time>
      </trkpt>
      <trkpt lat="59.8444674" lon="17.6489673">
        <ele>0</ele>
        <time>2014-05-25T10:46:49Z</time>
      </trkpt>
      <trkpt lat="59.8444519" lon="17.6489241">
        <ele>0</ele>
        <time>2014-05-25T10:46:50Z</time>
      </trkpt>
      <trkpt lat="59.8444387" lon="17.648893">
        <ele>0</ele>
        <time>2014-05-25T10:46:51Z</time>
      </trkpt>
      <trkpt lat="59.8444159" lon="17.6488709">
        <ele>0</ele>
        <time>2014-05-25T10:46:52Z</time>
      </trkpt>
      <trkpt lat="59.8443985" lon="17.6488361">
        <ele>0</ele>
        <time>2014-05-25T10:46:53Z</time>
      </trkpt>
      <trkpt lat="59.8443794" lon="17.6488029">
        <ele>0</ele>
        <time>2014-05-25T10:46:54Z</time>
      </trkpt>
      <trkpt lat="59.8443619" lon="17.6487741">
        <ele>0</ele>
        <time>2014-05-25T10:46:55Z</time>
      </trkpt>
      <trkpt lat="59.8443415" lon="17.6487369">
        <ele>0</ele>
        <time>2014-05-25T10:46:56Z</time>
      </trkpt>
      <trkpt lat="59.8443202" lon="17.6487078">
        <ele>0</ele>
        <time>2014-05-25T10:46:57Z</time>
      </trkpt>
      <trkpt lat="59.8443062" lon="17.648671">
        <ele>0</ele>
        <time>2014-05-25T10:46:58Z</time>
      </trkpt>
      <trkpt lat="59.8442937" lon="17.6486374">
        <ele>0</ele>
        <time>2014-05-25T10:46:59Z</time>
      </trkpt>
      <trkpt lat="59.8442872" lon="17.648599">
        <ele>0</ele>
        <time>2014-05-25T10:47:00Z</time>
      </trkpt>
      <trkpt lat="59.8442784" lon="17.6485545">
        <ele>0</ele>
        <time>2014-05-25T10:47:01Z</time>
      </trkpt>
      <trkpt lat="59.8442683" lon="17.6485299">
        <ele>0</ele>
        <time>2014-05-25T10:47:02Z</time>
      </trkpt>
      <trkpt lat="59.8442555" lon="17.6484786">
        <ele>0</ele>
        <time>2014-05-25T10:47:03Z</time>
      </trkpt>
      <trkpt lat="59.8442452" lon="17.6484415">
        <ele>0</ele>
        <time>2014-05-25T10:47:04Z</time>
      </trkpt>
      <trkpt lat="59.8442425" lon="17.6483895">
        <ele>1.09863</ele>
        <time>2014-05-25T10:47:05Z</time>
      </trkpt>
      <trkpt lat="59.8442406" lon="17.6483374">
        <ele>1.09863</ele>
        <time>2014-05-25T10:47:06Z</time>
      </trkpt>
      <trkpt lat="59.844241" lon="17.6482986">
        <ele>0.618042</ele>
        <time>2014-05-25T10:47:07Z</time>
      </trkpt>
      <trkpt lat="59.8442431" lon="17.648265">
        <ele>1.57935</ele>
        <time>2014-05-25T10:47:08Z</time>
      </trkpt>
      <trkpt lat="59.8442479" lon="17.6482258">
        <ele>2.06006</ele>
        <time>2014-05-25T10:47:09Z</time>
      </trkpt>
      <trkpt lat="59.84425" lon="17.6481774">
        <ele>2.54065</ele>
        <time>2014-05-25T10:47:10Z</time>
      </trkpt>
      <trkpt lat="59.8442534" lon="17.6481306">
        <ele>2.06006</ele>
        <time>2014-05-25T10:47:11Z</time>
      </trkpt>
      <trkpt lat="59.844254" lon="17.6480933">
        <ele>2.06006</ele>
        <time>2014-05-25T10:47:12Z</time>
      </trkpt>
      <trkpt lat="59.8442523" lon="17.6480624">
        <ele>3.02124</ele>
        <time>2014-05-25T10:47:13Z</time>
      </trkpt>
      <trkpt lat="59.8442523" lon="17.648029">
        <ele>2.54065</ele>
        <time>2014-05-25T10:47:14Z</time>
      </trkpt>
      <trkpt lat="59.8442541" lon="17.6479815">
        <ele>1.57935</ele>
        <time>2014-05-25T10:47:15Z</time>
      </trkpt>
      <trkpt lat="59.8442607" lon="17.6479345">
        <ele>1.09863</ele>
        <time>2014-05-25T10:47:16Z</time>
      </trkpt>
      <trkpt lat="59.844266" lon="17.6478906">
        <ele>0.618042</ele>
        <time>2014-05-25T10:47:17Z</time>
      </trkpt>
      <trkpt lat="59.8442663" lon="17.6478483">
        <ele>0.137451</ele>
        <time>2014-05-25T10:47:18Z</time>
      </trkpt>
      <trkpt lat="59.8442619" lon="17.6478042">
        <ele>0</ele>
        <time>2014-05-25T10:47:19Z</time>
      </trkpt>
      <trkpt lat="59.8442622" lon="17.6477588">
        <ele>0</ele>
        <time>2014-05-25T10:47:20Z</time>
      </trkpt>
      <trkpt lat="59.8442579" lon="17.6477147">
        <ele>0</ele>
        <time>2014-05-25T10:47:21Z</time>
      </trkpt>
      <trkpt lat="59.8442519" lon="17.6476738">
        <ele>0</ele>
        <time>2014-05-25T10:47:22Z</time>
      </trkpt>
      <trkpt lat="59.8442499" lon="17.6476324">
        <ele>0.137451</ele>
        <time>2014-05-25T10:47:23Z</time>
      </trkpt>
      <trkpt lat="59.8442468" lon="17.6475873">
        <ele>0</ele>
        <time>2014-05-25T10:47:24Z</time>
      </trkpt>
      <trkpt lat="59.84424" lon="17.6475432">
        <ele>0</ele>
        <time>2014-05-25T10:47:25Z</time>
      </trkpt>
      <trkpt lat="59.8442362" lon="17.6475091">
        <ele>0</ele>
        <time>2014-05-25T10:47:26Z</time>
      </trkpt>
      <trkpt lat="59.8442264" lon="17.6474722">
        <ele>0.137451</ele>
        <time>2014-05-25T10:47:27Z</time>
      </trkpt>
      <trkpt lat="59.84421" lon="17.6474365">
        <ele>1.09863</ele>
        <time>2014-05-25T10:47:28Z</time>
      </trkpt>
      <trkpt lat="59.8441929" lon="17.6474163">
        <ele>1.09863</ele>
        <time>2014-05-25T10:47:29Z</time>
      </trkpt>
      <trkpt lat="59.8441674" lon="17.6473971">
        <ele>0</ele>
        <time>2014-05-25T10:47:30Z</time>
      </trkpt>
      <trkpt lat="59.844142" lon="17.6473676">
        <ele>0</ele>
        <time>2014-05-25T10:47:31Z</time>
      </trkpt>
      <trkpt lat="59.8441198" lon="17.647338">
        <ele>0</ele>
        <time>2014-05-25T10:47:32Z</time>
      </trkpt>
      <trkpt lat="59.8440939" lon="17.6473107">
        <ele>0</ele>
        <time>2014-05-25T10:47:33Z</time>
      </trkpt>
      <trkpt lat="59.8440696" lon="17.6472925">
        <ele>0</ele>
        <time>2014-05-25T10:47:34Z</time>
      </trkpt>
      <trkpt lat="59.8440432" lon="17.6472873">
        <ele>0</ele>
        <time>2014-05-25T10:47:35Z</time>
      </trkpt>
      <trkpt lat="59.8440146" lon="17.6472801">
        <ele>0</ele>
        <time>2014-05-25T10:47:36Z</time>
      </trkpt>
      <trkpt lat="59.8439872" lon="17.6472692">
        <ele>0</ele>
        <time>2014-05-25T10:47:37Z</time>
      </trkpt>
      <trkpt lat="59.8439588" lon="17.6472528">
        <ele>0</ele>
        <time>2014-05-25T10:47:38Z</time>
      </trkpt>
      <trkpt lat="59.8439369" lon="17.6472361">
        <ele>0</ele>
        <time>2014-05-25T10:47:39Z</time>
      </trkpt>
      <trkpt lat="59.8439177" lon="17.6472148">
        <ele>0</ele>
        <time>2014-05-25T10:47:40Z</time>
      </trkpt>
      <trkpt lat="59.8438961" lon="17.6471882">
        <ele>0</ele>
        <time>2014-05-25T10:47:41Z</time>
      </trkpt>
      <trkpt lat="59.843877" lon="17.6471575">
        <ele>0</ele>
        <time>2014-05-25T10:47:42Z</time>
      </trkpt>
      <trkpt lat="59.8438613" lon="17.6471263">
        <ele>0</ele>
        <time>2014-05-25T10:47:43Z</time>
      </trkpt>
      <trkpt lat="59.8438431" lon="17.6470865">
        <ele>0</ele>
        <time>2014-05-25T10:47:44Z</time>
      </trkpt>
      <trkpt lat="59.8438246" lon="17.6470396">
        <ele>0</ele>
        <time>2014-05-25T10:47:45Z</time>
      </trkpt>
      <trkpt lat="59.8438044" lon="17.6470043">
        <ele>0</ele>
        <time>2014-05-25T10:47:46Z</time>
      </trkpt>
      <trkpt lat="59.8437856" lon="17.6469575">
        <ele>0</ele>
        <time>2014-05-25T10:47:47Z</time>
      </trkpt>
      <trkpt lat="59.8437732" lon="17.646903">
        <ele>0</ele>
        <time>2014-05-25T10:47:48Z</time>
      </trkpt>
      <trkpt lat="59.8437635" lon="17.6468432">
        <ele>0</ele>
        <time>2014-05-25T10:47:49Z</time>
      </trkpt>
      <trkpt lat="59.8437674" lon="17.6467963">
        <ele>0</ele>
        <time>2014-05-25T10:47:50Z</time>
      </trkpt>
      <trkpt lat="59.843781" lon="17.646758">
        <ele>0</ele>
        <time>2014-05-25T10:47:51Z</time>
      </trkpt>
      <trkpt lat="59.8437915" lon="17.6467275">
        <ele>0</ele>
        <time>2014-05-25T10:47:52Z</time>
      </trkpt>
      <trkpt lat="59.8437965" lon="17.6466905">
        <ele>0</ele>
        <time>2014-05-25T10:47:53Z</time>
      </trkpt>
      <trkpt lat="59.8438065" lon="17.6466519">
        <ele>0</ele>
        <time>2014-05-25T10:47:54Z</time>
      </trkpt>
      <trkpt lat="59.8438194" lon="17.646616">
        <ele>0</ele>
        <time>2014-05-25T10:47:55Z</time>
      </trkpt>
      <trkpt lat="59.8438356" lon="17.6465814">
        <ele>0</ele>
        <time>2014-05-25T10:47:56Z</time>
      </trkpt>
      <trkpt lat="59.8438475" lon="17.6465563">
        <ele>1.09863</ele>
        <time>2014-05-25T10:47:57Z</time>
      </trkpt>
      <trkpt lat="59.8438566" lon="17.6465294">
        <ele>2.06006</ele>
        <time>2014-05-25T10:47:58Z</time>
      </trkpt>
      <trkpt lat="59.8438727" lon="17.6465036">
        <ele>2.54065</ele>
        <time>2014-05-25T10:47:59Z</time>
      </trkpt>
      <trkpt lat="59.843883" lon="17.6464785">
        <ele>3.98267</ele>
        <time>2014-05-25T10:48:00Z</time>
      </trkpt>
      <trkpt lat="59.8438976" lon="17.6464626">
        <ele>5.42456</ele>
        <time>2014-05-25T10:48:01Z</time>
      </trkpt>
      <trkpt lat="59.8439169" lon="17.6464461">
        <ele>6.38586</ele>
        <time>2014-05-25T10:48:02Z</time>
      </trkpt>
      <trkpt lat="59.8439353" lon="17.6464258">
        <ele>7.82788</ele>
        <time>2014-05-25T10:48:03Z</time>
      </trkpt>
      <trkpt lat="59.8439515" lon="17.6464057">
        <ele>9.2699</ele>
        <time>2014-05-25T10:48:04Z</time>
      </trkpt>
      <trkpt lat="59.8439678" lon="17.6463894">
        <ele>10.2312</ele>
        <time>2014-05-25T10:48:05Z</time>
      </trkpt>
      <trkpt lat="59.8439886" lon="17.6463755">
        <ele>11.6732</ele>
        <time>2014-05-25T10:48:06Z</time>
      </trkpt>
      <trkpt lat="59.8440064" lon="17.6463589">
        <ele>13.1151</ele>
        <time>2014-05-25T10:48:07Z</time>
      </trkpt>
      <trkpt lat="59.8440224" lon="17.6463394">
        <ele>14.0764</ele>
        <time>2014-05-25T10:48:08Z</time>
      </trkpt>
      <trkpt lat="59.8440395" lon="17.6463217">
        <ele>14.557</ele>
        <time>2014-05-25T10:48:09Z</time>
      </trkpt>
      <trkpt lat="59.8440557" lon="17.6463005">
        <ele>15.0377</ele>
        <time>2014-05-25T10:48:10Z</time>
      </trkpt>
      <trkpt lat="59.8440691" lon="17.6462818">
        <ele>15.5184</ele>
        <time>2014-05-25T10:48:11Z</time>
      </trkpt>
      <trkpt lat="59.8440834" lon="17.6462612">
        <ele>15.999</ele>
        <time>2014-05-25T10:48:12Z</time>
      </trkpt>
      <trkpt lat="59.8441001" lon="17.6462286">
        <ele>16.4797</ele>
        <time>2014-05-25T10:48:13Z</time>
      </trkpt>
      <trkpt lat="59.8441157" lon="17.6461971">
        <ele>16.9604</ele>
        <time>2014-05-25T10:48:14Z</time>
      </trkpt>
      <trkpt lat="59.8441343" lon="17.6461654">
        <ele>17.4412</ele>
        <time>2014-05-25T10:48:15Z</time>
      </trkpt>
      <trkpt lat="59.8441495" lon="17.6461328">
        <ele>17.9218</ele>
        <time>2014-05-25T10:48:16Z</time>
      </trkpt>
      <trkpt lat="59.844169" lon="17.6461011">
        <ele>18.4023</ele>
        <time>2014-05-25T10:48:17Z</time>
      </trkpt>
      <trkpt lat="59.8441845" lon="17.646069">
        <ele>19.3638</ele>
        <time>2014-05-25T10:48:18Z</time>
      </trkpt>
      <trkpt lat="59.8441944" lon="17.6460422">
        <ele>19.8444</ele>
        <time>2014-05-25T10:48:19Z</time>
      </trkpt>
      <trkpt lat="59.844212" lon="17.6460219">
        <ele>20.325</ele>
        <time>2014-05-25T10:48:20Z</time>
      </trkpt>
      <trkpt lat="59.8442316" lon="17.6459961">
        <ele>20.8057</ele>
        <time>2014-05-25T10:48:21Z</time>
      </trkpt>
      <trkpt lat="59.8442473" lon="17.6459593">
        <ele>20.325</ele>
        <time>2014-05-25T10:48:22Z</time>
      </trkpt>
      <trkpt lat="59.8442662" lon="17.6459297">
        <ele>20.8057</ele>
        <time>2014-05-25T10:48:23Z</time>
      </trkpt>
      <trkpt lat="59.8442828" lon="17.6458956">
        <ele>20.325</ele>
        <time>2014-05-25T10:48:24Z</time>
      </trkpt>
      <trkpt lat="59.8442949" lon="17.6458595">
        <ele>20.8057</ele>
        <time>2014-05-25T10:48:25Z</time>
      </trkpt>
      <trkpt lat="59.8443092" lon="17.6458359">
        <ele>21.767</ele>
        <time>2014-05-25T10:48:26Z</time>
      </trkpt>
      <trkpt lat="59.8443193" lon="17.6458046">
        <ele>21.767</ele>
        <time>2014-05-25T10:48:27Z</time>
      </trkpt>
      <trkpt lat="59.8443338" lon="17.6457696">
        <ele>21.767</ele>
        <time>2014-05-25T10:48:28Z</time>
      </trkpt>
      <trkpt lat="59.8443499" lon="17.6457344">
        <ele>21.767</ele>
        <time>2014-05-25T10:48:29Z</time>
      </trkpt>
      <trkpt lat="59.8443669" lon="17.6456964">
        <ele>21.2864</ele>
        <time>2014-05-25T10:48:30Z</time>
      </trkpt>
      <trkpt lat="59.8443825" lon="17.645658">
        <ele>21.2864</ele>
        <time>2014-05-25T10:48:31Z</time>
      </trkpt>
      <trkpt lat="59.8443944" lon="17.6456246">
        <ele>21.2864</ele>
        <time>2014-05-25T10:48:32Z</time>
      </trkpt>
      <trkpt lat="59.8444056" lon="17.6456042">
        <ele>20.8057</ele>
        <time>2014-05-25T10:48:33Z</time>
      </trkpt>
      <trkpt lat="59.8444137" lon="17.6455847">
        <ele>20.8057</ele>
        <time>2014-05-25T10:48:34Z</time>
      </trkpt>
      <trkpt lat="59.844424" lon="17.6455689">
        <ele>20.8057</ele>
        <time>2014-05-25T10:48:35Z</time>
      </trkpt>
      <trkpt lat="59.8444351" lon="17.6455479">
        <ele>21.2864</ele>
        <time>2014-05-25T10:48:36Z</time>
      </trkpt>
      <trkpt lat="59.8444498" lon="17.6455132">
        <ele>21.2864</ele>
        <time>2014-05-25T10:48:37Z</time>
      </trkpt>
      <trkpt lat="59.8444649" lon="17.645485">
        <ele>21.767</ele>
        <time>2014-05-25T10:48:38Z</time>
      </trkpt>
      <trkpt lat="59.8444824" lon="17.6454548">
        <ele>21.2864</ele>
        <time>2014-05-25T10:48:39Z</time>
      </trkpt>
      <trkpt lat="59.8445009" lon="17.6454266">
        <ele>21.2864</ele>
        <time>2014-05-25T10:48:40Z</time>
      </trkpt>
      <trkpt lat="59.8445198" lon="17.6453961">
        <ele>20.8057</ele>
        <time>2014-05-25T10:48:41Z</time>
      </trkpt>
      <trkpt lat="59.844539" lon="17.6453661">
        <ele>21.2864</ele>
        <time>2014-05-25T10:48:42Z</time>
      </trkpt>
      <trkpt lat="59.844559" lon="17.6453479">
        <ele>21.2864</ele>
        <time>2014-05-25T10:48:43Z</time>
      </trkpt>
      <trkpt lat="59.8445803" lon="17.6453318">
        <ele>21.767</ele>
        <time>2014-05-25T10:48:44Z</time>
      </trkpt>
      <trkpt lat="59.8445985" lon="17.6453131">
        <ele>21.767</ele>
        <time>2014-05-25T10:48:45Z</time>
      </trkpt>
      <trkpt lat="59.8446152" lon="17.645292">
        <ele>22.2476</ele>
        <time>2014-05-25T10:48:46Z</time>
      </trkpt>
      <trkpt lat="59.844629" lon="17.6452795">
        <ele>22.2476</ele>
        <time>2014-05-25T10:48:47Z</time>
      </trkpt>
      <trkpt lat="59.8446447" lon="17.6452656">
        <ele>22.2476</ele>
        <time>2014-05-25T10:48:48Z</time>
      </trkpt>
      <trkpt lat="59.8446643" lon="17.6452519">
        <ele>22.2476</ele>
        <time>2014-05-25T10:48:49Z</time>
      </trkpt>
      <trkpt lat="59.8446855" lon="17.64524">
        <ele>22.2476</ele>
        <time>2014-05-25T10:48:50Z</time>
      </trkpt>
      <trkpt lat="59.8447031" lon="17.6452319">
        <ele>22.7283</ele>
        <time>2014-05-25T10:48:51Z</time>
      </trkpt>
      <trkpt lat="59.8447202" lon="17.6452224">
        <ele>23.209</ele>
        <time>2014-05-25T10:48:52Z</time>
      </trkpt>
      <trkpt lat="59.8447407" lon="17.6452112">
        <ele>23.209</ele>
        <time>2014-05-25T10:48:53Z</time>
      </trkpt>
      <trkpt lat="59.8447616" lon="17.6451976">
        <ele>23.6896</ele>
        <time>2014-05-25T10:48:54Z</time>
      </trkpt>
      <trkpt lat="59.8447811" lon="17.6451863">
        <ele>23.6896</ele>
        <time>2014-05-25T10:48:55Z</time>
      </trkpt>
      <trkpt lat="59.844801" lon="17.6451766">
        <ele>24.1703</ele>
        <time>2014-05-25T10:48:56Z</time>
      </trkpt>
      <trkpt lat="59.8448179" lon="17.645169">
        <ele>23.6896</ele>
        <time>2014-05-25T10:48:57Z</time>
      </trkpt>
      <trkpt lat="59.8448373" lon="17.6451588">
        <ele>24.651</ele>
        <time>2014-05-25T10:48:58Z</time>
      </trkpt>
      <trkpt lat="59.8448574" lon="17.6451438">
        <ele>24.651</ele>
        <time>2014-05-25T10:48:59Z</time>
      </trkpt>
      <trkpt lat="59.8448768" lon="17.6451345">
        <ele>25.1317</ele>
        <time>2014-05-25T10:49:00Z</time>
      </trkpt>
      <trkpt lat="59.8448943" lon="17.6451242">
        <ele>24.651</ele>
        <time>2014-05-25T10:49:01Z</time>
      </trkpt>
      <trkpt lat="59.8449139" lon="17.6451143">
        <ele>24.651</ele>
        <time>2014-05-25T10:49:02Z</time>
      </trkpt>
      <trkpt lat="59.8449316" lon="17.6451091">
        <ele>24.651</ele>
        <time>2014-05-25T10:49:03Z</time>
      </trkpt>
      <trkpt lat="59.8449508" lon="17.6451102">
        <ele>24.651</ele>
        <time>2014-05-25T10:49:04Z</time>
      </trkpt>
      <trkpt lat="59.8449699" lon="17.6451185">
        <ele>24.651</ele>
        <time>2014-05-25T10:49:05Z</time>
      </trkpt>
      <trkpt lat="59.8449904" lon="17.6451283">
        <ele>24.1703</ele>
        <time>2014-05-25T10:49:06Z</time>
      </trkpt>
      <trkpt lat="59.8450108" lon="17.6451398">
        <ele>24.1703</ele>
        <time>2014-05-25T10:49:07Z</time>
      </trkpt>
      <trkpt lat="59.8450264" lon="17.6451553">
        <ele>23.6896</ele>
        <time>2014-05-25T10:49:08Z</time>
      </trkpt>
      <trkpt lat="59.8450417" lon="17.6451723">
        <ele>23.6896</ele>
        <time>2014-05-25T10:49:09Z</time>
      </trkpt>
      <trkpt lat="59.8450552" lon="17.6451872">
        <ele>23.209</ele>
        <time>2014-05-25T10:49:10Z</time>
      </trkpt>
      <trkpt lat="59.8450678" lon="17.6452089">
        <ele>22.7283</ele>
        <time>2014-05-25T10:49:11Z</time>
      </trkpt>
      <trkpt lat="59.8450818" lon="17.6452284">
        <ele>22.7283</ele>
        <time>2014-05-25T10:49:12Z</time>
      </trkpt>
      <trkpt lat="59.8450993" lon="17.645236">
        <ele>23.209</ele>
        <time>2014-05-25T10:49:13Z</time>
      </trkpt>
      <trkpt lat="59.8451222" lon="17.6452416">
        <ele>23.209</ele>
        <time>2014-05-25T10:49:14Z</time>
      </trkpt>
      <trkpt lat="59.8451444" lon="17.6452552">
        <ele>22.7283</ele>
        <time>2014-05-25T10:49:15Z</time>
      </trkpt>
      <trkpt lat="59.8451646" lon="17.6452707">
        <ele>22.2476</ele>
        <time>2014-05-25T10:49:16Z</time>
      </trkpt>
      <trkpt lat="59.845185" lon="17.6452791">
        <ele>22.7283</ele>
        <time>2014-05-25T10:49:17Z</time>
      </trkpt>
      <trkpt lat="59.8452069" lon="17.6452842">
        <ele>22.7283</ele>
        <time>2014-05-25T10:49:18Z</time>
      </trkpt>
      <trkpt lat="59.8452315" lon="17.6452925">
        <ele>23.209</ele>
        <time>2014-05-25T10:49:19Z</time>
      </trkpt>
      <trkpt lat="59.8452641" lon="17.6452995">
        <ele>24.1703</ele>
        <time>2014-05-25T10:49:20Z</time>
      </trkpt>
      <trkpt lat="59.8452853" lon="17.645306">
        <ele>24.1703</ele>
        <time>2014-05-25T10:49:21Z</time>
      </trkpt>
      <trkpt lat="59.8453067" lon="17.6453221">
        <ele>24.1703</ele>
        <time>2014-05-25T10:49:22Z</time>
      </trkpt>
      <trkpt lat="59.8453237" lon="17.6453327">
        <ele>24.651</ele>
        <time>2014-05-25T10:49:23Z</time>
      </trkpt>
      <trkpt lat="59.8453413" lon="17.6453339">
        <ele>24.1703</ele>
        <time>2014-05-25T10:49:24Z</time>
      </trkpt>
      <trkpt lat="59.8453688" lon="17.6453415">
        <ele>25.1317</ele>
        <time>2014-05-25T10:49:25Z</time>
      </trkpt>
      <trkpt lat="59.8454007" lon="17.6453448">
        <ele>26.0929</ele>
        <time>2014-05-25T10:49:26Z</time>
      </trkpt>
      <trkpt lat="59.8454305" lon="17.6453418">
        <ele>26.5736</ele>
        <time>2014-05-25T10:49:27Z</time>
      </trkpt>
      <trkpt lat="59.8454608" lon="17.6453432">
        <ele>28.0155</ele>
        <time>2014-05-25T10:49:28Z</time>
      </trkpt>
      <trkpt lat="59.8454878" lon="17.6453376">
        <ele>28.0155</ele>
        <time>2014-05-25T10:49:29Z</time>
      </trkpt>
      <trkpt lat="59.8455155" lon="17.6453358">
        <ele>28.4962</ele>
        <time>2014-05-25T10:49:30Z</time>
      </trkpt>
      <trkpt lat="59.8455402" lon="17.6453317">
        <ele>28.4962</ele>
        <time>2014-05-25T10:49:31Z</time>
      </trkpt>
      <trkpt lat="59.8455655" lon="17.6453314">
        <ele>28.9769</ele>
        <time>2014-05-25T10:49:32Z</time>
      </trkpt>
      <trkpt lat="59.8455846" lon="17.6453226">
        <ele>29.4575</ele>
        <time>2014-05-25T10:49:33Z</time>
      </trkpt>
      <trkpt lat="59.8456064" lon="17.6453112">
        <ele>29.9381</ele>
        <time>2014-05-25T10:49:34Z</time>
      </trkpt>
      <trkpt lat="59.8456324" lon="17.6453112">
        <ele>30.4188</ele>
        <time>2014-05-25T10:49:35Z</time>
      </trkpt>
      <trkpt lat="59.8456527" lon="17.6453069">
        <ele>30.4188</ele>
        <time>2014-05-25T10:49:36Z</time>
      </trkpt>
      <trkpt lat="59.8456748" lon="17.645298">
        <ele>31.3801</ele>
        <time>2014-05-25T10:49:37Z</time>
      </trkpt>
      <trkpt lat="59.8457043" lon="17.6452885">
        <ele>32.8223</ele>
        <time>2014-05-25T10:49:38Z</time>
      </trkpt>
      <trkpt lat="59.8457288" lon="17.6452833">
        <ele>33.3029</ele>
        <time>2014-05-25T10:49:39Z</time>
      </trkpt>
      <trkpt lat="59.8457573" lon="17.6452796">
        <ele>34.2642</ele>
        <time>2014-05-25T10:49:40Z</time>
      </trkpt>
      <trkpt lat="59.8457837" lon="17.6452783">
        <ele>35.2255</ele>
        <time>2014-05-25T10:49:41Z</time>
      </trkpt>
      <trkpt lat="59.8458044" lon="17.6452717">
        <ele>35.2255</ele>
        <time>2014-05-25T10:49:42Z</time>
      </trkpt>
      <trkpt lat="59.8458256" lon="17.6452636">
        <ele>35.2255</ele>
        <time>2014-05-25T10:49:43Z</time>
      </trkpt>
      <trkpt lat="59.8458453" lon="17.6452651">
        <ele>35.2255</ele>
        <time>2014-05-25T10:49:44Z</time>
      </trkpt>
      <trkpt lat="59.8458625" lon="17.6452675">
        <ele>35.2255</ele>
        <time>2014-05-25T10:49:45Z</time>
      </trkpt>
      <trkpt lat="59.8458824" lon="17.6452698">
        <ele>35.7061</ele>
        <time>2014-05-25T10:49:46Z</time>
      </trkpt>
      <trkpt lat="59.8458971" lon="17.645275">
        <ele>35.7061</ele>
        <time>2014-05-25T10:49:47Z</time>
      </trkpt>
      <trkpt lat="59.8459084" lon="17.6452752">
        <ele>35.2255</ele>
        <time>2014-05-25T10:49:48Z</time>
      </trkpt>
      <trkpt lat="59.8459221" lon="17.645277">
        <ele>35.2255</ele>
        <time>2014-05-25T10:49:49Z</time>
      </trkpt>
      <trkpt lat="59.845937" lon="17.6452785">
        <ele>34.7449</ele>
        <time>2014-05-25T10:49:50Z</time>
      </trkpt>
      <trkpt lat="59.8459572" lon="17.6452762">
        <ele>35.2255</ele>
        <time>2014-05-25T10:49:51Z</time>
      </trkpt>
      <trkpt lat="59.8459773" lon="17.645264">
        <ele>35.2255</ele>
        <time>2014-05-25T10:49:52Z</time>
      </trkpt>
      <trkpt lat="59.8459974" lon="17.6452506">
        <ele>35.7061</ele>
        <time>2014-05-25T10:49:53Z</time>
      </trkpt>
      <trkpt lat="59.8460167" lon="17.6452349">
        <ele>35.7061</ele>
        <time>2014-05-25T10:49:54Z</time>
      </trkpt>
      <trkpt lat="59.8460349" lon="17.6452133">
        <ele>35.2255</ele>
        <time>2014-05-25T10:49:55Z</time>
      </trkpt>
      <trkpt lat="59.8460567" lon="17.6451935">
        <ele>35.2255</ele>
        <time>2014-05-25T10:49:56Z</time>
      </trkpt>
      <trkpt lat="59.8460775" lon="17.6451703">
        <ele>35.2255</ele>
        <time>2014-05-25T10:49:57Z</time>
      </trkpt>
      <trkpt lat="59.8460997" lon="17.6451465">
        <ele>36.1868</ele>
        <time>2014-05-25T10:49:58Z</time>
      </trkpt>
      <trkpt lat="59.8461186" lon="17.6451226">
        <ele>36.1868</ele>
        <time>2014-05-25T10:49:59Z</time>
      </trkpt>
      <trkpt lat="59.8461419" lon="17.6450993">
        <ele>36.1868</ele>
        <time>2014-05-25T10:50:00Z</time>
      </trkpt>
      <trkpt lat="59.8461604" lon="17.6450825">
        <ele>35.7061</ele>
        <time>2014-05-25T10:50:01Z</time>
      </trkpt>
      <trkpt lat="59.8461763" lon="17.6450624">
        <ele>35.7061</ele>
        <time>2014-05-25T10:50:02Z</time>
      </trkpt>
      <trkpt lat="59.8461924" lon="17.6450338">
        <ele>35.7061</ele>
        <time>2014-05-25T10:50:03Z</time>
      </trkpt>
      <trkpt lat="59.8462122" lon="17.6450039">
        <ele>35.7061</ele>
        <time>2014-05-25T10:50:04Z</time>
      </trkpt>
      <trkpt lat="59.8462308" lon="17.6449847">
        <ele>35.7061</ele>
        <time>2014-05-25T10:50:05Z</time>
      </trkpt>
      <trkpt lat="59.8462469" lon="17.6449675">
        <ele>35.7061</ele>
        <time>2014-05-25T10:50:06Z</time>
      </trkpt>
      <trkpt lat="59.8462633" lon="17.6449354">
        <ele>35.7061</ele>
        <time>2014-05-25T10:50:07Z</time>
      </trkpt>
      <trkpt lat="59.8462794" lon="17.6448968">
        <ele>35.7061</ele>
        <time>2014-05-25T10:50:08Z</time>
      </trkpt>
      <trkpt lat="59.8462987" lon="17.6448694">
        <ele>35.7061</ele>
        <time>2014-05-25T10:50:09Z</time>
      </trkpt>
      <trkpt lat="59.8463172" lon="17.6448392">
        <ele>35.7061</ele>
        <time>2014-05-25T10:50:10Z</time>
      </trkpt>
      <trkpt lat="59.8463337" lon="17.6448209">
        <ele>35.2255</ele>
        <time>2014-05-25T10:50:11Z</time>
      </trkpt>
      <trkpt lat="59.8463507" lon="17.6447926">
        <ele>35.2255</ele>
        <time>2014-05-25T10:50:12Z</time>
      </trkpt>
      <trkpt lat="59.8463693" lon="17.6447614">
        <ele>35.2255</ele>
        <time>2014-05-25T10:50:13Z</time>
      </trkpt>
      <trkpt lat="59.8463928" lon="17.6447321">
        <ele>35.7061</ele>
        <time>2014-05-25T10:50:14Z</time>
      </trkpt>
      <trkpt lat="59.8464214" lon="17.6447014">
        <ele>35.7061</ele>
        <time>2014-05-25T10:50:15Z</time>
      </trkpt>
      <trkpt lat="59.846446" lon="17.6446662">
        <ele>35.7061</ele>
        <time>2014-05-25T10:50:16Z</time>
      </trkpt>
      <trkpt lat="59.8464699" lon="17.6446257">
        <ele>36.1868</ele>
        <time>2014-05-25T10:50:17Z</time>
      </trkpt>
      <trkpt lat="59.8464847" lon="17.6445876">
        <ele>35.7061</ele>
        <time>2014-05-25T10:50:18Z</time>
      </trkpt>
      <trkpt lat="59.846502" lon="17.6445663">
        <ele>35.2255</ele>
        <time>2014-05-25T10:50:19Z</time>
      </trkpt>
      <trkpt lat="59.8465234" lon="17.6445425">
        <ele>35.2255</ele>
        <time>2014-05-25T10:50:20Z</time>
      </trkpt>
      <trkpt lat="59.8465468" lon="17.6445186">
        <ele>34.7449</ele>
        <time>2014-05-25T10:50:21Z</time>
      </trkpt>
      <trkpt lat="59.8465662" lon="17.6444756">
        <ele>34.2642</ele>
        <time>2014-05-25T10:50:22Z</time>
      </trkpt>
      <trkpt lat="59.8465897" lon="17.6444466">
        <ele>34.2642</ele>
        <time>2014-05-25T10:50:23Z</time>
      </trkpt>
      <trkpt lat="59.8466141" lon="17.6444304">
        <ele>34.2642</ele>
        <time>2014-05-25T10:50:24Z</time>
      </trkpt>
      <trkpt lat="59.8466431" lon="17.6444249">
        <ele>35.2255</ele>
        <time>2014-05-25T10:50:25Z</time>
      </trkpt>
      <trkpt lat="59.8466696" lon="17.6444135">
        <ele>35.7061</ele>
        <time>2014-05-25T10:50:26Z</time>
      </trkpt>
      <trkpt lat="59.8466946" lon="17.6444004">
        <ele>35.7061</ele>
        <time>2014-05-25T10:50:27Z</time>
      </trkpt>
      <trkpt lat="59.8467234" lon="17.6443915">
        <ele>36.6675</ele>
        <time>2014-05-25T10:50:28Z</time>
      </trkpt>
      <trkpt lat="59.8467553" lon="17.6443842">
        <ele>37.6287</ele>
        <time>2014-05-25T10:50:29Z</time>
      </trkpt>
      <trkpt lat="59.8467845" lon="17.6443824">
        <ele>38.1094</ele>
        <time>2014-05-25T10:50:30Z</time>
      </trkpt>
      <trkpt lat="59.8468114" lon="17.6443792">
        <ele>38.5901</ele>
        <time>2014-05-25T10:50:31Z</time>
      </trkpt>
      <trkpt lat="59.8468388" lon="17.6443756">
        <ele>38.1094</ele>
        <time>2014-05-25T10:50:32Z</time>
      </trkpt>
      <trkpt lat="59.8468687" lon="17.6443755">
        <ele>38.1094</ele>
        <time>2014-05-25T10:50:33Z</time>
      </trkpt>
      <trkpt lat="59.8468985" lon="17.6443844">
        <ele>38.5901</ele>
        <time>2014-05-25T10:50:34Z</time>
      </trkpt>
      <trkpt lat="59.846929" lon="17.6443918">
        <ele>38.5901</ele>
        <time>2014-05-25T10:50:35Z</time>
      </trkpt>
      <trkpt lat="59.8469573" lon="17.644401">
        <ele>38.5901</ele>
        <time>2014-05-25T10:50:36Z</time>
      </trkpt>
      <trkpt lat="59.8469839" lon="17.6444091">
        <ele>38.5901</ele>
        <time>2014-05-25T10:50:37Z</time>
      </trkpt>
      <trkpt lat="59.847006" lon="17.6444155">
        <ele>38.5901</ele>
        <time>2014-05-25T10:50:38Z</time>
      </trkpt>
      <trkpt lat="59.8470324" lon="17.6444236">
        <ele>38.5901</ele>
        <time>2014-05-25T10:50:39Z</time>
      </trkpt>
      <trkpt lat="59.8470601" lon="17.6444291">
        <ele>38.5901</ele>
        <time>2014-05-25T10:50:40Z</time>
      </trkpt>
      <trkpt lat="59.8470885" lon="17.6444281">
        <ele>38.1094</ele>
        <time>2014-05-25T10:50:41Z</time>
      </trkpt>
      <trkpt lat="59.8471143" lon="17.6444293">
        <ele>37.6287</ele>
        <time>2014-05-25T10:50:42Z</time>
      </trkpt>
      <trkpt lat="59.8471388" lon="17.6444353">
        <ele>37.1481</ele>
        <time>2014-05-25T10:50:43Z</time>
      </trkpt>
      <trkpt lat="59.8471612" lon="17.6444407">
        <ele>36.6675</ele>
        <time>2014-05-25T10:50:44Z</time>
      </trkpt>
      <trkpt lat="59.8471895" lon="17.6444452">
        <ele>36.6675</ele>
        <time>2014-05-25T10:50:45Z</time>
      </trkpt>
      <trkpt lat="59.8472128" lon="17.6444575">
        <ele>36.1868</ele>
        <time>2014-05-25T10:50:46Z</time>
      </trkpt>
      <trkpt lat="59.8472357" lon="17.6444652">
        <ele>35.2255</ele>
        <time>2014-05-25T10:50:47Z</time>
      </trkpt>
      <trkpt lat="59.8472641" lon="17.6444716">
        <ele>35.2255</ele>
        <time>2014-05-25T10:50:48Z</time>
      </trkpt>
      <trkpt lat="59.8472945" lon="17.64449">
        <ele>34.7449</ele>
        <time>2014-05-25T10:50:49Z</time>
      </trkpt>
      <trkpt lat="59.847333" lon="17.644502">
        <ele>34.7449</ele>
        <time>2014-05-25T10:50:50Z</time>
      </trkpt>
      <trkpt lat="59.8473703" lon="17.6445117">
        <ele>35.2255</ele>
        <time>2014-05-25T10:50:51Z</time>
      </trkpt>
      <trkpt lat="59.8474004" lon="17.6445182">
        <ele>35.2255</ele>
        <time>2014-05-25T10:50:52Z</time>
      </trkpt>
      <trkpt lat="59.8474393" lon="17.6445216">
        <ele>35.2255</ele>
        <time>2014-05-25T10:50:53Z</time>
      </trkpt>
      <trkpt lat="59.8474667" lon="17.644533">
        <ele>33.7834</ele>
        <time>2014-05-25T10:50:54Z</time>
      </trkpt>
      <trkpt lat="59.8474837" lon="17.6445427">
        <ele>31.8607</ele>
        <time>2014-05-25T10:50:55Z</time>
      </trkpt>
      <trkpt lat="59.8475062" lon="17.6445547">
        <ele>30.8995</ele>
        <time>2014-05-25T10:50:56Z</time>
      </trkpt>
      <trkpt lat="59.8475294" lon="17.6445557">
        <ele>29.4575</ele>
        <time>2014-05-25T10:50:57Z</time>
      </trkpt>
      <trkpt lat="59.8475521" lon="17.6445481">
        <ele>28.0155</ele>
        <time>2014-05-25T10:50:58Z</time>
      </trkpt>
      <trkpt lat="59.847576" lon="17.6445507">
        <ele>26.0929</ele>
        <time>2014-05-25T10:50:59Z</time>
      </trkpt>
      <trkpt lat="59.8476045" lon="17.6445469">
        <ele>25.6123</ele>
        <time>2014-05-25T10:51:00Z</time>
      </trkpt>
      <trkpt lat="59.847634" lon="17.6445332">
        <ele>26.0929</ele>
        <time>2014-05-25T10:51:01Z</time>
      </trkpt>
      <trkpt lat="59.8476592" lon="17.6445132">
        <ele>26.5736</ele>
        <time>2014-05-25T10:51:02Z</time>
      </trkpt>
      <trkpt lat="59.8476763" lon="17.6445031">
        <ele>25.6123</ele>
        <time>2014-05-25T10:51:03Z</time>
      </trkpt>
      <trkpt lat="59.8476987" lon="17.6444879">
        <ele>25.1317</ele>
        <time>2014-05-25T10:51:04Z</time>
      </trkpt>
      <trkpt lat="59.8477205" lon="17.6444751">
        <ele>24.1703</ele>
        <time>2014-05-25T10:51:05Z</time>
      </trkpt>
      <trkpt lat="59.8477488" lon="17.644457">
        <ele>24.651</ele>
        <time>2014-05-25T10:51:06Z</time>
      </trkpt>
      <trkpt lat="59.8477677" lon="17.644454">
        <ele>24.1703</ele>
        <time>2014-05-25T10:51:07Z</time>
      </trkpt>
      <trkpt lat="59.8477944" lon="17.6444438">
        <ele>24.1703</ele>
        <time>2014-05-25T10:51:08Z</time>
      </trkpt>
      <trkpt lat="59.8478205" lon="17.644421">
        <ele>23.6896</ele>
        <time>2014-05-25T10:51:09Z</time>
      </trkpt>
      <trkpt lat="59.847851" lon="17.6444022">
        <ele>23.6896</ele>
        <time>2014-05-25T10:51:10Z</time>
      </trkpt>
      <trkpt lat="59.8478801" lon="17.6443886">
        <ele>24.1703</ele>
        <time>2014-05-25T10:51:11Z</time>
      </trkpt>
      <trkpt lat="59.8479061" lon="17.6443721">
        <ele>23.6896</ele>
        <time>2014-05-25T10:51:12Z</time>
      </trkpt>
      <trkpt lat="59.8479262" lon="17.6443504">
        <ele>23.209</ele>
        <time>2014-05-25T10:51:13Z</time>
      </trkpt>
      <trkpt lat="59.8479526" lon="17.6443228">
        <ele>22.7283</ele>
        <time>2014-05-25T10:51:14Z</time>
      </trkpt>
      <trkpt lat="59.8479773" lon="17.6442933">
        <ele>22.2476</ele>
        <time>2014-05-25T10:51:15Z</time>
      </trkpt>
      <trkpt lat="59.848009" lon="17.644259">
        <ele>21.767</ele>
        <time>2014-05-25T10:51:16Z</time>
      </trkpt>
      <trkpt lat="59.8480422" lon="17.6442288">
        <ele>21.767</ele>
        <time>2014-05-25T10:51:17Z</time>
      </trkpt>
      <trkpt lat="59.8480686" lon="17.6442041">
        <ele>21.2864</ele>
        <time>2014-05-25T10:51:18Z</time>
      </trkpt>
      <trkpt lat="59.8480996" lon="17.6441744">
        <ele>20.325</ele>
        <time>2014-05-25T10:51:19Z</time>
      </trkpt>
      <trkpt lat="59.8481347" lon="17.6441534">
        <ele>19.8444</ele>
        <time>2014-05-25T10:51:20Z</time>
      </trkpt>
      <trkpt lat="59.8481655" lon="17.6441299">
        <ele>19.3638</ele>
        <time>2014-05-25T10:51:21Z</time>
      </trkpt>
      <trkpt lat="59.8481976" lon="17.644112">
        <ele>18.8831</ele>
        <time>2014-05-25T10:51:22Z</time>
      </trkpt>
      <trkpt lat="59.8482301" lon="17.6440959">
        <ele>17.9218</ele>
        <time>2014-05-25T10:51:23Z</time>
      </trkpt>
      <trkpt lat="59.8482682" lon="17.644074">
        <ele>17.9218</ele>
        <time>2014-05-25T10:51:24Z</time>
      </trkpt>
      <trkpt lat="59.8482991" lon="17.644046">
        <ele>17.4412</ele>
        <time>2014-05-25T10:51:25Z</time>
      </trkpt>
      <trkpt lat="59.8483279" lon="17.6440136">
        <ele>16.9604</ele>
        <time>2014-05-25T10:51:26Z</time>
      </trkpt>
      <trkpt lat="59.8483621" lon="17.6439943">
        <ele>15.999</ele>
        <time>2014-05-25T10:51:27Z</time>
      </trkpt>
      <trkpt lat="59.8483943" lon="17.6439927">
        <ele>15.0377</ele>
        <time>2014-05-25T10:51:28Z</time>
      </trkpt>
      <trkpt lat="59.8484224" lon="17.6439991">
        <ele>13.5958</ele>
        <time>2014-05-25T10:51:29Z</time>
      </trkpt>
      <trkpt lat="59.8484551" lon="17.6440051">
        <ele>12.6344</ele>
        <time>2014-05-25T10:51:30Z</time>
      </trkpt>
      <trkpt lat="59.8484918" lon="17.6440085">
        <ele>12.1538</ele>
        <time>2014-05-25T10:51:31Z</time>
      </trkpt>
      <trkpt lat="59.8485281" lon="17.6440129">
        <ele>11.1925</ele>
        <time>2014-05-25T10:51:32Z</time>
      </trkpt>
      <trkpt lat="59.8485612" lon="17.6440187">
        <ele>10.7118</ele>
        <time>2014-05-25T10:51:33Z</time>
      </trkpt>
      <trkpt lat="59.8485903" lon="17.6440252">
        <ele>10.7118</ele>
        <time>2014-05-25T10:51:34Z</time>
      </trkpt>
      <trkpt lat="59.8486228" lon="17.6440327">
        <ele>9.75061</ele>
        <time>2014-05-25T10:51:35Z</time>
      </trkpt>
      <trkpt lat="59.8486592" lon="17.6440387">
        <ele>10.2312</ele>
        <time>2014-05-25T10:51:36Z</time>
      </trkpt>
      <trkpt lat="59.8486892" lon="17.6440413">
        <ele>9.2699</ele>
        <time>2014-05-25T10:51:37Z</time>
      </trkpt>
      <trkpt lat="59.848723" lon="17.6440471">
        <ele>8.78918</ele>
        <time>2014-05-25T10:51:38Z</time>
      </trkpt>
      <trkpt lat="59.848754" lon="17.6440566">
        <ele>9.2699</ele>
        <time>2014-05-25T10:51:39Z</time>
      </trkpt>
      <trkpt lat="59.8487823" lon="17.6440636">
        <ele>9.2699</ele>
        <time>2014-05-25T10:51:40Z</time>
      </trkpt>
      <trkpt lat="59.8488129" lon="17.6440695">
        <ele>9.2699</ele>
        <time>2014-05-25T10:51:41Z</time>
      </trkpt>
      <trkpt lat="59.8488447" lon="17.6440715">
        <ele>9.75061</ele>
        <time>2014-05-25T10:51:42Z</time>
      </trkpt>
      <trkpt lat="59.8488731" lon="17.6440696">
        <ele>9.2699</ele>
        <time>2014-05-25T10:51:43Z</time>
      </trkpt>
      <trkpt lat="59.8489037" lon="17.6440642">
        <ele>9.75061</ele>
        <time>2014-05-25T10:51:44Z</time>
      </trkpt>
      <trkpt lat="59.8489319" lon="17.6440698">
        <ele>9.75061</ele>
        <time>2014-05-25T10:51:45Z</time>
      </trkpt>
      <trkpt lat="59.8489601" lon="17.6440783">
        <ele>10.2312</ele>
        <time>2014-05-25T10:51:46Z</time>
      </trkpt>
      <trkpt lat="59.8489902" lon="17.6440825">
        <ele>10.7118</ele>
        <time>2014-05-25T10:51:47Z</time>
      </trkpt>
      <trkpt lat="59.8490166" lon="17.644082">
        <ele>10.2312</ele>
        <time>2014-05-25T10:51:48Z</time>
      </trkpt>
      <trkpt lat="59.8490455" lon="17.644077">
        <ele>10.2312</ele>
        <time>2014-05-25T10:51:49Z</time>
      </trkpt>
      <trkpt lat="59.8490756" lon="17.6440741">
        <ele>10.7118</ele>
        <time>2014-05-25T10:51:50Z</time>
      </trkpt>
      <trkpt lat="59.8491046" lon="17.6440708">
        <ele>10.7118</ele>
        <time>2014-05-25T10:51:51Z</time>
      </trkpt>
      <trkpt lat="59.8491337" lon="17.6440684">
        <ele>10.7118</ele>
        <time>2014-05-25T10:51:52Z</time>
      </trkpt>
      <trkpt lat="59.8491656" lon="17.6440628">
        <ele>10.2312</ele>
        <time>2014-05-25T10:51:53Z</time>
      </trkpt>
      <trkpt lat="59.8491982" lon="17.6440541">
        <ele>10.7118</ele>
        <time>2014-05-25T10:51:54Z</time>
      </trkpt>
      <trkpt lat="59.8492296" lon="17.6440502">
        <ele>10.2312</ele>
        <time>2014-05-25T10:51:55Z</time>
      </trkpt>
      <trkpt lat="59.8492595" lon="17.6440424">
        <ele>10.2312</ele>
        <time>2014-05-25T10:51:56Z</time>
      </trkpt>
      <trkpt lat="59.8492865" lon="17.6440322">
        <ele>10.2312</ele>
        <time>2014-05-25T10:51:57Z</time>
      </trkpt>
      <trkpt lat="59.8493134" lon="17.644025">
        <ele>9.75061</ele>
        <time>2014-05-25T10:51:58Z</time>
      </trkpt>
      <trkpt lat="59.8493393" lon="17.6440187">
        <ele>10.2312</ele>
        <time>2014-05-25T10:51:59Z</time>
      </trkpt>
      <trkpt lat="59.8493667" lon="17.6440077">
        <ele>10.2312</ele>
        <time>2014-05-25T10:52:00Z</time>
      </trkpt>
      <trkpt lat="59.8493947" lon="17.6439926">
        <ele>10.2312</ele>
        <time>2014-05-25T10:52:01Z</time>
      </trkpt>
      <trkpt lat="59.8494232" lon="17.6439778">
        <ele>10.7118</ele>
        <time>2014-05-25T10:52:02Z</time>
      </trkpt>
      <trkpt lat="59.8494507" lon="17.6439574">
        <ele>11.1925</ele>
        <time>2014-05-25T10:52:03Z</time>
      </trkpt>
      <trkpt lat="59.8494755" lon="17.6439399">
        <ele>11.1925</ele>
        <time>2014-05-25T10:52:04Z</time>
      </trkpt>
      <trkpt lat="59.8495024" lon="17.6439276">
        <ele>11.1925</ele>
        <time>2014-05-25T10:52:05Z</time>
      </trkpt>
      <trkpt lat="59.8495318" lon="17.643917">
        <ele>11.1925</ele>
        <time>2014-05-25T10:52:06Z</time>
      </trkpt>
      <trkpt lat="59.8495608" lon="17.6439005">
        <ele>11.6732</ele>
        <time>2014-05-25T10:52:07Z</time>
      </trkpt>
      <trkpt lat="59.8495886" lon="17.6438768">
        <ele>12.1538</ele>
        <time>2014-05-25T10:52:08Z</time>
      </trkpt>
      <trkpt lat="59.8496176" lon="17.6438478">
        <ele>12.6344</ele>
        <time>2014-05-25T10:52:09Z</time>
      </trkpt>
      <trkpt lat="59.8496494" lon="17.6438264">
        <ele>12.6344</ele>
        <time>2014-05-25T10:52:10Z</time>
      </trkpt>
      <trkpt lat="59.849679" lon="17.6438093">
        <ele>12.6344</ele>
        <time>2014-05-25T10:52:11Z</time>
      </trkpt>
      <trkpt lat="59.8497061" lon="17.6437902">
        <ele>12.1538</ele>
        <time>2014-05-25T10:52:12Z</time>
      </trkpt>
      <trkpt lat="59.8497341" lon="17.643771">
        <ele>12.1538</ele>
        <time>2014-05-25T10:52:13Z</time>
      </trkpt>
      <trkpt lat="59.8497635" lon="17.6437513">
        <ele>12.1538</ele>
        <time>2014-05-25T10:52:14Z</time>
      </trkpt>
      <trkpt lat="59.8497931" lon="17.6437267">
        <ele>12.1538</ele>
        <time>2014-05-25T10:52:15Z</time>
      </trkpt>
      <trkpt lat="59.849819" lon="17.6437051">
        <ele>12.1538</ele>
        <time>2014-05-25T10:52:16Z</time>
      </trkpt>
      <trkpt lat="59.8498335" lon="17.6436903">
        <ele>12.6344</ele>
        <time>2014-05-25T10:52:17Z</time>
      </trkpt>
      <trkpt lat="59.8498528" lon="17.6436585">
        <ele>12.1538</ele>
        <time>2014-05-25T10:52:18Z</time>
      </trkpt>
      <trkpt lat="59.8498783" lon="17.6436253">
        <ele>12.1538</ele>
        <time>2014-05-25T10:52:19Z</time>
      </trkpt>
      <trkpt lat="59.8498988" lon="17.643601">
        <ele>11.6732</ele>
        <time>2014-05-25T10:52:20Z</time>
      </trkpt>
      <trkpt lat="59.8499216" lon="17.6435751">
        <ele>11.6732</ele>
        <time>2014-05-25T10:52:21Z</time>
      </trkpt>
      <trkpt lat="59.8499469" lon="17.643552">
        <ele>11.1925</ele>
        <time>2014-05-25T10:52:22Z</time>
      </trkpt>
      <trkpt lat="59.8499719" lon="17.6435354">
        <ele>10.7118</ele>
        <time>2014-05-25T10:52:23Z</time>
      </trkpt>
      <trkpt lat="59.8499961" lon="17.6435255">
        <ele>10.2312</ele>
        <time>2014-05-25T10:52:24Z</time>
      </trkpt>
      <trkpt lat="59.8500241" lon="17.6435291">
        <ele>9.75061</ele>
        <time>2014-05-25T10:52:25Z</time>
      </trkpt>
      <trkpt lat="59.8500539" lon="17.6435167">
        <ele>9.2699</ele>
        <time>2014-05-25T10:52:26Z</time>
      </trkpt>
      <trkpt lat="59.850082" lon="17.6434997">
        <ele>8.78918</ele>
        <time>2014-05-25T10:52:27Z</time>
      </trkpt>
      <trkpt lat="59.8501102" lon="17.6434806">
        <ele>8.30859</ele>
        <time>2014-05-25T10:52:28Z</time>
      </trkpt>
      <trkpt lat="59.850136" lon="17.6434623">
        <ele>7.82788</ele>
        <time>2014-05-25T10:52:29Z</time>
      </trkpt>
      <trkpt lat="59.8501641" lon="17.6434611">
        <ele>7.34717</ele>
        <time>2014-05-25T10:52:30Z</time>
      </trkpt>
      <trkpt lat="59.8501931" lon="17.6434733">
        <ele>7.82788</ele>
        <time>2014-05-25T10:52:31Z</time>
      </trkpt>
      <trkpt lat="59.8502194" lon="17.6434756">
        <ele>7.34717</ele>
        <time>2014-05-25T10:52:32Z</time>
      </trkpt>
      <trkpt lat="59.8502446" lon="17.6434774">
        <ele>7.34717</ele>
        <time>2014-05-25T10:52:33Z</time>
      </trkpt>
      <trkpt lat="59.8502656" lon="17.6434897">
        <ele>6.38586</ele>
        <time>2014-05-25T10:52:34Z</time>
      </trkpt>
      <trkpt lat="59.8502871" lon="17.64351">
        <ele>5.90527</ele>
        <time>2014-05-25T10:52:35Z</time>
      </trkpt>
      <trkpt lat="59.8503125" lon="17.6435326">
        <ele>5.42456</ele>
        <time>2014-05-25T10:52:36Z</time>
      </trkpt>
      <trkpt lat="59.8503391" lon="17.6435416">
        <ele>4.94385</ele>
        <time>2014-05-25T10:52:37Z</time>
      </trkpt>
      <trkpt lat="59.8503624" lon="17.6435411">
        <ele>4.94385</ele>
        <time>2014-05-25T10:52:38Z</time>
      </trkpt>
      <trkpt lat="59.8503821" lon="17.6435437">
        <ele>4.94385</ele>
        <time>2014-05-25T10:52:39Z</time>
      </trkpt>
      <trkpt lat="59.8504064" lon="17.6435419">
        <ele>4.94385</ele>
        <time>2014-05-25T10:52:40Z</time>
      </trkpt>
      <trkpt lat="59.8504318" lon="17.6435286">
        <ele>4.94385</ele>
        <time>2014-05-25T10:52:41Z</time>
      </trkpt>
      <trkpt lat="59.8504544" lon="17.6435007">
        <ele>4.46326</ele>
        <time>2014-05-25T10:52:42Z</time>
      </trkpt>
      <trkpt lat="59.8504779" lon="17.6434625">
        <ele>4.94385</ele>
        <time>2014-05-25T10:52:43Z</time>
      </trkpt>
      <trkpt lat="59.8505006" lon="17.6434157">
        <ele>4.94385</ele>
        <time>2014-05-25T10:52:44Z</time>
      </trkpt>
      <trkpt lat="59.8505197" lon="17.643363">
        <ele>4.94385</ele>
        <time>2014-05-25T10:52:45Z</time>
      </trkpt>
      <trkpt lat="59.8505359" lon="17.6433149">
        <ele>4.94385</ele>
        <time>2014-05-25T10:52:46Z</time>
      </trkpt>
      <trkpt lat="59.8505546" lon="17.643275">
        <ele>4.94385</ele>
        <time>2014-05-25T10:52:47Z</time>
      </trkpt>
      <trkpt lat="59.8505761" lon="17.6432381">
        <ele>4.94385</ele>
        <time>2014-05-25T10:52:48Z</time>
      </trkpt>
      <trkpt lat="59.8506002" lon="17.643203">
        <ele>5.42456</ele>
        <time>2014-05-25T10:52:49Z</time>
      </trkpt>
      <trkpt lat="59.8506253" lon="17.6431664">
        <ele>4.94385</ele>
        <time>2014-05-25T10:52:50Z</time>
      </trkpt>
      <trkpt lat="59.8506494" lon="17.6431369">
        <ele>5.42456</ele>
        <time>2014-05-25T10:52:51Z</time>
      </trkpt>
      <trkpt lat="59.8506721" lon="17.6431002">
        <ele>5.90527</ele>
        <time>2014-05-25T10:52:52Z</time>
      </trkpt>
      <trkpt lat="59.8506966" lon="17.6430584">
        <ele>6.38586</ele>
        <time>2014-05-25T10:52:53Z</time>
      </trkpt>
      <trkpt lat="59.8507242" lon="17.6430251">
        <ele>6.86646</ele>
        <time>2014-05-25T10:52:54Z</time>
      </trkpt>
      <trkpt lat="59.8507509" lon="17.6430013">
        <ele>7.34717</ele>
        <time>2014-05-25T10:52:55Z</time>
      </trkpt>
      <trkpt lat="59.8507738" lon="17.6429812">
        <ele>7.82788</ele>
        <time>2014-05-25T10:52:56Z</time>
      </trkpt>
      <trkpt lat="59.8507959" lon="17.6429579">
        <ele>7.82788</ele>
        <time>2014-05-25T10:52:57Z</time>
      </trkpt>
      <trkpt lat="59.8508182" lon="17.6429298">
        <ele>8.30859</ele>
        <time>2014-05-25T10:52:58Z</time>
      </trkpt>
      <trkpt lat="59.8508419" lon="17.6429041">
        <ele>8.78918</ele>
        <time>2014-05-25T10:52:59Z</time>
      </trkpt>
      <trkpt lat="59.8508688" lon="17.6428784">
        <ele>8.78918</ele>
        <time>2014-05-25T10:53:00Z</time>
      </trkpt>
      <trkpt lat="59.8508944" lon="17.6428431">
        <ele>8.78918</ele>
        <time>2014-05-25T10:53:01Z</time>
      </trkpt>
      <trkpt lat="59.8509177" lon="17.6427983">
        <ele>8.78918</ele>
        <time>2014-05-25T10:53:02Z</time>
      </trkpt>
      <trkpt lat="59.8509399" lon="17.6427543">
        <ele>9.2699</ele>
        <time>2014-05-25T10:53:03Z</time>
      </trkpt>
      <trkpt lat="59.8509628" lon="17.6427108">
        <ele>9.75061</ele>
        <time>2014-05-25T10:53:04Z</time>
      </trkpt>
      <trkpt lat="59.8509843" lon="17.6426644">
        <ele>10.2312</ele>
        <time>2014-05-25T10:53:05Z</time>
      </trkpt>
      <trkpt lat="59.8510073" lon="17.6426109">
        <ele>10.2312</ele>
        <time>2014-05-25T10:53:06Z</time>
      </trkpt>
      <trkpt lat="59.8510301" lon="17.6425582">
        <ele>10.2312</ele>
        <time>2014-05-25T10:53:07Z</time>
      </trkpt>
      <trkpt lat="59.8510549" lon="17.6425155">
        <ele>10.2312</ele>
        <time>2014-05-25T10:53:08Z</time>
      </trkpt>
      <trkpt lat="59.8510788" lon="17.6424775">
        <ele>9.75061</ele>
        <time>2014-05-25T10:53:09Z</time>
      </trkpt>
      <trkpt lat="59.8511056" lon="17.6424482">
        <ele>9.75061</ele>
        <time>2014-05-25T10:53:10Z</time>
      </trkpt>
      <trkpt lat="59.851134" lon="17.6424196">
        <ele>9.75061</ele>
        <time>2014-05-25T10:53:11Z</time>
      </trkpt>
      <trkpt lat="59.8511644" lon="17.6423891">
        <ele>10.2312</ele>
        <time>2014-05-25T10:53:12Z</time>
      </trkpt>
      <trkpt lat="59.8511952" lon="17.642359">
        <ele>10.2312</ele>
        <time>2014-05-25T10:53:13Z</time>
      </trkpt>
      <trkpt lat="59.85123" lon="17.6423285">
        <ele>10.7118</ele>
        <time>2014-05-25T10:53:14Z</time>
      </trkpt>
      <trkpt lat="59.8512626" lon="17.6423041">
        <ele>10.7118</ele>
        <time>2014-05-25T10:53:15Z</time>
      </trkpt>
      <trkpt lat="59.8512949" lon="17.6422811">
        <ele>10.7118</ele>
        <time>2014-05-25T10:53:16Z</time>
      </trkpt>
      <trkpt lat="59.8513231" lon="17.642259">
        <ele>10.7118</ele>
        <time>2014-05-25T10:53:17Z</time>
      </trkpt>
      <trkpt lat="59.851345" lon="17.6422414">
        <ele>10.7118</ele>
        <time>2014-05-25T10:53:18Z</time>
      </trkpt>
      <trkpt lat="59.8513664" lon="17.6422201">
        <ele>10.2312</ele>
        <time>2014-05-25T10:53:19Z</time>
      </trkpt>
      <trkpt lat="59.851388" lon="17.6421984">
        <ele>10.2312</ele>
        <time>2014-05-25T10:53:20Z</time>
      </trkpt>
      <trkpt lat="59.8514119" lon="17.6421787">
        <ele>10.2312</ele>
        <time>2014-05-25T10:53:21Z</time>
      </trkpt>
      <trkpt lat="59.8514404" lon="17.642159">
        <ele>10.2312</ele>
        <time>2014-05-25T10:53:22Z</time>
      </trkpt>
      <trkpt lat="59.8514693" lon="17.6421305">
        <ele>10.2312</ele>
        <time>2014-05-25T10:53:23Z</time>
      </trkpt>
      <trkpt lat="59.8514925" lon="17.6420921">
        <ele>10.2312</ele>
        <time>2014-05-25T10:53:24Z</time>
      </trkpt>
      <trkpt lat="59.8515165" lon="17.6420568">
        <ele>10.7118</ele>
        <time>2014-05-25T10:53:25Z</time>
      </trkpt>
      <trkpt lat="59.851541" lon="17.6420192">
        <ele>10.7118</ele>
        <time>2014-05-25T10:53:26Z</time>
      </trkpt>
      <trkpt lat="59.8515627" lon="17.6419901">
        <ele>11.1925</ele>
        <time>2014-05-25T10:53:27Z</time>
      </trkpt>
      <trkpt lat="59.8515842" lon="17.6419574">
        <ele>11.1925</ele>
        <time>2014-05-25T10:53:28Z</time>
      </trkpt>
      <trkpt lat="59.8516012" lon="17.6419235">
        <ele>11.6732</ele>
        <time>2014-05-25T10:53:29Z</time>
      </trkpt>
      <trkpt lat="59.8516169" lon="17.6418927">
        <ele>12.1538</ele>
        <time>2014-05-25T10:53:30Z</time>
      </trkpt>
      <trkpt lat="59.8516377" lon="17.6418621">
        <ele>12.6344</ele>
        <time>2014-05-25T10:53:31Z</time>
      </trkpt>
      <trkpt lat="59.8516635" lon="17.6418342">
        <ele>12.6344</ele>
        <time>2014-05-25T10:53:32Z</time>
      </trkpt>
      <trkpt lat="59.8516885" lon="17.6418056">
        <ele>13.1151</ele>
        <time>2014-05-25T10:53:33Z</time>
      </trkpt>
      <trkpt lat="59.8517097" lon="17.6417774">
        <ele>13.5958</ele>
        <time>2014-05-25T10:53:34Z</time>
      </trkpt>
      <trkpt lat="59.851731" lon="17.6417451">
        <ele>13.5958</ele>
        <time>2014-05-25T10:53:35Z</time>
      </trkpt>
      <trkpt lat="59.8517505" lon="17.6417074">
        <ele>14.0764</ele>
        <time>2014-05-25T10:53:36Z</time>
      </trkpt>
      <trkpt lat="59.8517719" lon="17.6416676">
        <ele>14.0764</ele>
        <time>2014-05-25T10:53:37Z</time>
      </trkpt>
      <trkpt lat="59.8517922" lon="17.6416324">
        <ele>14.0764</ele>
        <time>2014-05-25T10:53:38Z</time>
      </trkpt>
      <trkpt lat="59.8518095" lon="17.6416006">
        <ele>14.0764</ele>
        <time>2014-05-25T10:53:39Z</time>
      </trkpt>
      <trkpt lat="59.8518294" lon="17.6415757">
        <ele>14.0764</ele>
        <time>2014-05-25T10:53:40Z</time>
      </trkpt>
      <trkpt lat="59.8518532" lon="17.6415499">
        <ele>14.0764</ele>
        <time>2014-05-25T10:53:41Z</time>
      </trkpt>
      <trkpt lat="59.8518739" lon="17.6415219">
        <ele>14.0764</ele>
        <time>2014-05-25T10:53:42Z</time>
      </trkpt>
      <trkpt lat="59.8518984" lon="17.6414965">
        <ele>14.557</ele>
        <time>2014-05-25T10:53:43Z</time>
      </trkpt>
      <trkpt lat="59.851925" lon="17.6414655">
        <ele>15.0377</ele>
        <time>2014-05-25T10:53:44Z</time>
      </trkpt>
      <trkpt lat="59.8519474" lon="17.6414262">
        <ele>14.557</ele>
        <time>2014-05-25T10:53:45Z</time>
      </trkpt>
      <trkpt lat="59.8519698" lon="17.6413907">
        <ele>14.557</ele>
        <time>2014-05-25T10:53:46Z</time>
      </trkpt>
      <trkpt lat="59.8519921" lon="17.6413634">
        <ele>14.557</ele>
        <time>2014-05-25T10:53:47Z</time>
      </trkpt>
      <trkpt lat="59.8520133" lon="17.6413392">
        <ele>14.557</ele>
        <time>2014-05-25T10:53:48Z</time>
      </trkpt>
      <trkpt lat="59.8520362" lon="17.6413125">
        <ele>14.557</ele>
        <time>2014-05-25T10:53:49Z</time>
      </trkpt>
      <trkpt lat="59.8520568" lon="17.6412866">
        <ele>14.557</ele>
        <time>2014-05-25T10:53:50Z</time>
      </trkpt>
      <trkpt lat="59.8520791" lon="17.6412637">
        <ele>14.557</ele>
        <time>2014-05-25T10:53:51Z</time>
      </trkpt>
      <trkpt lat="59.8520999" lon="17.6412399">
        <ele>14.0764</ele>
        <time>2014-05-25T10:53:52Z</time>
      </trkpt>
      <trkpt lat="59.8521235" lon="17.6412147">
        <ele>14.0764</ele>
        <time>2014-05-25T10:53:53Z</time>
      </trkpt>
      <trkpt lat="59.852149" lon="17.6411933">
        <ele>14.0764</ele>
        <time>2014-05-25T10:53:54Z</time>
      </trkpt>
      <trkpt lat="59.8521752" lon="17.6411769">
        <ele>14.0764</ele>
        <time>2014-05-25T10:53:55Z</time>
      </trkpt>
      <trkpt lat="59.8522016" lon="17.641156">
        <ele>14.0764</ele>
        <time>2014-05-25T10:53:56Z</time>
      </trkpt>
      <trkpt lat="59.852223" lon="17.6411469">
        <ele>13.5958</ele>
        <time>2014-05-25T10:53:57Z</time>
      </trkpt>
      <trkpt lat="59.8522427" lon="17.641138">
        <ele>13.1151</ele>
        <time>2014-05-25T10:53:58Z</time>
      </trkpt>
      <trkpt lat="59.8522669" lon="17.6411225">
        <ele>12.6344</ele>
        <time>2014-05-25T10:53:59Z</time>
      </trkpt>
      <trkpt lat="59.8522924" lon="17.6411058">
        <ele>12.6344</ele>
        <time>2014-05-25T10:54:00Z</time>
      </trkpt>
      <trkpt lat="59.8523153" lon="17.641093">
        <ele>12.1538</ele>
        <time>2014-05-25T10:54:01Z</time>
      </trkpt>
      <trkpt lat="59.8523401" lon="17.6410763">
        <ele>11.6732</ele>
        <time>2014-05-25T10:54:02Z</time>
      </trkpt>
      <trkpt lat="59.8523622" lon="17.6410546">
        <ele>11.6732</ele>
        <time>2014-05-25T10:54:03Z</time>
      </trkpt>
      <trkpt lat="59.8523851" lon="17.6410293">
        <ele>11.6732</ele>
        <time>2014-05-25T10:54:04Z</time>
      </trkpt>
      <trkpt lat="59.8524085" lon="17.6410049">
        <ele>11.6732</ele>
        <time>2014-05-25T10:54:05Z</time>
      </trkpt>
      <trkpt lat="59.8524297" lon="17.6409779">
        <ele>11.1925</ele>
        <time>2014-05-25T10:54:06Z</time>
      </trkpt>
      <trkpt lat="59.8524479" lon="17.6409472">
        <ele>11.1925</ele>
        <time>2014-05-25T10:54:07Z</time>
      </trkpt>
      <trkpt lat="59.8524656" lon="17.6409106">
        <ele>11.1925</ele>
        <time>2014-05-25T10:54:08Z</time>
      </trkpt>
      <trkpt lat="59.8524831" lon="17.6408726">
        <ele>10.7118</ele>
        <time>2014-05-25T10:54:09Z</time>
      </trkpt>
      <trkpt lat="59.8524993" lon="17.6408396">
        <ele>10.7118</ele>
        <time>2014-05-25T10:54:10Z</time>
      </trkpt>
      <trkpt lat="59.8525173" lon="17.640809">
        <ele>10.7118</ele>
        <time>2014-05-25T10:54:11Z</time>
      </trkpt>
      <trkpt lat="59.8525359" lon="17.6407724">
        <ele>10.2312</ele>
        <time>2014-05-25T10:54:12Z</time>
      </trkpt>
      <trkpt lat="59.8525557" lon="17.6407349">
        <ele>10.2312</ele>
        <time>2014-05-25T10:54:13Z</time>
      </trkpt>
      <trkpt lat="59.8525775" lon="17.6406936">
        <ele>10.2312</ele>
        <time>2014-05-25T10:54:14Z</time>
      </trkpt>
      <trkpt lat="59.8525982" lon="17.6406542">
        <ele>10.2312</ele>
        <time>2014-05-25T10:54:15Z</time>
      </trkpt>
      <trkpt lat="59.8526203" lon="17.6406212">
        <ele>10.2312</ele>
        <time>2014-05-25T10:54:16Z</time>
      </trkpt>
      <trkpt lat="59.852645" lon="17.6405971">
        <ele>10.2312</ele>
        <time>2014-05-25T10:54:17Z</time>
      </trkpt>
      <trkpt lat="59.8526689" lon="17.6405738">
        <ele>10.2312</ele>
        <time>2014-05-25T10:54:18Z</time>
      </trkpt>
      <trkpt lat="59.8526924" lon="17.6405496">
        <ele>9.75061</ele>
        <time>2014-05-25T10:54:19Z</time>
      </trkpt>
      <trkpt lat="59.8527157" lon="17.6405267">
        <ele>9.2699</ele>
        <time>2014-05-25T10:54:20Z</time>
      </trkpt>
      <trkpt lat="59.852739" lon="17.6405004">
        <ele>9.2699</ele>
        <time>2014-05-25T10:54:21Z</time>
      </trkpt>
      <trkpt lat="59.8527652" lon="17.6404776">
        <ele>9.2699</ele>
        <time>2014-05-25T10:54:22Z</time>
      </trkpt>
      <trkpt lat="59.852789" lon="17.6404538">
        <ele>9.2699</ele>
        <time>2014-05-25T10:54:23Z</time>
      </trkpt>
      <trkpt lat="59.8528116" lon="17.6404279">
        <ele>8.78918</ele>
        <time>2014-05-25T10:54:24Z</time>
      </trkpt>
      <trkpt lat="59.8528317" lon="17.6403978">
        <ele>8.78918</ele>
        <time>2014-05-25T10:54:25Z</time>
      </trkpt>
      <trkpt lat="59.8528478" lon="17.6403635">
        <ele>8.78918</ele>
        <time>2014-05-25T10:54:26Z</time>
      </trkpt>
      <trkpt lat="59.8528607" lon="17.6403275">
        <ele>8.30859</ele>
        <time>2014-05-25T10:54:27Z</time>
      </trkpt>
      <trkpt lat="59.8528711" lon="17.6402853">
        <ele>8.30859</ele>
        <time>2014-05-25T10:54:28Z</time>
      </trkpt>
      <trkpt lat="59.8528758" lon="17.6402181">
        <ele>7.34717</ele>
        <time>2014-05-25T10:54:29Z</time>
      </trkpt>
      <trkpt lat="59.8528803" lon="17.6401523">
        <ele>6.86646</ele>
        <time>2014-05-25T10:54:30Z</time>
      </trkpt>
      <trkpt lat="59.8528904" lon="17.6401021">
        <ele>6.86646</ele>
        <time>2014-05-25T10:54:31Z</time>
      </trkpt>
      <trkpt lat="59.8529037" lon="17.6400532">
        <ele>6.86646</ele>
        <time>2014-05-25T10:54:32Z</time>
      </trkpt>
      <trkpt lat="59.8529217" lon="17.6400101">
        <ele>6.86646</ele>
        <time>2014-05-25T10:54:33Z</time>
      </trkpt>
      <trkpt lat="59.8529427" lon="17.6399755">
        <ele>6.86646</ele>
        <time>2014-05-25T10:54:34Z</time>
      </trkpt>
      <trkpt lat="59.8529615" lon="17.6399394">
        <ele>6.86646</ele>
        <time>2014-05-25T10:54:35Z</time>
      </trkpt>
      <trkpt lat="59.8529797" lon="17.6399035">
        <ele>6.86646</ele>
        <time>2014-05-25T10:54:36Z</time>
      </trkpt>
      <trkpt lat="59.8530032" lon="17.6398741">
        <ele>7.34717</ele>
        <time>2014-05-25T10:54:37Z</time>
      </trkpt>
      <trkpt lat="59.8530265" lon="17.6398492">
        <ele>7.34717</ele>
        <time>2014-05-25T10:54:38Z</time>
      </trkpt>
      <trkpt lat="59.8530462" lon="17.6398281">
        <ele>7.34717</ele>
        <time>2014-05-25T10:54:39Z</time>
      </trkpt>
      <trkpt lat="59.8530674" lon="17.6398063">
        <ele>7.82788</ele>
        <time>2014-05-25T10:54:40Z</time>
      </trkpt>
      <trkpt lat="59.8530893" lon="17.6397848">
        <ele>7.34717</ele>
        <time>2014-05-25T10:54:41Z</time>
      </trkpt>
      <trkpt lat="59.8531094" lon="17.6397637">
        <ele>7.82788</ele>
        <time>2014-05-25T10:54:42Z</time>
      </trkpt>
      <trkpt lat="59.8531323" lon="17.639746">
        <ele>7.82788</ele>
        <time>2014-05-25T10:54:43Z</time>
      </trkpt>
      <trkpt lat="59.8531581" lon="17.6397309">
        <ele>7.34717</ele>
        <time>2014-05-25T10:54:44Z</time>
      </trkpt>
      <trkpt lat="59.8531796" lon="17.639709">
        <ele>7.82788</ele>
        <time>2014-05-25T10:54:45Z</time>
      </trkpt>
      <trkpt lat="59.8532005" lon="17.6396817">
        <ele>7.34717</ele>
        <time>2014-05-25T10:54:46Z</time>
      </trkpt>
      <trkpt lat="59.8532239" lon="17.6396514">
        <ele>7.82788</ele>
        <time>2014-05-25T10:54:47Z</time>
      </trkpt>
      <trkpt lat="59.8532446" lon="17.6396271">
        <ele>7.34717</ele>
        <time>2014-05-25T10:54:48Z</time>
      </trkpt>
      <trkpt lat="59.8532679" lon="17.6396028">
        <ele>7.34717</ele>
        <time>2014-05-25T10:54:49Z</time>
      </trkpt>
      <trkpt lat="59.8532902" lon="17.6395726">
        <ele>7.82788</ele>
        <time>2014-05-25T10:54:50Z</time>
      </trkpt>
      <trkpt lat="59.8533131" lon="17.6395488">
        <ele>7.82788</ele>
        <time>2014-05-25T10:54:51Z</time>
      </trkpt>
      <trkpt lat="59.8533383" lon="17.6395277">
        <ele>8.30859</ele>
        <time>2014-05-25T10:54:52Z</time>
      </trkpt>
      <trkpt lat="59.8533614" lon="17.6395056">
        <ele>8.78918</ele>
        <time>2014-05-25T10:54:53Z</time>
      </trkpt>
      <trkpt lat="59.8533839" lon="17.6394861">
        <ele>8.78918</ele>
        <time>2014-05-25T10:54:54Z</time>
      </trkpt>
      <trkpt lat="59.8534089" lon="17.6394597">
        <ele>9.2699</ele>
        <time>2014-05-25T10:54:55Z</time>
      </trkpt>
      <trkpt lat="59.8534311" lon="17.6394301">
        <ele>9.75061</ele>
        <time>2014-05-25T10:54:56Z</time>
      </trkpt>
      <trkpt lat="59.8534523" lon="17.6394057">
        <ele>10.2312</ele>
        <time>2014-05-25T10:54:57Z</time>
      </trkpt>
      <trkpt lat="59.8534755" lon="17.6393834">
        <ele>10.7118</ele>
        <time>2014-05-25T10:54:58Z</time>
      </trkpt>
      <trkpt lat="59.8534982" lon="17.6393582">
        <ele>10.7118</ele>
        <time>2014-05-25T10:54:59Z</time>
      </trkpt>
      <trkpt lat="59.85352" lon="17.6393287">
        <ele>10.7118</ele>
        <time>2014-05-25T10:55:00Z</time>
      </trkpt>
      <trkpt lat="59.853545" lon="17.6392994">
        <ele>10.7118</ele>
        <time>2014-05-25T10:55:01Z</time>
      </trkpt>
      <trkpt lat="59.8535663" lon="17.6392659">
        <ele>10.7118</ele>
        <time>2014-05-25T10:55:02Z</time>
      </trkpt>
      <trkpt lat="59.8535886" lon="17.6392354">
        <ele>10.2312</ele>
        <time>2014-05-25T10:55:03Z</time>
      </trkpt>
      <trkpt lat="59.8536092" lon="17.6392091">
        <ele>10.2312</ele>
        <time>2014-05-25T10:55:04Z</time>
      </trkpt>
      <trkpt lat="59.853631" lon="17.6391866">
        <ele>10.2312</ele>
        <time>2014-05-25T10:55:05Z</time>
      </trkpt>
      <trkpt lat="59.8536547" lon="17.6391617">
        <ele>10.7118</ele>
        <time>2014-05-25T10:55:06Z</time>
      </trkpt>
      <trkpt lat="59.8536771" lon="17.6391306">
        <ele>10.7118</ele>
        <time>2014-05-25T10:55:07Z</time>
      </trkpt>
      <trkpt lat="59.8537029" lon="17.6391023">
        <ele>10.7118</ele>
        <time>2014-05-25T10:55:08Z</time>
      </trkpt>
      <trkpt lat="59.8537274" lon="17.6390748">
        <ele>10.2312</ele>
        <time>2014-05-25T10:55:09Z</time>
      </trkpt>
      <trkpt lat="59.8537505" lon="17.6390433">
        <ele>9.75061</ele>
        <time>2014-05-25T10:55:10Z</time>
      </trkpt>
      <trkpt lat="59.8537756" lon="17.6390122">
        <ele>10.2312</ele>
        <time>2014-05-25T10:55:11Z</time>
      </trkpt>
      <trkpt lat="59.8537995" lon="17.6389832">
        <ele>9.75061</ele>
        <time>2014-05-25T10:55:12Z</time>
      </trkpt>
      <trkpt lat="59.853822" lon="17.6389544">
        <ele>9.75061</ele>
        <time>2014-05-25T10:55:13Z</time>
      </trkpt>
      <trkpt lat="59.853846" lon="17.6389309">
        <ele>10.2312</ele>
        <time>2014-05-25T10:55:14Z</time>
      </trkpt>
      <trkpt lat="59.8538684" lon="17.6389087">
        <ele>10.2312</ele>
        <time>2014-05-25T10:55:15Z</time>
      </trkpt>
      <trkpt lat="59.8538916" lon="17.6388794">
        <ele>10.2312</ele>
        <time>2014-05-25T10:55:16Z</time>
      </trkpt>
      <trkpt lat="59.8539178" lon="17.6388547">
        <ele>10.2312</ele>
        <time>2014-05-25T10:55:17Z</time>
      </trkpt>
      <trkpt lat="59.8539422" lon="17.6388314">
        <ele>10.2312</ele>
        <time>2014-05-25T10:55:18Z</time>
      </trkpt>
      <trkpt lat="59.8539678" lon="17.6388085">
        <ele>10.7118</ele>
        <time>2014-05-25T10:55:19Z</time>
      </trkpt>
      <trkpt lat="59.8539927" lon="17.6387856">
        <ele>10.7118</ele>
        <time>2014-05-25T10:55:20Z</time>
      </trkpt>
      <trkpt lat="59.854016" lon="17.638759">
        <ele>10.7118</ele>
        <time>2014-05-25T10:55:21Z</time>
      </trkpt>
      <trkpt lat="59.8540413" lon="17.6387325">
        <ele>10.2312</ele>
        <time>2014-05-25T10:55:22Z</time>
      </trkpt>
      <trkpt lat="59.8540692" lon="17.6387153">
        <ele>10.7118</ele>
        <time>2014-05-25T10:55:23Z</time>
      </trkpt>
      <trkpt lat="59.854096" lon="17.6387014">
        <ele>10.2312</ele>
        <time>2014-05-25T10:55:24Z</time>
      </trkpt>
      <trkpt lat="59.8541227" lon="17.6387013">
        <ele>10.2312</ele>
        <time>2014-05-25T10:55:25Z</time>
      </trkpt>
      <trkpt lat="59.8541485" lon="17.6387151">
        <ele>9.75061</ele>
        <time>2014-05-25T10:55:26Z</time>
      </trkpt>
      <trkpt lat="59.8541717" lon="17.6387418">
        <ele>9.75061</ele>
        <time>2014-05-25T10:55:27Z</time>
      </trkpt>
      <trkpt lat="59.8541951" lon="17.6387847">
        <ele>9.75061</ele>
        <time>2014-05-25T10:55:28Z</time>
      </trkpt>
      <trkpt lat="59.8542153" lon="17.6388272">
        <ele>9.2699</ele>
        <time>2014-05-25T10:55:29Z</time>
      </trkpt>
      <trkpt lat="59.8542309" lon="17.6388713">
        <ele>8.78918</ele>
        <time>2014-05-25T10:55:30Z</time>
      </trkpt>
      <trkpt lat="59.8542449" lon="17.6389188">
        <ele>8.78918</ele>
        <time>2014-05-25T10:55:31Z</time>
      </trkpt>
      <trkpt lat="59.8542563" lon="17.6389636">
        <ele>8.78918</ele>
        <time>2014-05-25T10:55:32Z</time>
      </trkpt>
      <trkpt lat="59.8542697" lon="17.6390136">
        <ele>8.30859</ele>
        <time>2014-05-25T10:55:33Z</time>
      </trkpt>
      <trkpt lat="59.8542831" lon="17.6390684">
        <ele>8.30859</ele>
        <time>2014-05-25T10:55:34Z</time>
      </trkpt>
      <trkpt lat="59.8542971" lon="17.639122">
        <ele>7.82788</ele>
        <time>2014-05-25T10:55:35Z</time>
      </trkpt>
      <trkpt lat="59.8543153" lon="17.6391744">
        <ele>8.30859</ele>
        <time>2014-05-25T10:55:36Z</time>
      </trkpt>
      <trkpt lat="59.8543288" lon="17.6392234">
        <ele>8.78918</ele>
        <time>2014-05-25T10:55:37Z</time>
      </trkpt>
      <trkpt lat="59.854336" lon="17.6392757">
        <ele>8.78918</ele>
        <time>2014-05-25T10:55:38Z</time>
      </trkpt>
      <trkpt lat="59.8543467" lon="17.6393437">
        <ele>7.82788</ele>
        <time>2014-05-25T10:55:39Z</time>
      </trkpt>
      <trkpt lat="59.8543604" lon="17.6394096">
        <ele>7.82788</ele>
        <time>2014-05-25T10:55:40Z</time>
      </trkpt>
      <trkpt lat="59.8543712" lon="17.6394685">
        <ele>6.86646</ele>
        <time>2014-05-25T10:55:41Z</time>
      </trkpt>
      <trkpt lat="59.8543889" lon="17.6395225">
        <ele>6.86646</ele>
        <time>2014-05-25T10:55:42Z</time>
      </trkpt>
      <trkpt lat="59.8544037" lon="17.639574">
        <ele>6.86646</ele>
        <time>2014-05-25T10:55:43Z</time>
      </trkpt>
      <trkpt lat="59.8544143" lon="17.6396242">
        <ele>6.86646</ele>
        <time>2014-05-25T10:55:44Z</time>
      </trkpt>
      <trkpt lat="59.8544282" lon="17.6396727">
        <ele>6.38586</ele>
        <time>2014-05-25T10:55:45Z</time>
      </trkpt>
      <trkpt lat="59.8544479" lon="17.639725">
        <ele>6.38586</ele>
        <time>2014-05-25T10:55:46Z</time>
      </trkpt>
      <trkpt lat="59.8544625" lon="17.6397846">
        <ele>6.38586</ele>
        <time>2014-05-25T10:55:47Z</time>
      </trkpt>
      <trkpt lat="59.8544765" lon="17.6398415">
        <ele>6.86646</ele>
        <time>2014-05-25T10:55:48Z</time>
      </trkpt>
      <trkpt lat="59.8544928" lon="17.6398962">
        <ele>6.86646</ele>
        <time>2014-05-25T10:55:49Z</time>
      </trkpt>
      <trkpt lat="59.8545068" lon="17.6399509">
        <ele>7.34717</ele>
        <time>2014-05-25T10:55:50Z</time>
      </trkpt>
      <trkpt lat="59.8545178" lon="17.6400067">
        <ele>7.34717</ele>
        <time>2014-05-25T10:55:51Z</time>
      </trkpt>
      <trkpt lat="59.8545349" lon="17.6400662">
        <ele>7.82788</ele>
        <time>2014-05-25T10:55:52Z</time>
      </trkpt>
      <trkpt lat="59.8545545" lon="17.6401244">
        <ele>8.30859</ele>
        <time>2014-05-25T10:55:53Z</time>
      </trkpt>
      <trkpt lat="59.85457" lon="17.640175">
        <ele>8.30859</ele>
        <time>2014-05-25T10:55:54Z</time>
      </trkpt>
      <trkpt lat="59.8545858" lon="17.6402238">
        <ele>8.30859</ele>
        <time>2014-05-25T10:55:55Z</time>
      </trkpt>
      <trkpt lat="59.854598" lon="17.6402708">
        <ele>8.30859</ele>
        <time>2014-05-25T10:55:56Z</time>
      </trkpt>
      <trkpt lat="59.8546101" lon="17.6403201">
        <ele>8.30859</ele>
        <time>2014-05-25T10:55:57Z</time>
      </trkpt>
      <trkpt lat="59.8546199" lon="17.6403764">
        <ele>8.30859</ele>
        <time>2014-05-25T10:55:58Z</time>
      </trkpt>
      <trkpt lat="59.8546334" lon="17.6404258">
        <ele>8.30859</ele>
        <time>2014-05-25T10:55:59Z</time>
      </trkpt>
      <trkpt lat="59.8546534" lon="17.640473">
        <ele>8.78918</ele>
        <time>2014-05-25T10:56:00Z</time>
      </trkpt>
      <trkpt lat="59.8546713" lon="17.6405273">
        <ele>9.2699</ele>
        <time>2014-05-25T10:56:01Z</time>
      </trkpt>
      <trkpt lat="59.8546861" lon="17.6405805">
        <ele>9.2699</ele>
        <time>2014-05-25T10:56:02Z</time>
      </trkpt>
      <trkpt lat="59.8547017" lon="17.6406387">
        <ele>9.2699</ele>
        <time>2014-05-25T10:56:03Z</time>
      </trkpt>
      <trkpt lat="59.8547176" lon="17.6407002">
        <ele>9.75061</ele>
        <time>2014-05-25T10:56:04Z</time>
      </trkpt>
      <trkpt lat="59.8547345" lon="17.6407651">
        <ele>9.75061</ele>
        <time>2014-05-25T10:56:05Z</time>
      </trkpt>
      <trkpt lat="59.8547498" lon="17.6408242">
        <ele>9.75061</ele>
        <time>2014-05-25T10:56:06Z</time>
      </trkpt>
      <trkpt lat="59.8547587" lon="17.6408748">
        <ele>9.75061</ele>
        <time>2014-05-25T10:56:07Z</time>
      </trkpt>
      <trkpt lat="59.8547732" lon="17.6409056">
        <ele>11.1925</ele>
        <time>2014-05-25T10:56:08Z</time>
      </trkpt>
      <trkpt lat="59.8547831" lon="17.640948">
        <ele>11.6732</ele>
        <time>2014-05-25T10:56:09Z</time>
      </trkpt>
      <trkpt lat="59.8547915" lon="17.6409956">
        <ele>12.6344</ele>
        <time>2014-05-25T10:56:10Z</time>
      </trkpt>
      <trkpt lat="59.8547773" lon="17.6410396">
        <ele>11.1925</ele>
        <time>2014-05-25T10:56:11Z</time>
      </trkpt>
      <trkpt lat="59.8547644" lon="17.6410938">
        <ele>11.1925</ele>
        <time>2014-05-25T10:56:12Z</time>
      </trkpt>
      <trkpt lat="59.8547466" lon="17.6411448">
        <ele>10.7118</ele>
        <time>2014-05-25T10:56:13Z</time>
      </trkpt>
      <trkpt lat="59.8547236" lon="17.6411888">
        <ele>10.2312</ele>
        <time>2014-05-25T10:56:14Z</time>
      </trkpt>
      <trkpt lat="59.8547031" lon="17.6412411">
        <ele>11.1925</ele>
        <time>2014-05-25T10:56:15Z</time>
      </trkpt>
      <trkpt lat="59.8546769" lon="17.6412866">
        <ele>11.1925</ele>
        <time>2014-05-25T10:56:16Z</time>
      </trkpt>
      <trkpt lat="59.8546472" lon="17.6413254">
        <ele>11.1925</ele>
        <time>2014-05-25T10:56:17Z</time>
      </trkpt>
      <trkpt lat="59.8546088" lon="17.6413524">
        <ele>9.2699</ele>
        <time>2014-05-25T10:56:18Z</time>
      </trkpt>
      <trkpt lat="59.8545759" lon="17.6413775">
        <ele>8.30859</ele>
        <time>2014-05-25T10:56:19Z</time>
      </trkpt>
      <trkpt lat="59.8545464" lon="17.6413953">
        <ele>7.82788</ele>
        <time>2014-05-25T10:56:20Z</time>
      </trkpt>
      <trkpt lat="59.854523" lon="17.6414054">
        <ele>6.86646</ele>
        <time>2014-05-25T10:56:21Z</time>
      </trkpt>
      <trkpt lat="59.8545094" lon="17.6414131">
        <ele>5.42456</ele>
        <time>2014-05-25T10:56:22Z</time>
      </trkpt>
      <trkpt lat="59.8544907" lon="17.6414178">
        <ele>4.94385</ele>
        <time>2014-05-25T10:56:23Z</time>
      </trkpt>
      <trkpt lat="59.8544671" lon="17.6414307">
        <ele>4.46326</ele>
        <time>2014-05-25T10:56:24Z</time>
      </trkpt>
      <trkpt lat="59.8544439" lon="17.6414426">
        <ele>4.46326</ele>
        <time>2014-05-25T10:56:25Z</time>
      </trkpt>
      <trkpt lat="59.8544195" lon="17.6414623">
        <ele>3.02124</ele>
        <time>2014-05-25T10:56:26Z</time>
      </trkpt>
      <trkpt lat="59.8543998" lon="17.6414759">
        <ele>2.54065</ele>
        <time>2014-05-25T10:56:27Z</time>
      </trkpt>
      <trkpt lat="59.8543768" lon="17.6414887">
        <ele>2.54065</ele>
        <time>2014-05-25T10:56:28Z</time>
      </trkpt>
      <trkpt lat="59.8543469" lon="17.6415072">
        <ele>1.57935</ele>
        <time>2014-05-25T10:56:29Z</time>
      </trkpt>
      <trkpt lat="59.854319" lon="17.6415173">
        <ele>1.57935</ele>
        <time>2014-05-25T10:56:30Z</time>
      </trkpt>
      <trkpt lat="59.8542931" lon="17.6415302">
        <ele>2.06006</ele>
        <time>2014-05-25T10:56:31Z</time>
      </trkpt>
      <trkpt lat="59.8542666" lon="17.6415478">
        <ele>1.57935</ele>
        <time>2014-05-25T10:56:32Z</time>
      </trkpt>
      <trkpt lat="59.8542354" lon="17.6415719">
        <ele>1.09863</ele>
        <time>2014-05-25T10:56:33Z</time>
      </trkpt>
      <trkpt lat="59.8542071" lon="17.6415966">
        <ele>1.09863</ele>
        <time>2014-05-25T10:56:34Z</time>
      </trkpt>
      <trkpt lat="59.854177" lon="17.6416255">
        <ele>1.57935</ele>
        <time>2014-05-25T10:56:35Z</time>
      </trkpt>
      <trkpt lat="59.8541417" lon="17.6416505">
        <ele>1.09863</ele>
        <time>2014-05-25T10:56:36Z</time>
      </trkpt>
      <trkpt lat="59.8541086" lon="17.6416769">
        <ele>0.137451</ele>
        <time>2014-05-25T10:56:37Z</time>
      </trkpt>
      <trkpt lat="59.8540779" lon="17.6416996">
        <ele>0.137451</ele>
        <time>2014-05-25T10:56:38Z</time>
      </trkpt>
      <trkpt lat="59.8540413" lon="17.6417136">
        <ele>0</ele>
        <time>2014-05-25T10:56:39Z</time>
      </trkpt>
      <trkpt lat="59.8540059" lon="17.6417308">
        <ele>0</ele>
        <time>2014-05-25T10:56:40Z</time>
      </trkpt>
      <trkpt lat="59.8539718" lon="17.64174">
        <ele>0</ele>
        <time>2014-05-25T10:56:41Z</time>
      </trkpt>
      <trkpt lat="59.8539366" lon="17.6417586">
        <ele>0</ele>
        <time>2014-05-25T10:56:42Z</time>
      </trkpt>
      <trkpt lat="59.8539082" lon="17.6417638">
        <ele>0</ele>
        <time>2014-05-25T10:56:43Z</time>
      </trkpt>
      <trkpt lat="59.8538815" lon="17.6417638">
        <ele>0</ele>
        <time>2014-05-25T10:56:44Z</time>
      </trkpt>
      <trkpt lat="59.8538548" lon="17.6417794">
        <ele>0</ele>
        <time>2014-05-25T10:56:45Z</time>
      </trkpt>
      <trkpt lat="59.8538249" lon="17.6418099">
        <ele>0</ele>
        <time>2014-05-25T10:56:46Z</time>
      </trkpt>
      <trkpt lat="59.8537912" lon="17.6418359">
        <ele>0</ele>
        <time>2014-05-25T10:56:47Z</time>
      </trkpt>
      <trkpt lat="59.8537584" lon="17.64186">
        <ele>0</ele>
        <time>2014-05-25T10:56:48Z</time>
      </trkpt>
      <trkpt lat="59.8537294" lon="17.6418761">
        <ele>0</ele>
        <time>2014-05-25T10:56:49Z</time>
      </trkpt>
      <trkpt lat="59.8537033" lon="17.641896">
        <ele>0</ele>
        <time>2014-05-25T10:56:50Z</time>
      </trkpt>
      <trkpt lat="59.853674" lon="17.6419211">
        <ele>0</ele>
        <time>2014-05-25T10:56:51Z</time>
      </trkpt>
      <trkpt lat="59.8536427" lon="17.6419444">
        <ele>0</ele>
        <time>2014-05-25T10:56:52Z</time>
      </trkpt>
      <trkpt lat="59.8536149" lon="17.6419682">
        <ele>0</ele>
        <time>2014-05-25T10:56:53Z</time>
      </trkpt>
      <trkpt lat="59.8535932" lon="17.6419974">
        <ele>0</ele>
        <time>2014-05-25T10:56:54Z</time>
      </trkpt>
      <trkpt lat="59.8535714" lon="17.6420306">
        <ele>0</ele>
        <time>2014-05-25T10:56:55Z</time>
      </trkpt>
      <trkpt lat="59.853546" lon="17.6420682">
        <ele>0</ele>
        <time>2014-05-25T10:56:56Z</time>
      </trkpt>
      <trkpt lat="59.8535201" lon="17.642106">
        <ele>0</ele>
        <time>2014-05-25T10:56:57Z</time>
      </trkpt>
      <trkpt lat="59.8534922" lon="17.6421368">
        <ele>0</ele>
        <time>2014-05-25T10:56:58Z</time>
      </trkpt>
      <trkpt lat="59.8534597" lon="17.6421576">
        <ele>0</ele>
        <time>2014-05-25T10:56:59Z</time>
      </trkpt>
      <trkpt lat="59.853428" lon="17.6421441">
        <ele>0</ele>
        <time>2014-05-25T10:57:00Z</time>
      </trkpt>
      <trkpt lat="59.8533995" lon="17.6421171">
        <ele>0</ele>
        <time>2014-05-25T10:57:01Z</time>
      </trkpt>
      <trkpt lat="59.8533689" lon="17.6420938">
        <ele>0</ele>
        <time>2014-05-25T10:57:02Z</time>
      </trkpt>
      <trkpt lat="59.8533348" lon="17.6420776">
        <ele>0</ele>
        <time>2014-05-25T10:57:03Z</time>
      </trkpt>
      <trkpt lat="59.8533021" lon="17.6420638">
        <ele>0</ele>
        <time>2014-05-25T10:57:04Z</time>
      </trkpt>
      <trkpt lat="59.8532667" lon="17.6420496">
        <ele>0</ele>
        <time>2014-05-25T10:57:05Z</time>
      </trkpt>
      <trkpt lat="59.8532337" lon="17.6420455">
        <ele>0</ele>
        <time>2014-05-25T10:57:06Z</time>
      </trkpt>
      <trkpt lat="59.8531959" lon="17.6420402">
        <ele>0</ele>
        <time>2014-05-25T10:57:07Z</time>
      </trkpt>
      <trkpt lat="59.8531628" lon="17.6420195">
        <ele>0</ele>
        <time>2014-05-25T10:57:08Z</time>
      </trkpt>
      <trkpt lat="59.8531338" lon="17.642003">
        <ele>0</ele>
        <time>2014-05-25T10:57:09Z</time>
      </trkpt>
      <trkpt lat="59.8531022" lon="17.6419794">
        <ele>0</ele>
        <time>2014-05-25T10:57:10Z</time>
      </trkpt>
      <trkpt lat="59.8530703" lon="17.6419667">
        <ele>0</ele>
        <time>2014-05-25T10:57:11Z</time>
      </trkpt>
      <trkpt lat="59.8530398" lon="17.6419601">
        <ele>0</ele>
        <time>2014-05-25T10:57:12Z</time>
      </trkpt>
      <trkpt lat="59.8530066" lon="17.6419693">
        <ele>0</ele>
        <time>2014-05-25T10:57:13Z</time>
      </trkpt>
      <trkpt lat="59.8529719" lon="17.6419815">
        <ele>0</ele>
        <time>2014-05-25T10:57:14Z</time>
      </trkpt>
      <trkpt lat="59.8529421" lon="17.641986">
        <ele>0</ele>
        <time>2014-05-25T10:57:15Z</time>
      </trkpt>
      <trkpt lat="59.8529172" lon="17.6419887">
        <ele>0</ele>
        <time>2014-05-25T10:57:16Z</time>
      </trkpt>
      <trkpt lat="59.8529025" lon="17.642001">
        <ele>0</ele>
        <time>2014-05-25T10:57:17Z</time>
      </trkpt>
      <trkpt lat="59.852898" lon="17.6420182">
        <ele>0</ele>
        <time>2014-05-25T10:57:18Z</time>
      </trkpt>
      <trkpt lat="59.8528958" lon="17.6420433">
        <ele>0</ele>
        <time>2014-05-25T10:57:19Z</time>
      </trkpt>
      <trkpt lat="59.8528953" lon="17.6420602">
        <ele>0</ele>
        <time>2014-05-25T10:57:20Z</time>
      </trkpt>
      <trkpt lat="59.8528966" lon="17.6420713">
        <ele>0</ele>
        <time>2014-05-25T10:57:21Z</time>
      </trkpt>
      <trkpt lat="59.852898" lon="17.6420776">
        <ele>0</ele>
        <time>2014-05-25T10:57:22Z</time>
      </trkpt>
      <trkpt lat="59.8528973" lon="17.6420806">
        <ele>0</ele>
        <time>2014-05-25T10:57:23Z</time>
      </trkpt>
    </trkseg>
  </trk>
</gpx>